GFSGBSN_prec_cthk_000.txt.gz
RH
35 34 27 21 25 35 41 52 65 61 55 54 53 56 61 61 56 52 57 59 59 60 57 55 51 49 69 72 62 59 49 40 44 58 62 59 60 59 56 53 57 56 56 54 33 29 26
37 36 32 26 26 37 42 57 69 66 60 64 64 60 55 59 62 58 56 59 58 72 64 56 61 54 60 67 60 67 55 47 42 59 58 63 57 59 59 56 60 55 54 54 36 29 26
37 33 33 28 28 40 45 64 75 77 74 75 73 73 61 66 66 65 70 72 68 70 82 62 63 60 58 56 57 66 58 52 44 70 73 64 61 64 62 62 61 55 54 55 38 28 27
40 33 33 29 30 42 45 70 77 82 84 86 84 83 82 81 73 69 68 76 75 80 78 71 66 71 60 43 58 66 62 55 47 62 67 66 65 73 66 63 60 51 52 55 36 20 23
40 34 33 32 30 40 46 69 79 87 88 89 91 93 91 89 86 72 67 74 77 78 75 72 86 80 58 47 54 60 65 57 48 66 70 80 69 68 73 71 63 55 56 55 33 22 27
33 37 34 33 31 37 50 71 81 88 90 92 94 98 98 98 96 85 76 81 85 89 83 88 93 89 61 42 43 65 66 62 55 72 84 87 84 82 75 70 65 57 59 51 35 26 30
36 42 35 31 31 34 47 70 82 83 87 94 96 96 97 98 98 97 90 91 99 98 90 92 83 76 59 43 49 65 64 67 59 74 83 82 92 84 79 64 60 62 52 48 37 25 28
39 36 43 31 26 30 43 64 71 85 89 92 95 97 97 97 97 97 95 98 96 91 94 91 86 76 71 50 60 68 76 82 68 70 76 84 81 74 76 72 63 65 53 47 38 26 28
38 40 44 38 29 26 40 53 68 82 89 94 96 98 95 96 95 98 98 97 97 94 83 76 73 72 77 60 66 78 86 79 67 69 75 80 78 84 74 70 67 61 50 46 43 32 28
36 42 37 46 36 24 36 45 65 83 88 89 96 98 96 97 96 97 99 96 89 87 79 74 76 81 84 60 83 65 85 88 73 68 74 77 73 75 77 68 63 52 47 44 41 35 35
36 41 45 47 43 27 32 44 61 80 88 89 95 98 96 98 97 95 96 97 94 98 96 85 89 88 88 75 79 84 94 85 72 69 70 66 65 73 74 61 53 50 47 43 40 34 32
36 41 46 45 46 38 28 41 50 70 86 86 93 97 95 96 96 96 97 97 99 98 96 97 98 97 96 97 80 92 98 91 83 73 70 69 66 72 64 55 53 53 46 44 43 36 38
40 44 47 48 53 45 28 33 44 57 74 85 87 93 98 98 98 97 97 98 99 94 87 95 95 96 95 94 86 95 97 96 89 83 81 72 68 63 54 56 53 48 46 52 50 47 39
40 47 48 51 52 47 41 25 37 46 55 67 76 85 88 93 99 99 99 98 98 90 86 88 90 94 94 87 95 95 94 87 85 74 73 74 66 65 53 53 49 43 45 50 48 48 38
41 47 51 54 50 58 45 28 30 41 45 55 66 73 78 86 94 98 99 99 94 88 85 86 89 96 97 93 88 91 91 80 77 71 60 74 67 55 51 46 41 39 43 38 44 43 43
42 47 51 54 54 57 49 33 22 34 42 50 56 70 80 84 92 99 98 97 97 91 84 85 87 92 91 86 80 84 90 77 75 71 68 62 63 56 49 42 36 37 34 40 44 44 44
42 47 52 54 56 54 57 34 17 29 39 48 54 66 80 83 89 99 97 96 97 90 91 95 82 81 78 73 75 81 85 79 71 70 64 58 54 54 44 40 37 36 34 32 38 40 42
42 45 52 54 58 53 63 44 19 25 42 52 55 64 75 79 84 91 96 96 95 96 98 91 75 76 77 77 80 79 75 73 69 65 65 54 53 48 41 35 36 36 37 36 38 38 42
43 44 49 52 59 56 64 59 17 25 43 56 63 70 74 80 83 90 89 93 96 97 93 90 89 85 78 82 82 77 73 69 64 63 63 49 52 52 50 47 43 41 38 38 40 43 46
41 43 46 50 57 59 61 65 20 20 35 52 60 73 69 74 78 83 86 83 90 92 89 87 88 85 86 79 75 75 73 69 64 58 55 54 53 47 47 42 42 44 44 43 44 51 48
39 42 45 49 50 62 60 67 28 18 29 49 56 68 67 70 74 78 79 77 80 83 86 86 84 81 80 82 79 79 74 67 63 58 53 47 48 47 45 42 44 48 49 50 49 47 42
38 43 42 45 50 62 60 68 42 16 26 43 50 66 67 71 70 73 75 77 76 75 76 83 84 79 77 76 75 74 71 68 63 61 60 56 59 55 51 47 46 44 43 42 40 39 38
38 40 40 41 47 56 62 64 61 17 21 36 50 56 62 63 62 63 66 62 70 72 70 73 75 77 78 73 71 78 74 71 69 66 64 62 60 56 50 54 52 48 40 37 32 31 35
38 38 37 38 42 51 64 64 70 24 19 30 47 47 53 58 58 56 56 55 59 62 63 66 66 66 67 68 70 70 71 70 68 68 61 57 54 53 52 47 50 37 38 45 47 48 46
38 38 38 38 41 44 59 66 67 47 19 27 40 44 44 52 55 54 48 50 46 48 54 57 53 53 55 57 57 59 60 54 51 50 46 40 40 44 47 47 42 44 46 47 48 47 40
39 40 40 40 40 42 52 65 67 71 31 26 33 40 40 42 48 47 48 45 44 39 37 36 39 39 38 41 47 49 52 45 46 45 41 38 40 45 62 61 58 47 46 40 36 39 39
41 42 42 41 40 43 46 59 68 72 71 37 32 32 36 39 42 43 46 45 41 38 40 37 35 35 35 40 48 54 57 58 70 70 69 68 68 67 70 64 51 40 39 36 40 37 42
43 43 42 40 40 42 45 50 63 69 74 77 50 41 37 36 39 42 43 45 45 43 44 41 44 44 48 51 60 69 73 71 66 63 62 62 66 60 58 58 53 40 41 42 43 44 44
45 44 41 39 39 40 42 46 55 66 72 73 79 68 55 48 45 39 39 42 46 50 47 46 51 51 58 69 69 69 72 69 67 68 58 56 52 52 47 47 42 43 44 45 47 49 50

GFSGBSN_prec_cthk_003.txt.gz
RH
36 34 30 28 25 25 35 39 50 62 61 56 55 56 55 56 56 56 56 58 64 61 57 60 60 61 64 65 62 67 59 51 45 57 61 67 70 59 57 55 54 53 50 54 57 47 30
33 37 32 31 25 26 36 44 61 69 69 65 66 65 64 57 59 60 60 60 69 71 68 67 71 68 65 60 50 66 71 58 50 50 61 67 68 61 59 61 58 52 52 55 55 53 33
31 39 33 33 27 27 36 45 72 77 76 76 79 78 79 71 64 67 63 62 67 73 68 74 68 73 66 45 45 63 73 64 56 49 60 60 67 66 60 63 60 55 55 54 53 56 39
31 35 35 33 30 29 36 48 74 82 83 84 88 86 84 84 75 77 76 74 77 77 75 79 83 87 69 51 46 60 72 69 56 54 65 68 72 65 66 63 61 56 55 54 54 53 33
34 31 40 34 32 31 35 51 74 78 85 90 93 92 92 91 86 87 78 79 75 78 74 88 88 91 68 59 46 54 74 74 60 57 71 79 82 77 69 66 67 58 57 54 56 45 32
33 37 37 41 32 35 32 49 68 77 84 88 93 96 95 94 95 94 83 74 73 80 78 91 92 96 71 57 43 53 74 78 63 65 82 91 86 78 76 68 72 58 57 56 57 43 37
32 40 37 47 31 35 28 41 60 77 83 91 95 97 97 96 97 99 92 89 85 90 81 79 82 74 70 61 51 57 78 78 67 78 84 96 94 80 63 79 61 67 60 56 53 45 38
33 37 43 40 37 32 28 34 54 75 84 90 96 97 98 97 98 97 97 89 88 88 93 84 87 90 88 65 56 54 79 76 67 76 87 93 90 66 67 67 68 67 59 57 52 45 40
34 35 44 41 45 34 31 31 48 72 84 87 94 98 98 97 98 98 95 93 97 98 97 93 89 86 94 69 57 56 71 76 64 73 78 79 76 80 71 74 72 68 62 59 55 46 44
35 36 43 50 45 42 34 32 41 68 85 90 96 98 97 98 97 97 97 97 97 94 97 94 86 82 90 73 61 68 84 84 68 71 74 85 76 79 83 80 76 78 62 62 53 51 51
38 37 44 51 50 48 37 35 33 59 79 90 95 99 97 98 98 97 97 95 95 92 83 64 75 79 81 75 65 80 80 86 66 62 85 82 78 76 89 72 69 73 66 58 55 50 45
39 40 45 54 56 54 44 37 31 44 61 72 82 92 97 99 97 95 97 96 96 99 97 74 77 79 89 78 77 90 96 96 76 66 73 72 70 72 63 78 74 74 61 57 56 52 51
39 40 46 54 58 55 52 42 32 33 50 63 73 83 95 99 98 97 97 97 99 99 88 96 84 82 86 88 89 91 91 91 86 82 83 74 74 69 73 77 75 64 62 68 63 60 54
40 39 46 53 59 58 60 48 36 30 40 51 62 79 87 97 99 98 98 99 97 88 92 88 91 91 85 91 95 94 97 94 79 67 71 76 81 66 71 67 61 58 57 61 59 58 48
41 39 44 53 55 60 58 54 37 25 36 44 55 67 81 88 96 98 98 98 91 85 81 87 96 95 98 93 87 97 98 91 76 69 68 69 62 60 55 55 56 53 56 53 54 55 58
41 40 42 52 55 61 57 58 40 22 35 44 51 61 77 88 93 99 98 98 91 87 79 84 86 92 89 86 94 97 95 88 79 72 66 62 64 61 54 56 55 53 55 54 55 58 56
39 39 42 49 55 60 58 59 45 24 31 44 55 63 79 88 94 99 98 97 93 85 86 79 82 85 76 77 89 95 93 90 81 73 70 62 60 67 60 57 55 53 47 45 48 50 48
39 39 42 47 50 58 58 60 54 24 30 51 61 69 85 90 97 98 97 97 88 88 92 90 81 75 70 71 81 89 88 80 78 73 75 66 71 69 64 59 55 52 42 41 43 41 45
39 39 42 46 48 55 59 61 61 26 31 54 66 77 82 90 95 96 97 95 95 96 94 85 74 74 74 71 81 87 84 74 75 70 73 67 71 79 72 66 55 47 38 36 38 41 44
40 40 42 46 47 51 58 61 60 29 34 53 66 75 81 88 92 90 92 97 97 96 90 79 76 72 73 76 77 78 78 76 71 71 76 70 71 62 55 51 44 39 35 36 40 48 46
41 41 42 46 47 48 57 61 59 30 27 42 66 71 73 77 81 84 82 91 94 92 88 88 80 74 75 80 76 76 75 73 71 71 71 67 60 59 48 37 40 39 42 44 44 45 47
42 42 43 46 46 46 54 60 67 41 22 39 62 71 69 74 72 77 81 82 83 84 85 87 85 86 77 76 74 73 73 68 65 65 62 54 54 49 43 39 42 41 44 49 49 50 50
44 43 43 45 44 43 51 60 66 55 19 35 56 70 72 76 73 72 76 82 79 81 84 86 87 86 83 74 72 72 70 68 68 64 60 55 53 49 47 49 45 45 45 45 47 46 42
44 44 43 43 42 42 46 59 64 65 19 30 50 62 64 69 70 65 65 71 77 75 79 83 79 77 79 79 77 76 74 72 70 68 62 58 56 56 55 56 58 46 52 50 45 43 36
50 45 43 42 40 41 43 55 63 70 26 25 46 57 55 64 66 63 62 68 72 72 75 76 76 77 76 76 77 82 82 74 73 73 68 64 64 67 66 65 56 56 50 47 45 51 53
49 46 44 42 42 42 43 49 65 69 44 22 40 53 50 54 60 59 58 60 61 66 66 64 62 63 64 68 71 74 73 70 71 64 60 56 53 52 61 59 53 43 41 42 46 59 56
47 47 45 43 45 43 44 47 63 69 66 29 34 47 50 46 52 54 55 54 49 50 52 49 49 50 52 59 64 64 61 54 58 56 51 46 46 49 53 52 47 43 43 47 54 43 39
49 51 46 44 48 45 44 48 56 69 74 56 36 40 44 46 48 47 51 52 48 46 42 38 40 39 40 47 50 52 52 49 50 52 59 64 67 63 64 66 65 52 47 43 40 40 41
52 52 46 46 48 45 43 47 53 65 72 80 64 44 41 39 42 45 45 50 52 50 44 41 43 42 42 48 49 51 55 62 67 74 70 65 58 65 61 56 43 40 41 42 43 45 46

GFSGBSN_prec_cthk_006.txt.gz
RH
29 28 33 31 28 25 24 30 39 52 57 62 58 57 62 58 56 55 55 52 51 56 55 56 57 76 88 81 55 51 64 62 61 54 67 72 68 67 62 57 55 53 47 46 49 52 54
28 27 32 33 29 29 26 31 38 60 70 69 66 66 70 65 58 57 56 52 52 56 58 68 67 75 92 76 54 54 63 71 66 58 64 73 66 63 68 62 58 53 50 48 49 53 54
27 29 30 32 31 29 27 31 37 59 72 74 78 79 80 76 72 65 56 56 60 59 58 69 83 78 74 53 62 53 55 73 69 61 60 70 67 66 67 65 58 58 56 52 47 50 55
27 30 31 32 32 29 30 32 37 57 73 80 82 86 86 85 82 74 65 66 73 63 64 72 82 87 61 67 67 54 57 68 72 63 62 74 75 66 74 71 62 61 59 56 45 49 53
28 29 33 33 33 32 33 36 35 50 65 78 79 84 88 90 89 87 80 77 79 75 72 79 86 87 71 66 59 52 55 67 81 67 67 78 87 77 78 74 63 60 57 54 49 49 46
28 30 33 36 35 36 32 36 33 43 63 74 82 89 92 95 92 94 94 92 88 87 85 86 87 99 76 69 65 54 52 73 90 72 77 89 95 87 79 76 80 59 56 53 52 52 44
28 31 32 37 37 41 30 32 34 41 64 77 84 92 95 97 94 96 98 98 94 87 86 75 75 77 79 77 68 56 52 76 94 73 80 86 93 89 76 63 59 60 59 57 56 53 45
27 32 33 35 42 38 39 30 34 37 64 79 86 95 98 98 97 97 97 97 88 84 90 79 77 82 79 89 79 60 58 80 91 72 84 97 90 79 81 73 73 60 63 61 59 54 46
28 31 34 37 42 44 44 34 32 36 60 78 85 92 98 98 98 98 97 96 94 93 95 86 76 79 87 94 78 59 57 79 91 75 80 87 83 82 83 76 72 70 63 67 63 58 50
34 36 38 39 43 50 47 44 33 35 54 65 77 88 98 98 98 98 97 98 97 96 98 94 81 78 85 95 82 57 58 80 87 71 83 92 91 87 85 81 70 83 66 70 64 65 57
35 37 39 39 45 52 53 50 39 35 36 60 73 88 98 98 97 98 98 98 97 99 97 88 88 82 80 90 71 67 69 89 85 69 86 88 87 95 87 77 69 68 73 73 67 62 53
36 37 40 39 45 52 56 57 49 41 31 43 64 76 95 98 96 98 97 98 98 99 94 82 83 83 91 81 79 70 66 87 89 72 80 88 85 89 82 80 73 75 76 74 68 61 61
38 38 41 40 46 50 56 60 59 51 32 42 50 69 84 95 98 98 98 98 98 98 94 83 79 83 87 77 82 74 74 91 90 84 86 80 82 73 70 83 75 81 80 86 73 69 59
39 40 41 40 45 51 55 61 62 57 32 41 45 58 73 88 98 96 98 97 98 98 92 83 74 77 85 75 88 85 93 97 94 66 72 83 91 81 80 72 74 80 77 72 70 66 55
39 41 41 40 45 51 55 63 62 60 32 39 44 55 71 88 98 97 97 98 97 86 93 91 77 75 83 87 92 91 90 92 89 73 71 85 77 69 62 60 77 80 77 65 67 60 60
42 42 42 40 46 50 55 64 64 65 33 35 46 57 75 95 98 98 98 98 98 91 87 89 76 73 92 94 97 95 94 91 89 76 62 67 67 60 60 64 71 71 70 69 67 65 61
46 44 43 40 45 50 55 63 65 67 32 36 55 68 85 99 97 98 98 97 96 86 80 81 78 78 83 84 93 92 93 88 83 78 69 64 65 71 65 64 67 66 60 61 62 62 59
50 45 43 40 45 48 54 61 65 69 33 38 58 76 93 98 99 97 97 97 91 85 82 84 72 81 81 84 92 96 90 80 78 74 69 62 63 69 61 60 65 62 60 59 63 59 56
49 46 44 40 46 47 52 60 64 69 37 37 65 84 95 98 99 98 98 94 92 91 89 87 78 75 71 74 88 92 95 84 79 75 71 65 68 79 76 67 64 59 59 59 59 54 49
47 47 45 41 46 47 52 60 62 68 41 39 66 83 90 97 99 97 96 95 96 96 96 88 80 78 70 77 80 89 92 86 79 73 72 66 67 64 69 61 63 64 60 60 55 50 45
48 45 46 42 45 48 51 59 60 69 45 37 60 74 81 92 94 94 93 95 98 97 92 82 77 76 70 75 80 86 83 80 82 78 77 77 72 70 63 63 62 66 63 47 36 31 40
46 44 46 44 45 48 49 57 60 68 53 26 50 68 77 83 83 89 88 92 91 90 90 81 80 78 75 73 68 74 77 78 73 76 76 80 73 68 66 62 55 51 51 39 37 39 40
51 48 47 46 46 48 47 53 60 63 62 29 44 70 73 83 82 81 86 85 88 86 89 85 79 82 74 78 72 74 74 72 72 70 72 74 70 61 65 60 54 45 37 49 47 46 49
66 52 49 47 47 48 47 50 60 61 69 32 36 69 73 78 80 76 74 82 85 82 86 85 81 81 82 81 76 76 78 74 73 71 67 65 68 65 59 57 52 37 42 40 45 47 47
74 56 50 48 47 47 46 48 57 64 69 41 30 63 69 71 74 71 69 80 82 83 88 84 85 86 81 79 81 85 81 75 75 76 72 66 66 63 59 58 51 49 46 49 49 53 49
80 61 56 49 48 47 46 47 51 65 68 56 28 58 65 64 67 67 70 74 76 78 82 83 82 83 84 85 79 86 87 79 73 73 70 65 61 59 73 73 64 54 58 55 52 59 55
89 73 63 57 50 48 48 47 50 62 69 65 29 50 64 59 61 61 67 72 68 71 76 74 77 78 80 84 86 85 85 75 76 71 67 69 69 67 70 67 60 53 50 50 57 49 53
94 79 62 56 54 51 50 48 51 60 69 73 36 42 62 59 57 62 60 62 60 61 61 59 61 60 64 70 75 75 71 68 71 68 66 64 68 67 68 65 60 48 47 47 50 52 49
98 84 58 55 54 53 52 49 53 57 68 75 61 38 50 57 56 56 59 59 56 55 50 47 48 46 48 57 57 58 58 56 54 56 51 49 49 63 66 63 59 59 59 55 50 45 44

GFSGBSN_prec_cthk_009.txt.gz
RH
29 31 28 29 29 28 27 22 23 30 44 55 59 59 57 60 58 57 56 52 50 49 51 49 49 53 57 58 49 54 59 53 48 64 59 64 77 74 72 64 63 56 52 49 48 46 48
28 30 28 27 29 29 30 24 25 30 44 58 63 67 67 69 67 62 59 57 55 52 49 52 54 63 62 59 56 62 66 60 56 67 65 68 80 76 72 67 65 56 55 52 49 47 48
27 29 29 28 27 27 30 25 25 30 40 56 66 76 75 77 76 75 69 61 58 55 52 55 60 65 64 56 63 69 70 64 66 66 69 69 78 82 71 71 64 62 60 56 48 47 47
28 30 31 30 29 29 30 29 28 29 36 49 61 75 80 82 82 83 78 71 63 60 57 59 63 71 73 71 71 76 78 73 68 69 71 77 91 92 79 71 67 68 64 61 49 47 44
29 32 33 32 32 31 32 30 31 31 33 41 58 73 77 80 84 88 89 83 74 72 72 69 73 78 79 74 73 69 77 74 70 76 74 86 92 97 83 74 68 72 66 57 55 47 45
27 30 34 36 33 34 36 32 31 30 33 44 63 76 81 88 89 91 93 93 86 83 83 84 84 86 75 78 74 68 73 70 76 84 85 88 94 97 90 73 83 71 61 56 51 48 45
27 29 32 34 34 38 37 37 32 30 31 43 66 74 79 90 92 96 96 97 94 91 89 87 82 75 72 82 77 68 71 70 80 95 84 86 96 96 87 75 67 66 58 53 56 52 49
26 32 36 34 37 39 42 40 39 32 31 39 58 68 81 90 94 97 97 98 96 91 92 92 88 82 70 80 86 75 74 69 81 93 84 91 94 89 87 77 71 67 66 58 58 54 51
32 33 36 37 39 39 44 48 45 39 34 35 53 65 86 95 97 97 98 98 98 96 96 93 86 81 78 82 84 82 72 64 78 89 82 79 88 86 90 84 78 68 62 59 64 61 57
34 36 37 38 41 39 44 50 51 47 40 37 40 59 80 92 97 98 98 98 98 98 98 93 91 78 77 83 83 87 69 64 86 88 81 90 93 88 93 84 77 75 67 62 66 68 65
34 36 37 39 42 41 43 51 55 55 51 42 32 47 66 87 97 97 97 99 98 98 98 88 93 84 73 76 83 80 66 73 85 87 81 95 96 88 91 80 78 76 72 72 69 68 58
35 35 36 40 44 42 48 52 54 62 60 53 36 45 53 74 94 97 98 98 98 98 96 97 95 85 81 86 91 85 64 79 92 85 80 96 92 91 81 84 82 72 76 76 70 67 60
41 34 36 40 46 44 47 54 56 64 66 55 40 49 53 67 85 98 98 98 98 98 93 97 92 87 82 90 97 81 65 84 97 95 87 97 91 90 89 86 83 80 82 91 90 80 62
44 41 41 43 47 46 47 54 60 65 68 59 38 50 55 69 88 98 97 97 97 94 94 91 80 91 87 90 97 80 74 94 97 84 79 98 97 84 87 91 83 81 79 81 82 70 60
53 51 49 48 49 47 48 54 60 66 69 66 39 50 58 72 94 98 98 97 91 95 95 88 77 86 97 85 91 82 82 86 94 85 73 87 84 80 81 81 75 91 87 74 71 65 63
49 52 53 49 50 48 49 52 60 66 70 65 38 57 65 87 99 98 98 98 95 96 95 77 68 75 86 83 96 72 79 80 93 82 73 74 74 75 69 78 75 78 74 88 72 70 66
50 51 54 52 51 48 50 51 59 66 71 59 42 65 81 96 99 98 98 97 96 96 93 78 67 71 74 83 93 86 74 89 91 82 76 68 66 70 68 68 73 69 78 76 74 68 61
58 50 53 53 52 49 51 51 59 66 71 56 44 70 89 97 98 97 97 96 96 93 85 79 72 78 78 79 88 89 90 91 87 81 71 66 64 70 63 65 65 61 69 78 70 66 62
68 51 52 54 54 51 52 52 59 66 70 56 54 78 91 97 97 98 96 97 96 87 88 80 72 80 76 84 89 83 83 82 86 79 72 67 69 74 74 71 64 64 65 67 66 60 59
75 54 50 54 54 53 53 53 59 67 70 56 54 79 92 98 98 99 97 96 96 91 91 88 78 78 78 80 84 88 88 83 82 77 73 71 69 67 67 59 60 61 60 61 63 64 61
86 72 60 53 55 53 55 54 60 67 70 54 52 69 87 96 97 98 98 95 96 96 97 92 85 76 71 78 81 86 91 81 82 81 77 72 70 64 61 59 60 59 58 66 62 59 64
91 80 68 54 53 53 55 55 59 67 69 61 51 56 73 85 85 96 98 98 96 97 97 84 81 75 74 72 73 78 79 80 78 77 75 75 74 67 65 63 63 66 65 63 63 66 51
96 89 74 52 53 54 54 55 57 66 67 70 42 43 69 84 83 93 93 95 97 95 94 82 76 74 77 79 74 76 75 78 78 78 77 81 73 72 76 68 66 62 58 60 60 58 37
98 91 74 54 56 54 55 55 56 63 67 74 45 44 70 84 83 85 81 88 95 92 95 82 80 81 75 71 72 76 76 79 80 79 78 83 84 79 73 69 71 57 56 51 47 45 42
98 96 83 56 54 53 55 55 54 61 68 72 51 40 69 79 80 79 78 85 90 90 92 85 84 82 82 78 80 83 83 82 81 83 80 82 78 80 74 69 59 56 52 44 41 45 44
99 95 83 69 57 54 55 54 53 57 67 71 61 40 65 78 74 72 72 79 87 89 89 88 86 86 90 86 87 95 96 85 81 78 73 70 69 74 85 68 60 50 55 55 48 49 47
98 98 86 76 60 55 54 53 51 55 64 71 68 46 60 76 73 67 71 77 79 84 89 87 89 89 90 90 85 88 87 84 80 78 74 78 78 79 75 69 62 58 55 53 59 51 54
98 97 92 81 62 57 54 52 51 54 61 72 73 56 54 74 72 65 68 72 73 74 82 85 84 84 93 93 92 84 82 80 78 74 73 73 77 76 78 75 67 61 58 56 55 54 54
98 97 95 80 68 66 58 53 53 55 61 71 77 66 49 68 75 67 65 66 68 65 69 75 77 74 77 83 86 83 81 84 75 77 75 72 69 70 67 60 56 51 51 51 55 53 56

GFSGBSN_prec_cthk_012.txt.gz
RH
28 33 29 28 26 28 28 27 24 21 24 35 46 50 51 54 59 57 54 52 51 50 51 49 44 47 51 54 55 59 54 49 44 51 51 54 64 68 67 72 71 60 52 51 49 48 43
27 31 33 28 27 26 26 29 27 22 24 29 45 51 55 60 66 64 60 56 58 54 53 50 51 51 53 57 50 47 50 47 46 48 58 55 62 70 73 73 72 61 57 53 53 51 48
27 28 33 33 30 28 27 30 29 24 24 26 40 49 57 66 73 72 68 65 58 57 56 57 55 58 59 53 50 46 46 45 44 49 53 56 64 83 72 75 75 69 64 61 55 52 49
27 28 30 35 31 30 31 29 31 29 27 25 31 46 57 65 75 81 77 75 70 62 59 62 63 61 61 55 54 51 50 47 47 47 56 59 70 87 89 77 78 73 68 64 52 53 49
26 34 32 35 35 34 32 31 33 33 33 27 28 46 60 65 66 77 81 83 81 73 70 66 67 67 64 57 57 58 57 57 56 54 58 66 76 87 96 88 81 77 67 62 58 54 49
24 31 34 36 36 36 36 34 35 34 35 30 28 42 62 68 69 83 83 86 89 84 85 82 80 80 66 63 65 63 66 73 74 77 75 79 81 89 96 89 81 75 68 59 59 52 45
31 23 32 36 37 38 38 37 36 38 38 32 28 37 57 66 82 87 91 92 92 92 91 84 82 79 75 73 71 70 72 76 84 88 88 84 89 87 88 89 75 67 59 59 56 53 50
44 33 26 35 37 38 40 39 40 41 41 35 31 33 49 63 78 89 96 94 93 94 95 96 92 89 87 84 77 74 76 73 80 85 95 92 90 78 93 88 77 70 65 62 62 52 51
42 45 35 35 38 40 40 41 41 48 47 42 36 35 43 60 78 85 97 97 98 98 98 94 96 95 94 86 72 82 80 72 72 79 95 85 72 87 97 90 82 75 69 63 61 59 57
46 47 45 35 45 48 46 43 41 50 53 50 45 42 39 52 71 80 95 98 98 99 98 91 95 94 95 90 73 70 85 76 79 79 95 85 85 89 96 87 81 80 70 69 67 71 65
52 47 51 39 44 48 49 48 47 52 56 59 54 52 42 46 61 74 92 98 98 98 96 85 93 92 90 80 75 75 83 78 78 90 97 87 84 94 93 86 79 75 73 69 71 74 66
67 54 52 47 39 48 49 49 50 55 58 64 64 58 43 51 59 68 94 98 98 98 92 94 95 95 94 79 76 90 89 80 85 91 96 80 89 91 91 86 86 81 76 76 71 70 64
78 63 58 53 38 48 50 50 50 58 61 66 69 67 43 51 59 77 98 98 98 97 91 98 97 97 92 80 82 93 84 79 97 94 97 88 98 84 89 93 88 82 84 94 90 86 61
86 79 58 62 43 48 51 51 52 60 63 66 70 71 52 51 66 85 98 98 98 92 97 96 95 95 89 81 87 97 83 85 94 89 84 98 99 97 81 89 85 86 75 70 71 63 54
99 90 68 67 53 50 52 52 55 62 64 67 72 73 49 59 75 96 98 98 92 95 95 97 92 86 84 82 88 93 71 77 96 88 82 97 98 93 85 80 84 93 85 69 63 57 54
99 94 65 68 65 51 54 54 57 62 65 69 74 68 45 70 91 98 98 97 95 96 97 94 69 69 71 79 97 77 69 72 85 85 88 88 96 89 88 88 87 85 78 80 65 66 61
96 94 72 72 68 60 55 56 59 64 65 70 74 64 57 75 98 98 98 97 96 95 96 87 59 61 63 74 85 69 69 80 74 80 88 85 82 84 84 90 90 85 86 79 66 59 54
98 98 85 67 70 65 56 58 61 65 67 71 65 67 64 85 98 97 98 97 95 96 94 73 65 59 60 74 80 81 73 87 73 74 81 76 69 86 76 74 80 77 71 76 75 67 56
96 98 88 71 73 66 58 59 63 65 69 72 63 69 70 88 97 98 97 96 96 94 83 79 69 63 67 78 79 77 72 79 76 76 72 70 67 75 89 79 72 77 70 68 61 57 57
93 98 88 73 71 66 59 60 64 66 70 74 66 70 72 88 98 97 98 97 97 88 81 86 78 77 73 72 68 62 75 82 85 80 75 71 67 60 61 59 58 60 61 64 61 68 60
94 97 90 77 72 66 61 61 65 66 72 75 62 65 72 89 95 98 98 96 95 93 89 87 77 75 72 78 78 78 72 80 83 82 79 76 69 66 62 57 56 57 60 58 58 57 57
95 98 97 81 75 68 62 61 67 67 72 75 63 57 67 78 90 97 98 96 96 95 95 92 87 76 73 69 68 76 77 76 78 78 76 74 73 65 62 62 59 57 55 57 56 59 54
90 98 98 86 75 66 62 62 66 66 71 76 76 51 56 63 83 97 98 96 96 96 96 93 89 80 74 70 69 77 84 82 76 75 76 77 73 70 66 63 61 62 54 54 52 50 50
87 98 98 89 81 68 64 62 65 66 68 76 76 55 50 58 83 91 92 96 98 95 98 87 80 78 73 79 75 83 86 86 86 82 80 78 78 74 68 72 71 51 52 50 51 48 48
87 98 98 95 79 75 65 62 65 64 66 76 79 65 51 63 79 86 88 94 97 96 95 85 79 76 74 81 83 86 88 92 86 85 82 82 87 84 76 69 57 52 53 52 52 48 43
76 96 98 97 84 83 67 63 65 64 65 74 78 71 50 61 76 78 81 91 96 95 93 86 86 80 79 79 82 87 91 89 86 91 82 86 91 93 80 73 65 55 55 52 50 42 37
76 93 98 98 92 77 67 67 65 64 64 71 78 71 55 59 79 74 75 85 94 96 92 87 90 91 89 86 85 88 82 75 80 82 85 84 82 84 80 92 61 58 60 59 55 51 53
74 93 98 98 92 71 61 65 65 63 62 68 77 72 64 57 77 76 72 82 88 93 94 87 91 91 97 95 92 92 86 79 72 71 71 75 76 72 80 90 75 60 61 59 55 56 55
71 90 98 98 97 85 63 63 65 62 61 66 76 73 75 59 75 77 71 77 82 83 90 89 90 89 91 94 89 87 83 85 80 77 78 75 71 71 70 66 66 67 63 59 56 52 54

GFSGBSN_prec_cthk_015.txt.gz
RH
29 29 30 34 30 27 26 26 28 25 20 21 29 40 42 43 48 52 52 55 54 51 49 53 50 50 54 59 56 56 51 46 47 50 54 52 45 53 56 60 72 69 57 57 54 53 48
24 28 29 34 33 31 27 25 27 29 24 20 24 35 43 47 55 59 59 58 56 54 52 51 56 56 56 59 53 55 53 49 50 52 53 57 52 49 58 61 68 69 63 61 58 55 49
24 23 26 31 33 35 31 30 26 29 27 22 23 28 39 48 59 63 65 63 66 59 56 53 60 61 65 56 53 51 47 44 46 47 51 51 58 59 58 61 60 72 68 65 60 58 51
31 27 23 25 31 36 37 36 32 28 31 29 25 25 34 46 60 62 67 68 69 69 60 57 60 70 66 54 52 50 49 48 43 43 43 51 58 58 73 73 68 69 77 73 63 58 52
32 32 32 32 30 32 37 38 39 32 32 35 34 26 29 44 61 61 67 70 74 74 68 63 62 71 68 56 51 53 53 49 49 47 45 50 62 62 67 82 81 78 70 66 71 60 53
32 33 40 41 34 32 35 38 41 40 34 36 40 31 28 38 61 64 71 76 80 83 80 81 81 78 65 62 59 53 55 55 56 56 55 55 59 63 68 82 87 70 70 65 66 60 56
38 32 42 42 41 36 35 38 41 43 39 38 41 36 30 33 50 62 72 75 84 90 88 83 80 75 75 72 69 65 61 61 63 65 69 64 70 70 53 67 70 69 72 67 60 59 58
50 39 40 43 42 42 37 37 39 44 45 42 45 40 34 35 46 64 69 73 82 89 92 92 90 88 86 84 80 77 72 71 71 68 69 81 85 59 48 62 85 77 79 64 64 63 58
68 55 46 44 44 45 42 39 43 48 49 50 47 44 41 42 45 58 67 76 83 92 94 89 90 91 94 93 88 86 78 74 69 72 75 86 67 65 65 77 91 86 73 62 67 68 56
77 69 61 48 48 51 58 48 47 48 50 54 55 49 49 52 51 51 59 68 82 95 95 84 84 89 96 97 93 88 87 79 73 71 80 89 81 94 79 80 88 92 70 67 72 72 66
99 96 73 67 60 53 56 58 52 49 53 57 62 59 55 58 57 54 54 67 85 98 95 83 88 89 95 97 88 81 69 78 77 74 93 82 86 92 84 90 87 91 75 70 77 72 74
98 91 89 72 66 56 57 66 51 50 56 60 66 68 64 67 57 59 56 73 94 98 94 93 92 95 95 97 89 83 68 68 82 84 95 85 82 87 73 92 87 89 76 79 79 74 69
87 98 99 92 63 68 55 72 54 53 56 62 69 73 73 74 59 63 64 85 98 97 90 97 97 97 97 96 93 84 80 79 89 90 97 91 89 89 87 98 97 97 87 94 90 87 59
78 98 98 98 71 72 58 72 58 57 56 63 72 76 75 78 69 64 74 95 97 88 92 97 97 97 98 91 78 72 89 87 87 84 99 93 97 93 92 97 94 95 85 72 68 64 54
74 95 98 97 79 72 75 77 61 58 58 65 75 76 76 81 74 69 86 98 95 92 95 97 98 98 96 85 75 80 84 86 80 80 98 89 92 91 88 94 91 94 84 70 63 54 56
68 92 98 98 86 83 82 80 61 60 61 69 76 77 78 83 72 75 94 96 96 95 96 97 95 74 75 74 77 89 89 74 74 82 90 94 96 95 97 94 92 88 78 75 61 61 58
73 87 97 97 92 86 81 82 62 62 65 73 77 76 81 76 73 82 97 97 97 95 97 98 90 67 67 77 82 79 74 67 67 76 90 97 98 93 93 95 86 95 88 71 60 56 58
70 83 98 96 98 88 88 81 62 64 68 75 77 75 77 78 73 90 98 97 96 95 94 97 88 60 62 66 75 74 71 67 63 76 95 95 96 99 91 77 82 83 87 70 64 61 53
74 79 93 96 97 85 85 85 64 65 70 75 78 76 78 78 76 96 97 97 96 97 89 89 66 57 61 72 69 74 71 61 79 71 88 85 84 98 96 82 84 85 76 72 69 61 55
79 85 95 96 96 88 91 84 65 67 73 77 77 78 81 73 80 98 98 97 97 92 86 72 64 59 61 66 59 66 76 70 77 69 86 87 80 75 71 65 71 81 79 69 67 66 58
79 88 93 97 98 93 88 84 68 69 75 80 78 72 77 68 87 98 97 97 97 94 86 80 85 69 63 66 61 71 74 77 81 73 78 81 72 65 63 59 62 70 70 70 68 63 56
80 82 89 97 97 84 91 88 69 71 76 80 77 71 74 69 74 96 97 97 97 95 85 90 89 79 75 64 50 65 70 81 79 78 75 77 74 65 63 60 58 58 58 58 57 55 56
81 77 89 98 96 86 91 86 71 70 74 75 80 79 71 59 64 89 96 96 96 95 92 91 88 79 78 69 65 68 74 75 77 75 78 80 76 70 69 62 63 60 51 50 49 48 49
77 74 90 97 97 78 85 78 73 69 72 76 81 83 81 52 47 76 95 98 97 96 96 90 94 95 82 78 72 75 76 76 75 77 78 80 81 72 73 66 73 52 48 48 48 46 48
70 74 85 95 97 79 95 77 71 69 72 76 82 82 82 55 53 80 94 97 98 98 97 94 90 88 82 79 84 92 93 91 88 82 79 81 85 83 77 74 67 55 52 52 51 48 48
66 81 84 95 97 89 94 78 74 69 73 74 80 85 86 62 51 77 87 93 98 98 97 95 86 84 83 81 84 92 98 96 97 97 85 87 84 86 81 75 71 58 54 51 52 51 46
70 81 82 94 97 90 93 76 67 69 74 72 78 85 85 68 53 77 79 87 97 97 95 91 85 84 90 92 88 87 88 85 92 94 93 90 92 92 93 81 69 59 57 54 56 55 52
72 82 84 93 98 87 91 85 76 73 73 72 75 85 85 68 60 78 81 79 97 97 92 90 94 89 86 87 89 86 83 73 74 76 83 83 88 89 92 90 83 65 61 61 61 58 56
76 83 78 90 97 89 89 79 74 71 71 72 74 82 84 71 67 75 76 77 91 96 95 90 92 91 92 94 87 84 83 77 68 71 72 80 71 71 69 71 69 65 64 63 62 60 57

GFSGBSN_prec_cthk_018.txt.gz
RH
30 25 25 28 32 33 28 30 29 28 28 26 21 22 31 37 36 41 46 46 47 49 47 48 52 49 49 53 53 54 50 47 49 47 53 56 55 51 54 55 59 59 59 55 51 50 53
32 30 27 24 29 36 33 29 29 27 28 30 24 22 26 36 37 44 49 51 51 51 51 50 52 54 55 57 51 54 56 52 51 55 57 60 59 55 53 55 56 59 62 58 58 54 53
36 33 31 31 25 32 35 34 33 32 29 29 28 23 24 31 35 46 51 54 55 54 53 53 58 58 62 56 55 54 57 53 50 52 54 59 62 63 59 55 58 57 67 62 55 58 56
48 38 33 33 32 35 34 35 36 37 34 31 32 29 25 30 31 42 50 56 59 59 60 56 55 63 67 59 56 55 54 48 45 44 45 50 61 62 61 68 64 65 64 68 47 56 54
54 48 38 30 31 41 42 36 35 37 39 37 34 40 34 29 32 37 49 57 60 65 66 64 59 62 60 58 57 52 54 53 52 50 47 48 52 57 59 66 71 67 62 52 52 55 56
63 63 51 40 29 34 42 43 41 39 40 42 37 43 44 33 38 38 49 55 63 63 70 73 73 77 64 62 60 58 57 60 60 56 55 53 53 56 60 62 60 59 66 56 55 50 58
57 62 65 55 41 36 38 40 43 46 41 45 42 41 48 39 37 41 44 57 60 61 68 69 72 71 74 72 70 67 64 65 66 64 63 60 62 55 44 44 42 48 60 67 52 52 61
41 63 66 70 55 45 37 39 43 52 51 46 48 42 49 42 41 47 48 58 61 63 66 71 74 77 78 81 77 74 75 74 73 71 69 72 68 42 48 52 52 55 67 68 64 60 59
24 43 63 74 74 58 42 43 50 52 56 51 51 50 48 45 49 52 51 57 60 63 70 72 69 76 81 83 82 83 84 81 77 76 73 74 51 66 61 57 62 53 67 72 82 69 63
24 32 52 68 76 74 58 49 53 54 56 63 53 56 52 50 55 56 60 54 59 65 73 70 76 80 86 89 88 88 90 88 85 75 77 78 60 62 66 65 63 63 50 63 86 93 82
34 28 39 81 99 89 76 62 61 64 63 73 58 60 59 56 61 69 65 60 61 74 78 72 84 87 88 92 91 87 91 95 89 82 81 74 66 67 76 70 70 62 62 76 81 88 86
46 34 27 54 96 96 99 78 68 69 67 78 63 64 65 64 66 72 66 63 72 80 79 81 89 91 92 93 95 94 86 95 91 90 83 72 78 80 71 73 69 64 80 95 96 90 91
55 57 45 31 87 98 98 89 75 72 71 79 66 67 68 70 74 73 69 70 79 80 73 95 94 93 91 95 92 96 96 91 89 93 88 82 87 83 93 86 73 80 88 98 98 98 84
57 62 59 44 77 96 98 83 78 77 74 84 65 69 72 75 79 81 77 78 78 62 87 96 97 97 97 95 91 96 98 94 83 80 87 85 76 83 85 83 84 79 98 98 96 90 71
66 68 65 53 70 94 98 95 80 82 80 85 65 71 74 79 83 85 84 78 68 91 96 97 98 98 98 84 83 89 89 90 85 75 92 91 92 85 75 78 94 87 97 91 82 54 57
77 77 72 60 98 98 98 92 79 82 84 84 69 73 74 83 86 88 85 72 83 94 96 97 97 96 89 74 82 81 73 65 70 79 86 92 98 82 91 91 95 98 88 97 82 68 70
83 76 73 82 96 98 98 91 84 84 92 78 73 76 75 85 89 85 82 71 96 96 96 97 97 95 78 72 78 80 80 73 76 75 88 96 98 98 93 91 93 97 97 93 77 65 69
78 75 85 91 96 98 98 93 92 96 96 75 76 77 78 86 87 83 75 86 97 96 97 95 94 88 75 70 78 77 77 74 74 73 90 96 98 98 94 85 86 88 91 81 69 68 66
80 78 87 95 97 98 99 96 95 98 87 73 77 78 79 84 83 86 76 98 97 97 96 90 85 74 56 61 80 76 79 72 75 79 82 95 96 99 96 96 93 94 87 78 76 67 69
75 75 87 96 98 99 99 93 97 98 77 74 78 80 82 83 87 84 86 98 97 97 95 85 73 62 56 62 72 84 73 74 73 72 82 96 90 94 94 79 89 91 82 79 76 70 64
67 79 84 90 97 98 99 93 98 97 72 75 77 76 79 83 86 82 90 97 98 98 92 77 64 61 59 63 68 68 75 76 72 74 80 93 96 96 93 77 70 77 79 79 69 63 64
60 71 85 98 98 98 97 97 97 94 74 76 78 76 80 83 88 79 89 97 97 97 94 80 74 69 63 60 65 70 73 83 80 74 72 82 92 83 75 75 71 73 69 67 63 65 62
58 70 87 97 96 95 98 97 97 92 75 74 77 74 81 84 87 74 79 96 96 97 93 85 79 76 77 62 68 76 75 79 88 79 81 85 86 79 70 62 62 64 64 62 58 56 55
44 62 86 93 92 92 94 94 98 88 74 76 77 78 86 87 83 59 76 94 96 97 96 87 87 89 83 76 76 74 90 83 80 83 76 77 79 80 72 64 71 55 51 48 49 47 49
43 56 80 87 89 93 94 97 98 92 77 75 77 81 87 87 89 57 82 92 97 97 98 97 89 89 83 75 79 81 84 85 81 81 82 78 82 85 77 74 67 59 54 52 50 49 48
46 63 75 82 87 90 94 97 98 82 78 74 77 83 86 88 88 59 75 93 97 98 98 96 95 92 94 89 81 86 85 84 87 83 80 81 81 85 89 81 76 64 57 51 49 56 50
36 66 73 78 81 89 94 95 93 85 77 72 77 83 88 86 90 64 77 89 96 98 98 95 95 91 94 91 89 89 87 85 90 87 88 87 88 89 89 89 74 65 63 56 58 59 52
33 57 72 74 82 91 85 93 98 83 76 72 77 82 87 86 93 66 76 87 94 98 97 96 95 95 94 90 91 92 84 83 90 88 86 90 94 92 92 91 87 67 65 63 64 60 57
30 54 70 78 85 90 89 98 97 79 76 73 78 79 87 87 91 69 73 85 84 97 97 96 95 91 89 94 94 87 82 80 77 89 81 82 76 79 79 78 71 70 70 65 64 63 61

GFSGBSN_prec_cthk_021.txt.gz
RH
47 40 32 29 31 25 33 38 37 36 33 28 27 23 22 27 34 32 35 41 42 42 41 42 46 46 48 50 52 54 51 51 48 47 48 56 57 56 54 53 53 51 51 53 44 43 43
49 54 45 35 32 33 25 33 37 37 36 32 30 29 23 24 30 34 36 44 45 45 42 42 43 51 53 56 45 46 50 52 52 51 53 54 57 58 56 53 52 52 52 51 51 47 46
53 53 55 48 37 34 32 33 34 36 36 38 33 30 25 25 27 33 36 43 49 49 46 44 44 51 52 53 50 55 56 55 55 55 55 59 59 65 61 53 51 50 53 49 46 50 52
41 43 64 57 51 40 35 38 40 38 35 37 40 34 31 26 30 30 32 40 46 53 51 51 46 48 54 51 47 54 56 56 53 53 55 56 60 58 61 61 54 56 54 54 50 52 51
36 38 47 58 63 52 41 34 40 45 45 40 40 38 38 35 31 34 31 37 45 50 56 55 50 48 50 52 51 51 56 57 54 52 50 48 51 54 57 64 64 66 63 63 54 52 59
21 25 40 52 63 67 55 41 36 46 46 54 52 42 39 44 37 39 39 37 46 55 53 56 53 55 54 57 56 55 59 61 57 58 58 54 52 55 59 66 68 57 62 58 57 45 59
25 21 20 33 52 67 64 58 49 43 43 50 54 56 43 46 45 39 44 43 45 53 57 53 50 45 50 58 61 62 63 68 68 68 67 61 60 64 58 54 53 52 57 61 53 57 58
27 26 23 24 35 55 71 71 62 44 41 47 55 55 54 51 45 40 48 48 46 55 57 54 50 53 54 60 67 70 73 74 76 78 74 72 66 61 57 56 61 58 58 52 50 56 68
30 33 31 25 27 48 82 80 78 55 47 53 57 62 56 56 45 45 49 52 56 58 61 55 49 54 56 66 77 80 82 82 82 85 84 75 69 63 65 63 64 63 61 50 49 50 61
30 32 36 39 28 35 71 73 86 78 61 61 63 64 64 59 50 48 55 55 60 60 64 58 59 63 67 81 82 84 85 87 89 89 90 83 76 74 77 71 68 69 52 52 47 62 65
35 39 41 44 42 32 50 64 83 94 80 69 68 71 68 60 60 52 58 64 65 62 68 60 65 65 80 85 82 84 89 93 93 90 94 82 75 76 74 61 75 59 60 58 56 60 75
43 50 48 54 59 50 35 61 97 98 93 77 78 77 74 66 68 64 65 68 65 70 71 66 65 80 87 87 88 88 90 95 97 98 96 87 84 80 70 65 69 58 68 63 66 65 84
50 58 66 62 62 57 37 63 97 97 97 80 86 84 75 72 71 67 68 70 73 74 57 69 79 90 90 89 91 94 96 95 97 99 98 96 86 82 76 78 76 77 75 80 80 79 64
58 68 74 76 75 65 59 57 97 98 99 91 88 81 75 86 78 68 71 76 76 57 64 71 86 90 92 89 94 91 87 90 90 98 94 96 92 78 71 68 71 76 72 76 81 62 50
65 77 82 86 86 80 72 67 79 97 96 94 99 84 84 91 78 73 78 76 66 67 73 90 94 96 95 95 93 80 80 87 89 88 87 88 79 70 71 70 81 86 93 53 81 64 78
70 83 83 95 89 74 76 83 93 87 95 88 96 85 83 92 77 84 80 74 73 74 91 96 97 96 95 92 88 86 78 66 78 73 77 82 86 78 86 95 92 84 69 85 95 97 94
64 73 91 95 89 95 89 89 93 98 98 93 93 92 90 90 83 84 76 78 80 81 94 97 97 97 97 89 80 78 74 68 68 74 83 87 96 89 92 97 75 93 91 81 90 90 89
59 70 86 87 95 98 98 95 99 98 97 95 98 93 90 82 89 77 81 84 84 89 97 96 97 94 91 85 78 78 68 66 69 85 90 89 98 97 92 88 73 78 86 87 87 95 81
58 75 76 88 98 98 98 99 97 94 94 97 97 89 87 85 80 80 84 91 88 97 97 97 96 88 80 76 83 76 64 67 74 86 92 95 98 93 91 93 90 85 94 95 96 96 76
53 70 74 86 98 99 98 96 98 91 95 99 89 92 93 84 78 78 88 92 95 97 97 95 86 84 77 75 74 73 71 74 80 78 87 94 98 96 97 92 90 88 88 94 98 93 75
44 55 71 90 97 95 96 98 92 90 96 96 88 87 85 78 76 81 91 88 93 98 97 93 81 78 68 68 69 71 77 71 81 82 91 95 97 99 92 87 86 91 88 94 93 82 77
39 44 68 86 96 97 97 99 98 99 99 95 89 85 83 77 81 91 92 86 94 97 97 91 76 67 63 64 63 73 80 70 82 88 90 94 98 97 90 79 78 83 85 85 86 75 72
44 31 61 83 96 95 97 97 98 97 98 97 86 71 80 77 84 96 93 73 86 97 94 90 78 74 72 68 67 74 77 74 81 88 83 88 95 96 85 89 88 88 79 81 76 71 69
41 28 51 70 90 94 97 97 98 99 99 98 75 76 88 79 88 93 91 78 92 96 96 92 85 81 72 75 69 83 86 84 84 88 82 81 87 90 82 77 80 65 65 68 69 65 64
42 34 51 71 83 90 91 97 97 98 99 96 80 76 85 78 91 92 87 79 97 95 97 96 88 86 88 88 78 85 95 92 89 86 83 78 78 87 87 82 72 64 58 56 58 56 54
44 31 47 68 86 93 88 95 95 99 97 90 77 83 82 83 91 92 82 80 93 97 98 97 94 89 91 90 84 88 84 81 88 85 78 84 81 86 92 85 77 62 59 54 54 58 51
45 35 41 65 84 85 88 97 98 98 99 85 78 84 80 85 93 92 87 81 94 98 98 98 97 92 92 94 93 93 82 81 84 84 81 86 88 90 88 89 76 65 63 57 59 58 52
46 42 42 59 78 75 86 90 95 94 99 91 83 82 80 86 92 94 83 78 94 97 98 98 98 97 97 95 94 90 88 82 82 79 84 85 91 93 91 92 87 64 65 62 62 60 58
51 32 41 64 72 74 83 91 98 98 99 93 79 79 82 87 92 98 85 77 92 93 96 98 97 94 96 95 90 89 87 84 86 89 84 88 81 88 80 77 72 70 67 64 63 62 63

GFSGBSN_prec_cthk_024.txt.gz
RH
59 62 58 50 52 41 37 38 32 35 39 39 37 31 28 23 28 32 32 34 35 38 38 37 39 40 40 45 45 47 46 48 47 48 52 54 53 49 47 46 46 48 43 42 43 43 45
39 59 61 62 57 58 45 40 38 33 35 39 38 36 32 25 25 30 33 34 37 40 39 39 38 41 43 46 40 42 48 52 51 50 52 51 50 53 53 49 48 48 49 47 45 45 46
25 33 41 45 61 66 62 49 43 41 39 38 38 39 35 30 25 29 33 33 38 42 44 42 41 41 44 43 41 40 44 49 55 55 53 55 54 61 61 55 51 51 51 50 47 46 49
23 18 25 33 34 52 67 66 51 41 49 46 46 41 40 34 27 30 33 33 35 40 46 47 45 42 41 40 41 46 47 48 49 53 57 61 61 57 59 62 59 58 55 55 46 47 48
19 20 22 17 28 34 53 66 66 49 42 49 54 51 44 38 33 34 35 34 33 39 44 50 49 43 37 38 39 43 50 51 52 54 54 63 65 63 63 66 67 66 66 57 52 44 50
20 21 21 21 18 21 36 55 68 67 55 45 54 54 54 49 45 35 42 40 37 38 49 52 50 49 41 41 44 45 49 53 57 57 56 54 58 67 67 69 66 61 61 57 57 51 54
26 27 27 26 20 19 25 37 54 67 67 59 51 55 62 58 58 49 44 47 44 43 46 47 47 43 42 43 42 46 48 56 59 61 65 65 65 61 56 56 57 58 59 60 58 56 60
27 29 28 27 32 28 22 26 47 77 69 71 54 53 59 60 58 61 49 51 45 44 46 47 49 49 49 50 50 50 54 57 61 67 69 72 71 62 60 59 61 63 63 59 54 51 58
31 35 35 34 32 33 30 24 36 67 82 79 64 55 63 64 60 61 52 54 51 50 52 51 48 51 53 53 60 58 61 69 75 77 77 78 68 66 68 65 66 65 65 62 61 52 46
36 32 36 41 39 38 39 31 27 59 83 93 79 64 66 71 64 60 57 56 59 57 60 51 53 57 59 63 66 69 74 79 83 82 84 85 79 76 77 76 75 71 60 64 64 64 64
39 39 39 44 55 55 51 50 26 53 98 98 95 86 77 71 62 59 58 63 66 64 62 52 59 61 62 65 70 74 83 85 89 87 90 86 80 84 82 80 81 75 72 70 69 70 69
47 44 50 52 68 69 62 58 45 38 95 97 97 97 91 76 63 61 66 71 74 70 67 60 62 64 67 72 77 84 85 91 94 94 89 88 86 84 79 78 80 82 84 81 79 81 81
47 49 60 70 78 80 72 67 61 40 73 96 99 97 86 94 72 68 76 77 80 75 54 66 66 69 69 78 82 88 92 94 96 98 96 98 94 91 87 88 85 85 90 93 96 92 66
52 49 61 76 86 91 85 84 88 50 49 70 95 99 88 87 84 82 78 80 79 57 59 64 69 74 79 81 86 89 91 89 84 88 92 98 96 94 85 82 85 87 86 92 88 86 56
55 47 62 81 95 97 94 87 82 57 72 93 95 96 99 93 86 78 80 85 71 58 61 71 78 84 86 89 92 89 82 74 70 80 94 91 94 85 82 82 82 83 93 56 75 67 82
55 53 77 81 94 97 93 89 78 61 83 96 97 92 95 88 87 94 88 81 68 64 74 77 84 90 90 92 90 80 69 62 65 73 82 80 85 71 76 79 78 79 77 93 92 84 71
50 54 80 79 87 97 99 89 94 82 85 96 99 98 95 99 96 93 90 88 70 73 78 82 92 96 95 91 80 74 67 59 62 64 76 78 83 80 77 79 77 94 96 86 76 70 80
47 49 79 76 82 94 98 86 90 96 92 97 99 98 98 99 93 98 89 73 75 82 87 88 96 96 95 84 78 76 67 61 62 77 89 85 92 91 81 82 90 98 93 92 86 67 88
55 44 66 68 72 96 98 96 96 98 97 99 98 92 98 90 92 97 82 76 81 88 90 96 97 95 88 80 80 69 65 60 70 76 87 96 97 97 90 92 91 89 85 96 79 71 77
56 42 56 58 77 94 98 98 97 96 98 99 93 98 94 91 89 86 98 84 85 92 95 97 97 94 81 75 72 71 70 67 72 82 90 97 98 94 95 96 90 81 81 82 90 92 83
56 43 42 56 80 92 95 96 95 97 99 99 98 92 91 82 89 93 82 77 89 93 97 97 97 86 78 73 69 75 71 71 84 89 95 98 98 98 96 94 98 89 77 83 93 93 97
54 50 40 51 77 83 92 97 97 97 93 98 96 96 89 88 89 90 79 81 94 93 97 98 97 74 72 71 63 70 73 74 84 92 97 96 97 98 97 94 97 98 96 93 95 97 97
55 45 42 51 70 77 83 89 95 98 97 98 98 89 84 93 93 84 83 90 92 84 93 96 95 74 66 61 66 70 79 77 82 87 92 97 98 98 98 92 95 99 96 97 97 95 96
54 48 47 46 64 75 79 95 97 96 98 97 98 90 91 91 78 77 90 97 94 89 93 95 96 81 63 61 70 74 79 83 83 90 92 91 92 96 95 94 86 74 79 84 85 79 75
54 49 46 45 60 69 82 91 94 98 98 99 99 89 82 79 81 83 92 96 92 92 97 97 93 77 75 77 80 82 85 88 87 88 90 85 84 88 96 94 76 69 67 68 71 67 62
55 54 45 48 52 72 81 92 95 97 98 98 99 91 75 85 88 81 93 96 97 95 97 98 96 82 78 86 83 86 90 88 90 90 81 85 84 86 90 89 80 64 60 56 58 63 55
54 55 47 48 51 66 81 88 95 98 98 98 99 91 75 79 82 88 96 94 93 95 98 98 96 90 90 93 90 88 87 75 78 84 83 85 85 85 85 90 75 69 65 60 62 59 54
53 54 48 36 49 65 79 86 95 97 98 98 99 86 74 80 81 92 95 93 94 96 97 97 99 95 97 93 88 83 82 82 79 72 75 79 82 84 88 89 81 65 64 61 60 57 57
50 53 45 34 43 67 77 85 94 96 99 99 94 80 80 79 84 96 96 94 90 94 96 98 96 96 95 93 89 90 89 85 79 82 75 83 79 85 79 76 68 70 67 65 63 63 63

GFSGBSN_prec_cthk_027.txt.gz
RH
19 26 31 41 62 66 66 55 49 47 42 42 43 42 39 34 25 28 33 35 37 37 39 40 39 39 39 44 45 44 43 43 44 50 53 56 53 51 49 48 46 49 44 44 42 45 47
20 18 24 27 50 54 68 69 59 56 49 42 38 44 40 38 34 26 32 34 37 39 39 41 40 42 40 42 34 38 42 44 46 46 49 53 54 54 56 52 49 47 45 44 44 42 44
18 17 16 16 21 25 43 65 72 65 62 52 42 41 44 41 37 29 31 36 37 40 41 42 42 42 43 38 37 36 42 44 47 49 49 49 53 57 61 59 55 52 51 46 46 44 45
19 21 23 20 20 16 22 37 62 71 65 62 49 51 44 42 41 33 32 37 39 38 44 44 44 43 42 37 37 38 40 44 47 48 47 50 56 58 60 63 63 61 58 56 42 44 46
21 24 26 26 25 24 20 19 36 55 73 66 61 52 57 59 46 36 34 41 41 37 41 49 48 44 39 35 34 36 41 44 45 48 51 56 59 60 61 65 66 65 65 60 54 47 49
24 23 26 27 27 27 26 25 20 31 62 65 68 60 52 61 59 47 44 46 41 40 42 51 52 48 40 36 39 39 38 43 48 50 53 57 61 63 65 67 67 65 73 64 61 55 55
25 27 27 26 27 27 27 27 26 21 42 63 75 71 68 68 64 60 55 56 49 45 43 45 48 44 42 42 41 42 38 43 48 51 55 54 59 63 66 71 67 70 71 69 65 60 58
34 35 37 36 32 34 35 27 31 27 24 53 69 75 75 70 72 65 59 60 56 53 48 44 49 48 47 48 46 44 43 46 50 56 57 60 59 56 56 60 65 67 70 67 65 59 57
39 39 41 39 37 36 40 43 31 33 26 36 62 86 79 76 77 71 60 61 59 60 56 47 46 50 54 53 54 50 48 51 54 60 61 61 55 58 63 66 70 69 68 64 63 57 52
36 40 42 41 47 46 46 51 49 44 38 29 58 97 93 86 78 74 65 64 57 63 65 55 55 53 53 54 54 53 55 59 62 67 73 73 69 70 70 74 76 76 70 70 70 75 69
40 43 45 43 51 60 64 70 61 57 50 32 62 99 98 83 78 73 63 70 61 64 66 55 60 59 59 59 60 63 66 67 69 75 80 77 78 76 77 75 82 80 79 82 83 79 74
43 46 50 52 58 70 77 85 72 61 50 35 79 97 98 99 92 83 74 65 69 72 71 64 64 63 63 63 65 64 68 71 75 83 83 79 78 79 77 78 84 86 89 91 91 91 85
41 53 52 55 53 75 90 90 82 62 49 38 81 95 98 95 86 87 72 71 78 75 58 67 63 65 63 67 68 71 75 80 86 90 88 87 84 83 83 87 88 91 97 97 98 97 79
50 58 55 54 72 86 94 94 90 80 59 45 88 98 98 88 98 94 88 76 77 58 65 65 66 73 74 71 73 76 80 83 81 82 77 79 79 76 78 84 86 92 93 96 93 89 82
55 59 59 69 86 89 91 97 92 92 71 64 90 98 98 98 95 92 85 82 64 56 61 67 69 78 79 73 76 84 84 69 60 62 72 75 76 74 77 84 85 97 97 76 94 84 94
53 56 59 71 80 82 95 96 96 96 79 68 69 84 98 98 97 98 97 76 69 60 62 65 78 79 79 80 86 88 72 51 54 53 63 68 79 71 80 89 92 95 86 97 98 95 91
53 55 57 70 70 79 91 95 98 99 81 65 84 96 89 98 98 98 85 78 70 69 68 75 80 88 86 87 89 84 64 53 50 54 63 75 79 76 77 74 71 84 92 90 87 88 85
54 55 53 68 60 78 85 96 98 98 72 71 81 97 99 99 98 93 83 90 72 82 79 81 85 88 91 90 95 75 69 56 54 58 74 80 90 88 75 80 79 77 74 81 82 78 72
49 54 54 66 57 65 78 92 97 98 83 75 90 98 99 98 93 83 89 86 82 91 86 89 92 92 94 95 88 73 64 56 58 63 74 86 94 96 95 92 94 98 96 94 87 85 82
53 55 54 56 49 64 76 86 93 97 92 97 98 98 98 98 95 88 91 93 90 81 89 95 96 97 96 92 79 67 70 66 66 71 81 91 97 96 93 92 98 98 97 94 96 95 80
53 51 57 48 52 62 76 72 78 97 95 90 98 98 93 95 97 91 91 96 91 92 88 97 96 95 97 85 69 68 69 70 75 85 92 97 98 98 95 90 93 98 98 92 94 86 90
49 45 59 48 59 60 74 73 83 97 99 99 97 96 95 92 85 87 91 90 95 84 94 97 96 95 96 75 65 67 66 70 76 88 96 97 97 98 95 91 94 97 96 92 87 85 87
48 50 59 54 55 58 70 76 83 98 97 97 97 94 91 93 89 94 94 94 82 91 94 88 96 98 84 69 68 69 75 78 87 94 97 99 98 98 92 97 96 98 94 93 93 89 92
49 55 59 53 51 52 69 75 91 95 94 95 97 99 96 94 93 93 94 89 90 96 94 88 94 97 75 67 67 71 74 80 88 92 93 98 99 99 98 99 98 93 96 94 96 95 95
52 55 58 62 53 44 63 71 85 89 91 94 97 97 93 91 90 93 86 88 97 98 97 96 96 95 77 76 76 79 86 81 84 90 89 89 93 98 99 97 84 76 83 95 96 97 95
56 53 57 59 49 43 59 72 81 87 87 89 94 97 92 88 92 84 85 91 97 98 98 96 96 95 78 79 80 83 87 87 87 91 89 87 90 91 90 93 83 75 69 68 83 77 79
56 54 51 55 49 40 59 73 85 89 91 94 97 97 97 89 86 87 89 88 96 97 97 97 97 94 78 80 83 82 86 80 83 81 85 86 89 89 86 88 77 68 67 65 68 66 63
52 54 47 45 48 37 59 73 86 88 91 91 94 97 98 86 84 85 86 94 98 95 97 96 98 95 84 87 89 83 78 78 76 70 76 79 79 80 85 87 78 67 63 59 58 58 56
50 54 42 40 46 38 49 70 86 93 93 95 97 98 93 88 84 83 89 95 95 97 97 97 96 95 87 85 84 85 84 77 78 81 75 77 74 77 80 76 69 70 67 65 61 62 60

GFSGBSN_prec_cthk_030.txt.gz
RH
16 16 16 16 16 25 31 47 58 78 62 60 48 53 53 46 42 36 27 32 35 38 39 41 41 42 42 47 44 45 45 43 44 51 59 61 59 55 53 48 46 49 44 40 39 38 38
21 18 18 17 16 16 21 33 42 72 84 67 63 55 57 48 44 41 31 33 34 37 38 40 42 44 43 43 38 42 47 43 43 50 57 61 59 57 55 55 52 50 47 44 42 40 39
20 21 20 20 21 18 17 17 18 36 63 83 69 70 57 59 47 44 38 32 36 38 40 41 41 43 46 40 39 39 44 43 46 46 48 51 58 54 55 54 54 53 54 50 44 40 41
25 23 26 26 25 27 24 21 19 23 31 73 83 72 69 66 59 46 43 34 39 41 41 43 43 42 44 42 39 39 38 44 45 46 45 45 47 52 57 54 56 59 59 59 47 43 41
27 26 27 28 27 26 27 26 25 25 22 38 73 84 70 74 72 60 46 37 47 43 40 45 47 45 42 38 37 37 38 39 44 45 47 47 50 51 52 55 57 56 60 62 59 52 50
29 27 28 28 26 26 27 29 33 26 26 24 45 81 82 75 77 77 61 46 52 50 43 46 48 46 41 38 36 34 35 41 43 44 46 49 52 57 59 60 62 57 55 54 59 58 56
36 39 38 31 30 28 37 36 35 35 29 25 23 65 85 83 82 79 72 63 58 52 44 43 48 45 44 43 41 40 39 41 45 46 49 51 55 59 57 58 56 61 67 67 61 60 63
38 40 41 45 49 35 38 38 39 40 40 29 26 38 78 77 90 81 71 66 60 55 49 42 45 46 45 45 44 44 42 42 46 50 50 53 54 50 52 58 61 62 64 62 61 55 54
33 35 40 41 46 45 42 49 47 51 49 43 35 24 52 88 93 89 75 76 59 63 60 50 45 45 47 50 52 50 49 48 51 55 55 54 46 46 52 54 59 61 63 63 61 57 54
33 33 43 42 41 43 47 58 66 61 62 54 44 29 47 98 95 90 88 78 66 62 64 56 57 53 50 53 54 49 50 50 55 57 60 60 55 57 60 64 68 70 66 68 71 75 73
35 39 47 50 52 52 61 69 79 78 76 66 50 34 38 93 94 92 87 89 77 61 72 56 62 62 63 58 57 58 58 59 61 63 64 60 63 67 71 69 77 77 75 79 82 86 83
38 45 49 57 57 60 62 81 87 85 81 65 50 36 36 71 98 97 94 91 77 71 72 62 61 63 66 65 63 63 64 63 65 66 65 63 68 72 72 75 79 82 86 88 93 95 87
39 45 50 56 64 74 88 89 92 98 84 73 50 38 34 97 98 99 96 91 87 79 58 65 63 61 63 65 65 67 69 71 72 76 76 76 74 76 74 79 82 90 97 97 97 96 79
42 50 51 56 68 82 81 86 98 97 93 91 62 40 51 88 99 99 95 91 84 63 65 62 61 63 65 67 71 72 70 72 74 79 80 76 66 58 58 58 71 84 94 96 95 89 83
43 56 54 55 70 83 73 87 95 96 97 97 72 56 78 96 99 98 97 93 76 60 57 62 66 66 73 71 70 72 70 72 68 72 72 67 61 55 57 60 67 79 86 77 98 97 97
48 52 55 55 71 76 63 85 83 96 97 87 74 84 91 98 98 98 96 86 77 63 59 61 65 65 69 71 74 74 71 67 64 52 55 64 66 57 61 69 68 73 80 91 95 97 95
40 52 57 54 59 69 61 74 78 94 98 79 66 92 96 98 99 98 96 87 82 70 61 66 69 73 72 75 73 74 75 72 54 52 57 61 71 69 76 84 77 85 83 89 94 96 93
43 56 57 56 53 66 59 74 76 93 95 81 79 90 96 98 98 98 91 86 81 72 72 71 72 78 80 79 79 81 86 72 54 55 62 62 76 79 74 74 81 88 87 89 86 82 85
45 56 58 55 53 59 52 70 76 92 91 75 81 91 96 92 90 93 94 88 81 81 81 81 83 83 84 83 87 89 84 64 60 59 65 74 83 86 81 84 86 97 94 90 88 83 88
47 51 57 62 49 59 53 73 76 86 78 68 78 91 98 98 97 92 90 85 91 84 90 88 90 87 88 90 95 91 77 64 60 65 75 80 89 90 88 84 98 98 94 97 98 97 88
47 52 55 61 56 55 56 69 75 89 82 86 91 93 90 91 93 93 90 88 93 91 88 88 85 90 93 96 96 82 67 66 67 74 82 88 92 94 92 93 96 97 98 97 97 92 97
46 54 56 59 60 52 58 69 80 93 84 92 88 96 90 94 95 95 91 87 97 93 92 84 89 95 97 97 83 72 60 64 67 76 90 94 95 97 95 94 98 97 97 98 97 97 95
47 57 56 57 59 49 55 72 84 93 97 97 92 98 94 97 94 96 93 92 93 94 89 81 90 97 98 96 75 64 66 68 79 89 95 97 98 98 91 94 98 98 97 97 93 97 95
46 57 57 56 56 56 43 69 78 92 92 97 98 98 97 98 95 91 90 91 93 86 88 93 92 94 95 88 65 68 70 75 78 83 91 97 99 98 97 97 98 95 94 90 88 86 86
45 52 57 54 50 53 45 60 76 87 93 97 97 99 97 97 95 91 92 96 94 92 95 96 96 96 94 87 68 74 79 76 79 87 88 93 98 96 99 97 92 83 88 94 92 82 80
49 50 52 53 49 52 45 59 76 86 86 92 95 97 97 96 93 92 94 91 94 96 98 97 97 97 97 90 74 69 82 84 89 89 87 90 92 96 97 97 94 75 74 78 86 80 84
49 45 49 45 41 51 43 58 73 87 87 89 92 96 93 91 92 90 90 89 92 92 95 98 97 98 97 87 78 83 79 81 88 77 88 88 90 93 92 92 86 73 68 66 66 71 75
44 36 47 41 40 47 41 51 69 83 85 85 92 91 94 92 91 88 91 92 93 92 98 97 98 98 97 83 80 79 81 79 81 73 77 79 85 82 84 91 82 76 68 62 62 60 59
39 36 46 38 37 40 40 48 68 85 87 87 94 94 92 94 94 90 83 83 91 96 97 98 97 98 90 78 75 83 80 80 77 80 74 77 77 79 82 80 74 77 73 69 67 63 62

GFSGBSN_prec_cthk_033.txt.gz
RH
23 21 21 21 18 16 17 16 16 22 35 51 74 76 60 64 68 50 44 33 34 36 40 40 42 41 41 49 50 46 48 43 43 53 57 59 59 52 46 43 43 46 41 38 37 35 34
24 25 25 25 27 27 24 21 19 17 21 39 63 81 79 63 68 64 46 42 33 36 39 40 41 43 43 46 43 47 48 47 47 53 57 61 61 60 56 52 51 50 47 43 40 37 36
21 23 23 25 28 28 28 27 26 25 23 23 38 61 82 76 67 71 54 45 35 37 40 40 42 42 44 42 42 42 46 47 47 52 54 59 61 59 57 55 54 54 53 49 45 42 40
22 23 23 25 28 28 25 26 27 26 27 26 25 46 74 84 72 73 72 48 40 40 43 42 44 42 41 43 43 43 43 47 47 50 49 50 54 60 60 54 52 53 53 53 45 45 42
30 28 31 29 30 29 29 29 28 33 29 28 24 25 62 80 84 78 80 64 44 49 49 46 46 44 41 40 41 43 43 44 47 49 48 48 49 49 51 53 53 52 55 55 48 45 47
34 40 35 42 37 32 34 32 32 34 37 34 33 24 38 71 89 87 82 77 61 53 51 46 50 45 40 39 36 37 38 41 42 47 49 50 51 52 54 55 55 53 58 52 48 45 49
38 39 42 42 41 43 38 34 35 35 37 42 38 33 28 59 82 93 87 80 75 60 50 42 47 45 41 42 40 41 37 41 44 46 51 50 52 52 51 52 50 54 58 56 52 51 52
34 39 38 40 40 41 42 43 42 44 49 47 53 43 36 47 85 95 92 80 71 59 51 45 45 47 47 45 45 46 43 43 47 50 51 53 51 45 48 51 55 57 59 52 50 50 50
35 38 42 41 40 44 46 49 52 57 69 63 59 51 44 34 77 96 94 87 78 70 62 51 44 45 46 46 47 46 46 46 48 52 50 50 44 44 49 53 56 57 59 59 56 51 48
42 40 36 42 39 41 50 52 61 77 82 77 64 60 44 38 75 96 99 91 84 75 68 57 54 49 48 52 50 48 49 48 53 53 53 54 48 51 55 58 57 61 56 58 62 67 65
43 39 41 47 42 42 53 66 78 91 90 88 67 59 44 41 78 99 98 97 93 80 75 57 64 65 60 54 49 52 52 53 56 53 55 53 56 60 62 60 64 64 64 68 71 77 75
41 41 44 47 44 48 63 68 75 87 95 93 84 56 46 39 62 86 95 97 96 90 78 65 65 69 67 66 63 64 63 62 62 62 62 59 59 61 61 62 67 68 73 76 80 85 84
43 43 50 45 48 53 64 67 75 93 98 95 92 74 43 34 54 97 99 98 96 87 67 69 64 65 64 64 64 64 68 67 65 69 68 65 63 64 66 64 63 66 74 76 80 82 72
41 46 44 45 54 51 66 66 71 81 97 93 99 86 45 35 68 98 99 98 92 71 70 63 63 65 62 61 61 63 65 67 65 69 71 72 66 61 56 55 59 62 69 71 75 70 63
39 39 45 51 54 51 65 60 74 84 93 93 89 85 53 44 77 98 98 98 85 75 67 64 66 68 68 66 65 66 65 63 61 68 74 75 65 53 51 55 60 73 77 69 81 72 83
43 42 49 57 55 50 61 55 72 88 98 98 88 78 66 41 72 99 98 96 81 68 68 64 67 67 70 69 70 70 68 61 64 61 65 68 62 49 51 60 64 74 76 87 91 91 83
46 49 51 57 53 51 61 57 67 86 97 95 81 71 73 63 94 98 98 94 84 77 69 63 62 64 61 68 69 69 67 62 63 63 66 56 58 54 61 67 68 83 89 95 92 89 86
50 51 50 55 54 54 62 58 70 84 96 92 73 78 86 87 93 98 98 90 86 82 73 69 69 69 70 71 70 69 71 69 65 70 64 55 63 68 67 63 70 74 83 90 97 87 94
50 51 52 53 56 55 60 54 61 81 97 85 70 88 94 98 97 96 96 92 87 85 78 68 70 69 72 73 76 72 73 71 75 68 59 59 77 81 70 75 78 88 85 88 95 94 93
50 48 53 54 61 55 52 49 65 84 91 76 80 97 98 97 96 94 92 93 92 85 77 76 81 82 81 80 78 77 80 80 71 61 62 70 82 81 79 75 88 98 94 94 98 97 84
46 48 52 53 62 53 46 52 69 93 80 74 90 90 97 96 96 92 90 89 90 84 80 83 88 88 83 85 81 83 88 76 65 66 77 84 89 88 88 87 91 97 98 98 98 92 96
49 43 49 51 65 54 49 53 78 90 96 92 95 96 93 95 94 92 90 87 84 88 81 89 91 85 83 86 87 90 78 71 63 75 85 90 94 94 90 90 93 98 97 94 95 94 92
51 44 43 47 53 54 50 49 79 89 91 96 95 97 95 94 95 93 89 83 87 87 87 86 82 84 87 92 91 87 70 68 74 82 88 96 96 96 87 86 94 98 95 91 91 86 85
48 47 39 43 51 55 46 50 71 88 93 95 96 97 97 95 94 93 90 87 88 93 94 89 88 89 91 94 91 70 68 75 78 82 90 94 97 97 92 95 96 95 95 91 90 82 80
41 48 36 42 42 48 48 44 71 87 89 94 99 99 98 98 96 91 90 92 94 92 91 94 95 95 94 93 86 73 76 78 79 79 83 88 94 95 96 95 84 82 87 89 93 93 91
36 40 33 39 42 41 47 40 62 83 92 95 95 98 93 94 93 90 94 95 97 94 98 98 97 96 97 96 88 74 78 76 89 93 91 91 93 95 92 92 92 79 79 83 87 87 92
33 36 31 37 39 42 44 40 52 76 84 90 92 96 96 96 88 89 92 94 92 95 98 95 96 98 98 96 91 79 77 80 89 82 88 90 90 90 90 93 80 73 71 69 72 81 89
31 32 32 38 34 37 45 38 47 73 82 84 90 92 92 91 91 90 89 93 94 94 95 95 98 98 98 97 89 78 79 81 86 80 84 81 84 87 86 86 84 71 65 66 65 65 71
25 26 33 36 34 32 39 36 44 71 80 82 87 86 88 90 92 89 89 86 85 88 95 97 98 97 97 95 81 76 80 85 84 85 78 81 78 78 81 78 70 71 69 67 65 62 66

GFSGBSN_prec_cthk_036.txt.gz
RH
22 24 25 23 25 27 29 28 25 22 20 18 19 36 55 69 71 66 75 55 45 32 36 38 42 43 45 50 51 47 48 46 50 60 62 57 50 47 46 44 42 41 35 37 36 35 32
22 24 24 25 27 27 28 28 28 28 25 24 22 18 43 63 77 71 74 69 50 36 36 39 41 45 46 50 48 49 50 49 49 54 59 60 56 58 54 48 45 43 41 40 37 35 36
24 24 25 24 27 26 30 30 28 27 28 27 26 24 29 51 71 82 76 76 59 42 36 40 40 44 47 48 45 47 52 51 52 58 62 62 60 63 61 58 54 50 48 43 40 38 36
33 33 32 33 34 34 31 27 28 29 28 32 34 28 21 29 58 79 83 80 71 52 39 42 42 43 46 47 47 47 48 53 52 57 61 62 63 65 61 56 51 47 46 43 40 40 39
34 34 35 38 40 38 42 40 36 30 31 33 34 35 30 22 49 77 87 85 81 61 45 44 45 45 47 46 49 48 48 54 54 55 55 57 59 59 59 58 53 49 42 43 43 38 40
36 34 36 37 44 44 45 49 47 41 35 36 38 38 33 28 33 77 88 92 81 75 60 55 49 49 45 44 44 45 48 54 54 54 54 54 51 48 45 47 41 38 43 41 41 39 38
36 36 36 39 41 41 41 42 47 50 50 45 56 51 50 41 27 65 95 97 87 77 68 43 47 46 45 44 43 42 44 45 48 50 50 51 51 46 42 43 43 44 45 45 42 42 40
37 37 38 39 42 40 47 44 44 51 62 66 81 67 59 45 38 64 97 94 87 73 79 54 48 50 49 48 48 46 44 45 45 47 50 51 49 41 41 43 46 48 47 44 41 41 40
36 34 41 39 43 42 49 45 54 62 78 78 81 75 62 53 46 58 94 89 95 82 75 69 50 49 51 51 50 50 48 48 47 48 47 45 42 39 44 46 50 50 49 45 44 42 41
38 37 40 44 53 43 48 51 65 69 70 87 82 83 66 56 42 58 84 96 98 96 87 79 62 47 46 51 49 48 50 49 47 45 48 48 44 44 47 47 47 48 45 48 49 51 51
39 39 43 45 51 45 55 52 66 72 86 96 96 96 76 62 42 62 79 96 99 96 93 73 73 61 52 47 47 53 51 50 50 48 49 47 48 52 51 49 52 52 52 55 56 57 58
39 38 42 45 51 52 55 58 64 63 77 89 95 88 85 67 44 57 90 98 99 98 86 74 72 68 61 52 51 56 55 55 53 53 52 48 51 52 53 54 56 59 61 61 60 64 66
41 43 44 52 52 58 58 57 68 69 71 90 92 97 91 63 38 70 93 98 98 97 76 77 65 71 66 64 63 59 62 62 61 66 65 58 55 56 59 61 62 63 68 60 66 68 50
42 46 52 53 58 58 57 58 69 66 76 91 88 83 87 55 46 71 98 99 96 85 81 71 66 65 69 65 68 66 67 68 62 59 61 60 57 57 62 56 53 56 57 54 57 45 42
47 50 53 55 57 58 59 62 67 63 78 92 92 82 82 49 47 96 98 97 92 78 74 71 69 67 66 65 64 67 64 60 59 60 65 64 61 56 55 51 50 60 63 54 67 64 71
44 47 53 58 55 54 57 62 64 69 80 98 95 87 75 55 74 93 99 98 83 79 72 68 67 63 62 62 63 62 61 55 56 57 58 64 69 56 53 52 52 56 57 74 83 77 66
45 47 52 55 55 57 52 63 61 65 85 98 82 84 78 59 87 98 99 96 88 78 73 69 63 62 62 65 64 64 61 56 57 56 62 65 65 58 53 54 54 69 76 84 79 81 82
44 44 48 54 55 56 52 49 51 64 95 90 86 92 70 73 93 98 98 93 89 84 76 67 63 62 62 63 65 64 61 60 58 59 66 64 68 58 47 50 58 64 72 82 94 82 89
43 44 46 52 60 50 57 43 50 81 92 80 98 90 64 83 87 94 98 96 89 82 77 73 67 62 60 61 65 62 66 64 62 64 66 70 64 60 53 71 73 81 77 80 88 90 88
42 45 41 45 58 51 51 40 64 89 78 90 98 90 67 69 90 83 95 96 92 86 83 75 71 69 67 67 66 69 71 69 70 70 72 60 63 65 64 66 77 95 91 92 98 96 83
42 43 40 40 55 51 52 46 70 77 68 92 98 91 90 91 89 86 89 91 92 88 81 73 67 68 70 73 75 80 75 74 76 76 64 67 81 76 79 78 84 92 92 96 98 92 95
40 40 39 40 53 47 48 46 74 88 92 91 92 95 88 91 85 87 86 90 88 83 72 75 78 79 78 79 77 81 78 79 76 65 69 79 87 92 91 86 92 94 94 94 92 89 85
40 39 37 31 52 38 39 44 63 84 88 91 92 93 93 97 93 90 88 86 81 78 76 79 81 81 82 82 84 84 84 80 67 69 76 84 92 94 91 89 85 92 94 91 88 77 75
35 34 35 31 48 37 40 48 53 79 88 93 96 98 97 95 91 86 83 77 80 79 81 89 86 84 86 88 92 88 85 71 72 72 78 88 97 96 95 91 94 87 85 85 88 71 69
34 32 31 25 37 43 42 49 51 76 94 96 98 98 96 90 85 84 81 78 83 87 89 91 91 94 95 94 94 87 73 73 69 73 79 86 90 96 93 93 84 81 82 84 97 96 88
28 31 30 28 34 38 42 47 49 72 87 92 96 96 95 94 87 82 82 82 85 88 92 92 96 97 96 94 94 78 65 66 81 92 93 90 91 94 95 96 85 75 77 78 91 97 96
26 22 23 27 29 36 42 45 49 63 85 90 94 94 94 94 89 87 83 87 88 90 93 97 98 97 97 96 92 81 71 73 89 89 94 91 90 89 91 94 81 71 74 68 70 79 86
24 23 20 20 24 31 40 46 46 59 78 88 91 88 91 91 87 88 85 89 91 89 93 94 97 95 96 96 94 78 75 72 81 82 84 81 82 86 89 89 86 73 72 71 69 71 75
20 18 20 17 20 20 27 35 41 51 70 79 84 84 87 87 88 86 85 83 88 87 86 93 93 94 93 94 88 80 78 73 80 84 83 79 72 73 77 74 72 75 74 75 70 69 69

GFSGBSN_prec_cthk_039.txt.gz
RH
21 23 22 25 27 27 28 31 32 29 29 28 22 25 20 25 45 58 59 85 72 52 39 38 41 43 45 49 55 50 48 52 53 61 67 57 49 45 43 38 36 38 33 33 36 38 36
24 25 26 26 25 24 27 27 29 27 30 29 28 27 23 21 31 56 67 72 79 69 46 39 43 47 50 52 48 51 49 51 55 63 70 68 61 57 49 48 42 42 40 37 38 33 33
31 34 32 32 31 27 30 32 35 33 31 32 30 29 28 25 19 41 69 72 86 75 55 41 43 49 54 51 46 47 49 54 57 57 64 69 67 62 56 52 49 44 41 39 35 32 34
32 34 32 34 34 38 40 39 35 34 36 36 32 32 31 35 29 26 58 78 87 82 67 46 45 51 50 47 47 45 52 55 57 62 63 65 63 63 63 61 55 48 46 44 36 36 37
35 36 36 36 35 38 43 42 42 42 41 42 39 32 34 33 33 29 59 79 88 87 75 56 49 49 50 42 45 48 51 60 62 64 65 68 69 68 64 61 54 51 47 45 41 40 40
35 36 37 37 38 36 44 46 50 47 47 44 46 45 48 49 41 32 48 75 96 91 81 75 56 51 47 45 45 52 54 63 63 62 65 67 67 65 62 60 54 49 48 45 42 39 38
34 38 39 38 39 39 49 54 46 51 46 57 61 65 73 64 57 48 40 77 98 97 86 74 52 45 47 44 46 50 56 63 63 63 60 58 57 51 46 46 45 43 43 41 37 39 36
38 38 42 41 46 45 52 55 49 51 62 74 77 81 76 70 62 46 47 90 98 98 91 82 62 52 47 46 49 48 52 56 61 65 59 59 54 45 43 43 44 44 42 40 35 33 33
39 39 38 42 42 47 53 58 56 61 72 70 81 94 90 72 64 44 53 81 98 99 94 86 72 54 51 50 50 48 49 51 52 52 52 52 46 43 44 45 44 43 40 37 38 35 32
38 39 41 42 44 52 57 60 69 62 74 71 90 98 97 91 67 47 50 75 97 98 97 90 79 62 51 54 54 53 52 52 52 52 54 52 47 43 41 42 42 42 38 38 39 42 42
38 41 46 47 52 57 59 70 68 62 71 72 77 88 95 97 88 56 56 76 94 99 97 91 82 70 54 49 54 56 55 56 52 49 51 51 46 47 46 42 42 44 45 45 45 47 51
40 46 48 53 52 56 60 67 59 63 65 67 75 93 98 88 82 62 60 80 94 98 97 90 82 76 58 51 53 56 57 55 53 51 51 51 49 47 45 46 47 49 50 52 53 60 63
41 47 48 52 55 55 59 61 59 65 67 71 75 84 89 96 78 59 73 98 98 98 87 88 78 75 68 54 55 55 58 57 54 62 57 51 48 49 47 51 53 54 61 61 66 66 48
41 46 46 51 54 55 57 55 59 65 61 71 87 91 83 88 68 48 97 98 98 90 85 77 74 72 75 62 59 55 56 58 52 50 54 58 62 52 56 57 55 55 59 53 53 36 35
44 45 43 47 53 54 56 53 58 56 64 79 94 91 89 75 63 62 96 97 97 81 78 73 78 78 76 68 62 62 57 56 54 55 62 60 61 52 55 54 51 56 62 48 57 48 52
48 43 44 44 47 54 46 56 50 51 76 98 92 91 94 62 79 96 96 99 84 79 78 72 73 67 67 71 66 63 65 58 58 57 57 62 62 51 55 57 55 51 50 62 69 70 58
48 43 43 42 45 45 46 51 45 54 87 89 88 99 88 62 78 98 97 97 85 82 77 76 70 64 58 59 61 64 64 60 58 55 55 58 57 57 60 59 49 54 56 60 63 72 73
45 43 39 41 44 44 48 47 52 76 89 87 90 95 82 74 86 98 97 93 87 87 85 79 70 64 59 60 64 63 62 57 55 52 58 59 60 64 58 44 46 53 64 72 87 75 81
40 42 39 34 39 43 44 43 62 78 90 93 91 83 78 89 95 98 97 95 90 86 82 77 71 66 65 68 68 62 59 60 57 58 58 59 65 66 53 56 59 64 72 78 83 89 89
38 40 39 33 39 40 41 40 69 78 89 98 86 83 76 95 96 95 98 94 90 89 81 72 68 64 64 64 62 62 63 63 62 61 61 63 68 58 51 62 66 83 81 85 97 93 80
39 35 35 29 37 34 40 46 59 70 93 92 66 78 82 84 85 86 91 89 89 84 81 74 75 70 66 65 64 64 64 65 65 65 68 71 63 57 65 73 76 83 88 87 97 96 89
38 36 35 30 36 30 38 41 60 85 88 85 76 88 85 74 77 76 82 84 93 87 79 74 69 64 64 66 65 68 68 68 69 75 75 64 69 81 86 78 85 88 86 89 94 85 79
39 33 31 27 30 31 31 40 52 79 91 85 79 82 88 78 77 79 78 83 83 81 73 69 68 68 72 70 71 72 75 74 73 76 66 68 85 92 85 80 79 90 92 94 93 86 78
34 31 31 30 25 32 31 42 46 69 85 92 86 80 85 83 78 75 74 78 79 76 75 75 76 79 81 77 77 78 79 78 78 66 66 80 88 93 95 81 91 81 81 81 85 91 90
31 26 26 30 23 29 34 40 40 59 81 89 90 91 89 85 79 76 78 75 72 76 76 79 84 84 84 84 85 84 83 77 63 60 73 78 86 96 90 83 74 75 76 76 81 94 93
31 28 24 21 20 23 36 40 41 50 74 85 90 91 90 88 80 75 75 71 77 78 79 84 84 88 92 94 95 86 79 58 66 83 80 84 86 95 84 90 79 69 70 68 75 83 88
29 28 26 22 17 17 29 35 42 48 67 78 87 87 88 88 81 79 74 76 80 83 87 90 92 94 95 95 95 88 75 59 73 82 93 92 93 92 91 93 76 69 69 70 70 73 79
26 28 23 13 13 12 16 27 36 47 64 77 85 89 91 89 85 82 82 83 85 85 89 93 94 96 96 95 95 84 70 65 65 77 82 81 84 89 91 93 89 72 73 76 72 71 72
28 29 22 14 16 18 14 26 40 46 54 70 82 87 90 89 91 86 87 87 90 93 89 90 91 93 93 94 93 86 74 70 67 77 78 77 68 84 85 81 74 75 76 76 72 72 74

GFSGBSN_prec_cthk_042.txt.gz
RH
29 28 30 30 28 27 27 26 26 28 30 34 33 33 32 29 25 21 34 48 59 70 76 52 38 42 42 52 53 55 52 53 55 61 58 54 41 37 37 34 36 38 36 35 32 33 36
36 33 35 34 34 35 33 30 32 33 32 32 33 34 34 30 29 26 24 42 62 67 83 69 41 44 47 52 53 50 51 52 57 60 69 69 57 43 44 43 43 42 38 38 34 30 32
37 37 36 36 36 35 39 35 41 38 39 40 34 36 37 30 30 28 24 36 60 70 86 78 51 46 52 52 51 50 51 54 60 62 70 74 69 61 49 50 52 48 47 42 37 31 32
36 38 37 37 38 38 45 41 44 46 43 50 42 45 38 33 31 32 31 23 56 75 82 81 66 52 52 51 51 49 53 55 62 65 71 79 77 68 62 57 52 49 49 48 33 32 31
35 36 38 38 47 42 45 44 50 53 52 45 49 50 48 42 46 48 32 26 46 75 84 90 77 58 48 44 47 49 51 58 61 62 67 73 71 69 65 63 59 54 52 47 44 38 35
39 41 40 39 39 44 45 54 51 59 59 58 56 69 62 69 61 63 50 31 43 90 87 98 91 69 48 45 44 48 53 62 63 66 68 70 70 68 64 64 63 55 56 52 48 48 42
39 42 41 41 41 46 48 54 57 64 67 65 70 75 74 81 72 64 61 39 51 97 92 92 79 64 44 43 46 48 56 64 65 67 67 69 70 66 65 61 61 57 53 50 46 44 41
44 41 40 44 48 46 51 57 61 68 72 68 73 82 88 94 86 71 64 50 85 98 99 97 87 72 52 47 50 53 58 64 65 68 63 65 64 58 55 55 54 52 52 50 44 39 38
43 42 44 51 49 53 54 57 64 68 71 68 73 79 95 98 95 75 59 52 87 98 99 98 93 79 61 53 51 52 56 63 67 67 64 65 57 51 52 50 49 49 49 45 42 37 34
45 44 50 49 54 52 59 57 67 69 63 67 74 74 83 93 93 87 49 50 86 98 99 98 95 79 66 58 55 53 56 57 58 61 61 61 56 49 46 48 47 48 42 41 39 41 45
42 44 52 47 50 50 57 57 64 64 59 71 68 67 71 90 88 95 68 54 78 98 97 98 96 83 64 58 54 58 56 56 53 51 54 56 49 49 47 44 44 45 45 44 44 46 47
43 46 50 45 46 49 55 56 58 63 68 65 65 63 76 82 93 80 70 81 89 97 96 98 93 84 70 65 58 55 59 54 54 52 53 53 48 44 45 44 44 47 48 48 49 52 59
43 47 47 45 42 47 56 55 59 61 58 53 59 73 86 82 92 81 73 85 93 97 98 97 86 79 68 63 59 59 58 56 57 63 61 52 49 48 47 48 47 51 55 68 70 67 57
40 48 45 40 44 47 50 54 59 50 56 73 92 89 86 89 96 76 89 92 94 84 99 89 89 85 72 66 59 59 60 59 54 51 59 57 57 48 49 51 54 56 61 67 64 57 50
42 47 45 39 38 49 49 56 54 51 60 85 89 88 97 93 96 68 81 91 84 87 86 89 88 88 80 74 58 63 57 54 51 49 57 58 61 52 55 56 57 60 64 51 59 46 56
43 49 45 39 41 41 44 49 50 70 77 86 87 90 96 83 72 71 91 93 97 87 83 82 82 76 77 75 64 61 59 51 49 49 53 61 65 56 60 57 56 55 51 63 65 68 61
45 45 45 39 34 41 40 38 54 79 77 78 86 92 90 79 66 88 97 96 96 84 79 78 72 67 64 71 69 63 58 55 52 53 55 59 62 63 61 62 58 57 57 56 57 61 74
46 43 43 37 34 42 37 40 64 78 81 76 84 88 92 88 90 90 92 98 93 87 80 72 68 62 61 64 73 66 65 63 60 60 62 63 65 67 59 54 53 52 54 56 70 71 75
45 43 33 29 29 42 37 50 66 82 90 91 74 73 87 97 95 92 96 97 88 89 85 78 72 67 59 65 70 74 69 65 64 61 61 60 64 69 61 57 52 53 55 66 74 79 82
43 42 37 30 33 41 38 52 70 88 85 66 78 81 92 97 97 98 98 95 93 89 81 75 73 72 67 71 65 65 65 64 60 58 57 57 60 63 73 66 60 67 72 75 84 89 82
42 44 35 30 25 37 36 47 72 80 65 72 79 89 88 94 94 97 94 93 86 83 80 74 71 71 70 74 70 66 63 65 61 60 60 60 67 65 59 52 60 71 78 83 95 95 95
38 41 37 32 25 35 32 44 58 75 69 74 81 83 86 79 80 92 91 90 88 81 76 72 73 71 69 66 66 66 64 64 65 64 63 64 75 67 65 66 77 81 82 86 87 90 94
38 35 29 29 25 30 33 39 45 70 69 73 78 80 79 72 76 79 84 80 81 76 75 70 65 65 65 69 65 65 65 63 63 64 66 71 69 68 81 79 80 88 86 86 87 91 93
38 36 30 26 23 23 35 39 40 54 70 74 71 73 81 74 72 74 76 76 80 76 72 66 65 64 73 70 68 68 69 70 68 66 69 67 70 84 90 86 94 80 76 78 78 80 92
37 36 32 27 20 20 30 38 37 44 66 74 74 74 77 83 72 73 73 76 77 73 71 69 73 78 78 77 76 73 77 74 67 67 66 65 84 90 92 87 74 77 77 75 75 81 81
38 37 34 27 21 16 18 32 36 41 60 73 76 77 76 77 70 66 70 72 69 70 73 76 82 82 80 82 84 78 78 69 72 74 62 73 83 94 94 92 83 69 72 75 76 85 79
39 38 33 28 22 18 18 16 33 44 51 74 78 81 82 80 76 70 74 71 71 72 79 82 83 85 88 93 91 85 81 70 74 77 83 89 94 93 91 89 74 67 74 76 80 80 76
40 40 34 28 23 18 20 16 29 43 48 66 80 82 83 82 78 75 74 75 75 79 83 85 88 91 92 93 93 88 77 74 62 74 83 89 91 89 81 88 85 75 76 81 79 78 74
42 41 35 29 23 18 21 22 21 39 50 61 83 84 87 86 84 80 77 78 83 86 86 87 89 89 92 92 92 89 84 74 68 70 76 82 73 78 77 79 74 76 78 77 77 75 75

GFSGBSN_prec_cthk_045.txt.gz
RH
30 36 38 39 39 34 37 37 38 37 40 39 36 38 38 37 36 31 32 31 29 51 57 69 69 46 42 50 45 54 54 45 49 55 52 40 41 42 41 36 36 39 35 36 34 30 35
37 36 36 40 39 39 40 40 43 41 41 44 48 45 43 39 38 32 31 32 26 49 59 71 75 56 46 51 46 50 60 57 60 66 64 62 51 40 38 39 40 37 37 37 36 32 34
42 38 36 42 40 40 46 46 43 44 48 55 54 53 51 45 40 33 34 37 32 36 58 76 74 71 54 44 50 48 54 53 59 61 74 72 70 58 45 42 45 41 43 37 33 31 31
38 36 42 44 43 44 41 39 46 52 53 58 59 64 59 58 49 44 41 33 32 30 61 84 78 76 65 45 49 50 53 54 57 63 68 81 81 70 62 48 44 44 44 48 33 31 29
34 36 44 44 43 45 48 45 51 53 63 65 67 71 67 67 71 63 66 53 34 27 69 85 84 80 76 46 47 52 53 57 63 65 67 79 91 85 67 62 57 50 53 48 44 37 38
39 45 45 38 46 51 47 50 49 56 64 68 77 71 73 76 80 76 65 64 44 28 71 98 93 77 69 51 46 51 55 59 67 66 74 77 84 84 83 74 70 58 56 52 49 44 44
40 43 46 45 52 49 53 52 56 55 65 67 73 69 82 82 91 87 78 64 51 37 87 93 75 67 72 55 48 47 56 59 65 66 68 74 76 75 76 64 58 58 57 51 48 45 41
40 49 46 47 48 47 47 50 51 54 64 65 58 74 80 80 96 97 92 71 59 57 92 80 88 84 81 63 52 51 58 61 64 70 65 68 70 67 66 65 63 63 58 53 48 46 42
45 49 44 49 46 44 46 46 50 58 58 57 56 70 74 74 86 97 98 68 56 70 98 93 90 90 87 64 52 52 56 58 65 66 63 70 63 67 66 63 59 57 56 54 52 45 40
48 49 45 47 44 38 44 46 54 57 57 61 65 64 59 63 80 88 85 60 54 90 98 99 91 96 87 68 59 59 61 62 65 69 70 68 64 60 61 60 56 56 49 47 45 44 45
49 43 46 45 42 39 48 54 55 60 62 62 61 66 65 70 76 89 88 61 61 93 97 99 96 95 82 66 58 65 65 60 66 65 68 69 63 61 58 53 53 52 46 45 44 46 47
45 45 45 45 41 36 46 50 49 58 52 55 68 81 76 82 83 86 80 73 74 92 96 99 97 92 86 70 67 65 64 59 59 62 63 61 58 55 54 49 48 47 46 45 47 51 59
43 43 46 45 41 37 39 44 47 50 54 59 86 92 91 86 86 80 76 69 79 96 98 99 97 88 80 75 74 65 61 61 62 66 67 59 58 53 50 50 47 48 50 62 62 66 58
41 44 46 45 39 33 38 43 45 55 63 80 85 88 95 94 93 71 68 76 86 81 94 97 92 89 85 75 77 65 63 64 57 57 64 63 61 51 47 50 50 52 52 63 67 65 58
41 43 43 43 39 36 40 40 39 61 74 81 81 89 91 92 83 73 85 94 89 98 98 96 96 89 86 74 76 66 63 59 55 54 56 59 59 53 50 49 51 58 61 58 62 56 63
39 44 42 42 36 37 41 36 53 75 77 81 85 87 87 86 65 81 94 97 97 98 91 88 91 82 83 75 74 61 60 53 52 49 49 54 61 57 57 55 55 57 53 64 64 63 64
39 43 39 34 30 41 40 47 72 78 88 89 79 82 79 74 74 89 98 98 98 95 91 86 82 81 74 78 70 63 56 52 46 46 51 53 56 63 61 61 61 62 63 56 56 61 68
40 43 42 37 30 37 37 58 72 77 83 82 78 73 80 85 91 95 98 98 96 94 83 75 68 74 72 73 72 58 55 52 49 48 52 57 62 69 64 56 57 55 56 56 66 59 66
40 43 43 36 27 29 36 50 62 62 62 68 68 72 81 90 95 97 98 97 95 89 82 77 68 63 63 72 73 64 62 58 57 59 59 60 67 73 65 59 58 60 57 59 63 73 78
41 41 37 36 28 27 33 47 55 57 63 74 77 83 91 90 93 96 97 98 97 87 79 72 67 65 63 69 73 73 69 67 65 64 62 61 64 61 66 64 62 63 57 65 77 88 77
43 43 34 29 30 23 31 44 50 58 70 75 81 80 91 95 98 97 95 94 89 85 81 77 74 74 67 70 71 74 74 71 66 66 62 61 65 62 63 62 59 58 67 79 86 84 89
44 43 35 29 28 19 28 40 44 56 65 67 73 78 75 85 90 94 93 96 89 82 74 74 72 74 71 66 63 59 63 64 63 62 61 63 68 70 62 57 59 75 79 83 85 84 88
46 43 37 31 25 20 22 37 40 49 63 63 65 70 72 70 79 79 80 78 77 73 71 71 69 68 70 71 67 66 64 62 62 63 62 66 67 70 68 63 81 89 85 83 81 81 86
48 44 39 33 26 19 16 29 36 46 62 64 69 71 69 67 65 72 71 74 73 68 64 63 63 62 67 67 66 65 65 65 65 64 60 67 69 68 75 84 92 82 73 77 78 78 78
48 45 40 35 25 21 11 14 29 40 57 66 67 69 74 74 68 66 68 74 71 68 64 64 66 67 70 70 73 72 72 68 66 66 66 68 69 75 92 93 77 78 76 75 75 74 75
49 45 42 37 32 26 19 14 18 33 50 68 72 72 70 73 66 68 66 70 71 69 67 70 71 74 75 77 76 76 78 70 76 73 69 71 73 89 95 94 87 77 69 73 74 77 74
51 47 44 39 35 29 21 19 17 25 39 62 76 76 76 75 70 64 64 68 68 68 70 73 75 78 79 84 86 80 79 69 78 75 77 76 89 95 94 91 77 69 73 77 79 75 73
52 49 45 40 35 31 23 19 21 18 34 57 74 80 81 83 80 74 73 75 70 70 73 76 77 82 87 90 90 87 81 75 73 78 81 84 91 94 93 88 85 74 77 80 76 74 73
51 49 45 41 35 30 25 23 26 22 25 57 72 83 84 87 86 80 81 82 78 79 78 80 82 84 89 91 90 88 85 80 77 74 75 86 82 88 78 77 73 77 78 75 76 75 75

GFSGBSN_prec_cthk_048.txt.gz
RH
46 48 38 32 38 44 41 39 44 46 42 45 51 54 57 54 47 42 39 36 32 34 41 51 71 71 60 50 44 51 50 36 43 56 50 42 42 41 41 38 36 38 36 32 29 28 29
43 43 38 37 44 45 43 40 41 41 45 51 52 59 61 59 56 45 45 38 39 33 32 45 66 74 58 54 40 52 60 49 48 57 58 44 44 41 37 36 38 37 33 33 31 30 30
47 44 42 47 45 41 42 48 44 42 41 47 56 64 68 66 64 63 56 46 41 41 27 43 69 79 64 62 44 50 60 71 65 61 63 55 58 49 40 40 40 39 42 41 35 30 32
49 52 51 47 40 42 48 46 48 47 46 54 59 66 73 74 76 77 66 55 54 43 30 46 77 88 65 67 51 54 57 61 74 72 75 74 74 63 54 47 44 44 43 45 34 31 30
58 55 51 50 47 46 46 43 49 47 47 54 61 66 74 69 80 80 75 70 56 48 33 44 88 89 70 70 55 53 62 61 65 77 74 80 87 74 66 59 53 49 52 47 39 34 33
63 54 55 48 44 46 43 44 44 45 45 58 60 60 65 82 87 90 89 67 55 50 32 53 74 87 75 70 65 56 64 66 68 79 86 87 96 91 78 70 68 61 53 46 46 38 38
58 54 55 47 47 45 38 39 47 47 56 57 59 53 67 70 74 94 90 81 57 57 43 68 90 97 78 76 71 56 64 75 74 86 81 78 82 85 86 81 72 65 60 56 46 41 37
61 56 54 47 44 43 40 39 48 55 57 56 59 59 59 67 71 83 84 89 60 64 51 76 86 91 86 78 73 59 66 70 73 76 81 82 78 80 92 91 85 71 61 56 49 46 42
60 59 50 46 45 41 38 42 49 48 58 60 63 61 64 65 60 70 77 80 63 56 63 94 97 98 92 75 63 57 65 65 69 70 72 76 67 70 70 69 73 63 57 55 54 50 44
60 55 51 46 45 40 39 40 46 49 59 51 54 57 69 72 68 77 90 75 63 66 86 96 98 97 77 82 71 65 67 65 69 70 73 75 62 65 68 65 59 60 56 57 55 50 50
57 52 52 44 45 40 36 43 44 55 54 56 57 72 85 89 82 76 90 72 68 72 96 92 98 92 88 81 67 75 68 66 71 67 66 68 64 63 62 64 60 59 54 51 50 51 48
53 51 50 46 43 39 37 42 43 48 55 66 81 82 87 91 92 88 84 74 78 94 96 99 91 88 95 85 70 75 71 68 66 68 70 66 64 65 62 58 56 55 53 53 52 51 56
55 51 47 42 42 40 40 47 41 52 62 78 83 84 88 89 87 76 75 80 82 96 96 90 85 89 92 84 73 73 70 67 65 75 78 71 69 65 61 60 55 52 55 61 60 61 52
57 51 41 42 35 32 43 42 50 66 72 79 79 85 90 91 74 80 81 87 92 93 93 90 85 91 95 77 74 76 72 67 60 61 70 73 71 62 56 55 54 52 51 56 55 64 57
55 53 42 43 34 33 42 45 66 72 78 86 79 81 83 70 70 79 85 96 97 98 98 92 92 94 96 76 76 79 72 65 60 59 62 68 64 56 53 51 49 53 58 52 60 60 64
56 53 44 42 32 30 43 49 58 65 72 72 68 71 70 76 86 96 98 97 98 95 90 88 92 90 87 79 83 77 67 60 57 57 56 56 65 57 56 52 51 51 54 65 64 57 59
54 53 44 44 34 24 40 45 52 56 66 56 56 62 67 79 87 91 97 98 99 92 90 84 83 81 80 75 76 67 63 57 55 55 54 52 54 64 59 59 59 59 61 56 57 57 62
59 54 45 36 31 27 38 41 42 47 56 59 58 70 79 89 93 95 98 98 94 94 87 82 79 77 77 72 73 59 58 56 50 50 54 51 56 69 66 59 57 57 59 57 61 52 64
61 53 41 35 28 26 35 34 39 48 60 62 68 77 82 90 93 97 99 96 95 91 87 79 76 72 74 73 73 61 53 51 50 49 53 50 59 67 62 60 58 60 57 55 54 60 72
61 52 40 35 25 23 36 33 34 50 57 64 62 69 73 79 88 96 98 96 90 80 71 65 64 66 67 71 66 64 58 58 58 58 54 57 63 60 64 58 57 60 56 57 63 78 77
63 52 40 33 27 21 34 34 34 48 56 57 62 69 69 73 77 83 85 89 82 78 71 65 66 62 65 74 73 68 65 65 63 63 62 61 67 65 63 60 60 60 57 63 75 76 83
64 53 44 29 24 20 26 33 36 47 51 57 58 61 67 70 73 78 82 79 77 76 73 75 77 75 68 74 77 75 70 69 68 66 65 65 70 68 65 55 56 59 62 71 78 79 80
63 54 51 33 24 16 12 24 32 44 51 53 58 59 66 65 70 73 74 73 74 71 72 70 72 74 77 72 66 68 67 66 66 65 65 63 66 71 63 59 63 75 77 79 82 81 80
64 53 55 43 28 21 12 13 28 37 54 56 57 62 66 71 69 69 72 71 70 66 70 70 66 66 72 71 72 68 66 67 65 63 61 66 69 71 68 65 79 77 75 77 81 77 78
68 55 54 49 38 25 20 11 14 32 49 61 65 65 64 65 68 68 68 71 68 66 65 65 65 64 67 68 71 73 71 69 70 67 65 64 66 74 72 79 77 80 81 78 80 77 75
68 57 54 53 45 35 28 21 18 15 35 57 66 64 67 70 65 67 67 70 71 67 62 64 67 69 72 73 72 74 75 69 74 72 70 68 71 73 83 91 87 79 73 77 78 81 76
69 62 56 53 47 43 38 29 24 20 20 47 64 70 67 67 69 69 66 67 66 66 65 67 70 75 75 79 82 77 80 71 77 75 75 76 77 85 92 93 81 74 75 81 82 78 76
76 68 57 54 49 44 40 33 27 23 19 28 57 75 75 72 73 69 67 64 63 65 66 71 73 77 80 83 84 83 85 77 76 75 75 76 78 92 93 92 87 73 78 84 79 77 77
78 69 57 53 49 43 40 33 26 25 26 19 49 78 82 78 80 74 70 71 69 72 73 75 78 80 80 85 87 89 89 85 79 85 79 81 80 90 86 79 73 77 82 80 79 76 79

GFSGBSN_prec_cthk_051.txt.gz
RH
49 50 53 54 55 50 45 43 44 44 41 41 39 44 53 60 63 65 61 52 48 45 38 33 48 64 82 64 51 59 56 44 36 45 43 48 47 44 42 41 39 38 35 31 29 29 27
57 53 61 60 56 47 47 47 48 43 44 49 45 47 56 60 67 68 66 62 60 50 46 36 49 66 88 73 67 48 69 54 37 46 48 44 48 44 41 39 41 38 35 34 33 30 28
52 60 60 54 57 52 48 49 44 41 42 48 47 53 59 66 76 74 77 77 71 54 47 44 49 66 88 84 62 42 65 65 48 55 61 55 48 48 46 42 41 39 41 35 32 30 31
58 65 57 62 55 51 50 46 41 40 45 48 49 59 58 61 65 80 81 77 78 63 61 42 51 63 72 86 69 54 62 76 72 78 73 64 58 52 48 45 42 44 44 48 35 31 31
59 58 56 60 55 53 50 45 39 43 44 54 58 60 57 61 82 87 86 90 73 63 57 44 54 63 82 94 67 58 60 79 87 87 86 77 73 73 58 54 54 49 52 47 38 34 34
55 59 57 54 54 51 48 42 40 46 56 57 58 58 55 56 61 71 90 85 76 57 54 46 50 73 87 81 80 62 60 71 84 92 98 98 89 87 73 65 61 57 49 44 42 35 36
53 61 57 56 54 52 47 42 42 53 51 63 65 65 66 62 62 68 78 73 79 65 59 51 69 77 87 93 83 63 62 70 84 91 94 95 93 94 76 70 64 62 59 54 44 38 37
51 58 54 58 52 51 45 41 46 50 57 63 61 55 61 67 70 66 63 76 81 69 60 61 75 88 97 88 85 73 66 70 88 90 93 95 94 91 96 91 77 72 68 61 52 45 42
50 54 49 59 51 50 43 40 41 54 58 61 54 63 67 67 74 72 75 85 72 61 56 77 71 88 92 89 81 75 69 76 87 91 88 89 81 87 94 96 96 85 76 66 56 48 45
50 57 51 58 52 50 41 40 48 57 47 56 68 81 92 92 84 85 76 87 66 65 72 90 74 83 95 90 80 74 74 79 89 87 86 82 75 75 80 87 87 83 74 68 57 51 55
59 59 49 60 50 45 39 47 56 46 51 65 83 92 98 92 93 97 82 78 61 67 84 74 91 96 94 83 74 76 76 75 82 79 72 76 78 79 73 69 72 71 60 56 55 55 52
61 56 49 57 49 40 40 54 51 66 72 81 94 89 89 93 90 89 80 74 69 95 97 93 94 93 93 87 73 77 77 72 75 79 70 70 72 69 66 65 63 62 59 57 57 53 56
59 51 48 61 53 35 40 55 57 62 77 84 89 87 91 85 80 74 78 67 86 97 94 99 98 89 84 85 86 86 76 72 81 86 80 72 74 68 63 62 60 62 62 63 57 59 51
53 50 48 63 49 32 43 45 52 61 67 73 74 74 69 66 72 69 72 84 91 92 97 98 93 87 95 87 91 84 75 78 75 77 77 78 80 67 64 63 64 60 57 59 50 59 57
51 55 49 51 45 24 43 38 45 60 58 59 63 59 65 75 72 86 93 94 96 94 94 87 89 90 96 91 86 84 81 77 72 64 70 73 72 67 64 59 57 60 60 51 57 56 61
49 56 49 49 33 28 35 39 43 54 52 55 58 67 79 84 85 85 93 98 97 89 86 76 80 89 88 90 81 81 74 70 67 61 60 60 71 62 60 57 56 53 51 58 60 49 51
51 61 51 49 31 26 35 39 42 48 50 49 59 68 72 76 77 79 89 91 92 83 77 71 75 80 86 78 72 72 73 62 60 62 59 57 60 66 56 55 58 57 59 57 58 55 59
55 67 44 48 29 21 34 37 43 49 51 54 63 76 75 77 80 80 84 83 83 83 76 72 77 81 76 69 76 75 66 60 58 57 59 56 58 64 60 58 59 59 59 57 62 56 65
56 63 52 45 25 18 29 32 39 47 49 53 62 69 76 81 81 80 83 85 83 80 79 73 73 73 73 69 73 68 58 54 53 54 56 52 56 64 64 61 60 62 59 58 58 60 64
53 62 59 45 25 16 17 28 36 46 51 53 58 65 72 79 82 83 81 83 82 77 76 72 70 70 72 70 69 63 55 54 51 52 53 49 55 58 64 58 60 63 60 58 58 65 64
52 64 58 45 29 20 15 23 34 46 48 50 55 61 66 67 74 82 78 76 74 72 66 64 68 68 72 78 72 64 56 55 54 60 50 52 62 66 63 62 61 61 58 58 57 64 75
54 72 65 48 36 22 16 18 29 44 47 50 54 61 59 65 66 71 72 73 71 71 67 65 70 67 70 77 75 66 61 62 59 62 61 60 74 72 68 59 60 63 58 60 66 73 79
61 76 79 56 40 28 19 17 20 39 47 49 53 58 62 61 65 67 68 65 67 66 69 70 74 76 77 80 75 70 66 65 65 65 67 68 71 75 67 62 62 60 60 65 71 76 74
67 77 81 63 47 38 25 18 15 24 49 52 53 56 64 68 65 66 67 69 66 64 67 72 73 75 80 74 72 75 75 72 71 69 68 73 73 73 70 62 68 56 71 75 77 76 76
76 75 76 69 59 45 38 28 21 14 32 52 57 58 61 69 71 68 70 69 67 65 66 67 66 68 71 73 78 79 74 74 73 69 67 66 70 75 71 69 61 70 82 82 82 79 76
83 74 72 73 65 56 46 42 33 27 13 36 59 63 63 65 68 72 70 71 70 67 64 63 63 65 68 73 73 75 81 73 79 77 72 70 69 72 75 73 78 77 79 79 80 84 79
78 70 77 80 67 62 56 50 39 35 30 16 40 65 70 68 64 69 69 70 69 69 65 63 64 69 71 76 77 77 75 72 77 74 76 77 74 72 73 84 80 75 80 81 85 82 81
76 71 85 80 68 62 59 54 47 43 37 30 25 50 70 73 70 71 74 72 68 69 68 66 65 70 75 78 81 81 82 77 78 75 76 76 74 75 82 95 90 73 81 86 84 81 80
75 75 83 79 73 62 59 54 46 43 42 33 24 41 58 72 76 75 75 76 72 71 68 65 68 70 71 73 79 85 88 86 82 87 78 80 71 79 85 84 75 79 78 83 82 80 78

GFSGBSN_prec_cthk_054.txt.gz
RH
47 43 56 65 60 63 60 58 59 53 46 42 46 51 47 51 52 56 60 69 72 68 60 52 42 42 70 70 78 68 62 55 41 50 51 52 49 51 48 45 42 41 39 35 33 32 33
42 47 57 57 63 62 59 61 57 50 41 43 49 51 45 54 55 58 65 73 80 75 69 56 50 47 71 65 73 85 61 66 50 52 55 53 56 50 50 43 42 39 37 36 33 32 31
42 47 49 50 59 57 58 59 53 49 45 50 47 53 56 55 57 60 74 85 81 79 76 62 62 55 71 70 82 91 54 69 58 48 52 53 57 51 48 45 42 41 41 36 32 33 33
46 48 46 51 54 55 65 59 53 52 53 53 58 57 59 57 56 64 77 83 86 91 71 73 68 60 66 66 79 91 61 72 71 57 56 53 59 56 51 47 45 44 43 45 36 31 30
45 50 50 60 51 57 64 57 54 56 51 57 61 67 69 63 59 58 64 81 79 84 77 79 73 63 72 67 88 83 61 73 75 65 79 81 70 63 58 52 53 50 51 46 40 35 33
46 53 56 53 50 58 63 56 54 45 51 58 66 72 67 64 65 61 64 70 68 81 71 73 68 70 62 74 90 82 65 75 83 90 97 94 92 81 65 55 53 48 49 44 41 33 35
42 51 55 51 52 63 60 53 48 47 61 68 67 69 56 62 64 73 71 66 67 81 76 69 59 77 59 73 96 85 69 80 86 93 97 95 94 84 66 59 52 50 50 45 39 37 36
44 53 51 51 54 58 56 51 48 62 63 54 50 61 68 84 75 72 67 76 77 76 71 73 64 78 63 80 96 86 66 82 93 94 97 97 91 88 81 73 70 65 62 57 50 44 40
46 51 47 49 55 55 47 47 57 59 57 68 72 79 91 98 98 83 73 81 78 68 68 76 67 75 77 95 89 78 67 73 87 96 95 96 97 95 96 88 79 75 70 64 59 52 46
43 48 47 48 53 54 46 51 54 55 67 83 92 97 96 93 97 97 82 79 69 63 69 79 84 89 89 89 92 80 71 78 88 93 92 89 95 94 96 95 94 94 77 72 66 60 59
42 47 48 47 55 49 44 43 47 57 66 76 82 86 87 87 89 95 83 72 59 63 84 85 89 90 96 92 84 83 80 77 84 93 88 88 89 90 93 94 95 86 81 74 67 64 56
38 44 49 48 48 45 40 42 48 52 66 63 61 69 72 76 77 75 66 56 69 87 94 85 83 98 94 87 84 81 84 79 83 86 85 85 84 85 80 78 76 79 79 77 70 61 60
38 42 52 45 41 41 41 40 43 51 61 60 60 57 61 63 61 57 59 75 94 93 81 87 90 94 93 94 82 83 86 83 89 94 90 83 82 79 78 77 71 65 69 73 57 61 53
39 45 52 46 42 35 36 39 41 50 58 61 58 70 72 68 64 80 90 95 93 83 82 93 91 90 95 91 88 82 84 79 81 82 82 79 82 76 75 69 67 66 64 63 48 57 56
37 47 56 47 42 31 36 37 39 44 52 58 59 60 65 69 76 83 87 92 90 97 89 88 86 93 95 92 83 91 81 73 73 76 78 76 76 76 73 68 64 66 66 56 61 58 62
39 48 57 53 39 29 31 34 40 45 45 50 56 59 59 61 67 77 73 87 92 96 89 86 85 87 88 96 86 87 82 69 72 77 73 70 83 74 71 67 63 61 59 60 59 48 45
41 48 54 59 36 23 22 32 37 45 51 54 57 65 69 66 65 68 73 78 82 79 73 73 76 80 84 86 78 78 75 73 76 69 64 63 67 75 66 70 67 62 62 55 55 53 55
43 44 54 64 33 23 17 27 35 40 48 55 62 67 67 67 68 74 76 73 69 69 63 60 69 78 82 77 72 73 74 64 67 64 63 60 66 69 65 65 57 54 56 54 60 58 64
44 45 55 65 40 25 17 20 31 42 46 50 59 68 71 69 76 74 75 74 69 66 65 67 73 72 68 67 66 66 71 61 58 60 63 60 62 70 67 59 59 62 60 58 57 58 64
44 45 62 71 46 29 21 18 27 44 45 48 56 65 70 73 74 78 79 73 70 68 68 67 69 69 66 67 70 74 59 58 57 59 58 56 58 56 61 56 60 65 61 59 59 64 60
37 53 65 73 66 33 24 19 20 40 43 46 49 59 62 78 72 72 74 75 74 75 70 68 68 69 72 75 71 67 56 54 55 58 58 56 60 61 61 59 61 62 58 61 59 57 59
45 58 68 72 78 44 28 24 16 27 44 46 47 58 60 64 69 71 72 72 70 67 65 66 72 75 72 76 71 67 57 55 54 58 58 56 66 65 65 60 62 63 59 60 60 59 67
49 59 69 75 73 63 36 28 22 18 38 47 49 52 59 60 66 67 68 69 67 66 67 67 69 72 75 78 76 66 62 60 60 63 64 62 68 70 67 63 64 60 54 52 61 68 72
53 63 63 80 75 73 53 36 27 22 23 46 52 52 53 62 65 67 68 67 69 66 67 72 75 76 82 80 78 73 72 70 68 67 65 67 69 70 73 65 68 48 54 66 73 76 77
56 67 65 74 75 70 72 54 38 33 22 29 51 55 55 59 67 66 71 70 67 68 71 71 71 74 76 77 80 82 80 76 75 70 70 67 72 76 71 64 57 54 70 81 83 83 79
60 66 67 64 75 76 69 70 54 42 35 21 33 50 59 58 63 69 73 73 72 69 68 65 62 66 69 74 78 77 79 75 82 80 71 70 67 69 75 67 69 55 75 84 84 84 78
58 60 62 63 75 78 71 77 66 53 53 38 29 37 49 62 57 67 72 73 74 70 66 64 62 63 66 73 75 76 75 77 80 80 80 79 78 71 71 68 64 65 79 85 91 81 79
61 66 67 66 74 76 75 76 74 68 60 52 45 40 49 46 61 65 69 73 72 72 70 64 61 63 72 74 73 79 80 78 80 77 78 75 76 72 70 74 78 72 84 91 85 82 79
68 70 70 75 74 79 77 76 68 72 73 66 54 51 49 54 48 68 72 71 76 74 72 66 63 63 66 72 74 76 83 85 83 86 80 79 69 70 68 71 75 83 84 83 82 82 80

GFSGBSN_prec_cthk_060.txt.gz
RH
33 31 33 35 42 44 37 48 57 62 65 55 49 52 59 72 66 63 64 68 65 60 58 59 58 57 59 60 35 62 62 75 76 63 58 58 55 58 57 55 57 59 61 56 53 50 45
34 33 36 39 45 36 40 55 62 64 49 51 57 62 72 76 77 81 70 70 66 67 67 67 67 73 74 68 41 65 85 88 77 68 55 67 55 61 61 55 53 53 58 58 58 53 50
34 34 37 41 40 40 47 55 52 46 50 56 64 71 75 80 88 91 77 68 65 67 67 72 85 85 91 70 56 62 81 95 72 66 47 70 62 63 61 56 53 53 52 51 53 51 48
34 35 38 38 38 48 48 47 44 46 54 61 65 74 66 71 74 70 68 64 59 64 69 72 91 93 85 80 62 58 80 84 78 73 50 69 66 68 60 58 54 50 49 48 38 43 44
34 38 40 39 40 48 46 45 42 49 55 58 70 80 72 61 56 68 61 66 68 68 60 68 93 94 92 67 63 85 98 89 84 63 58 78 83 67 61 54 56 50 40 38 41 38 35
33 41 39 40 41 50 42 43 42 47 50 64 73 82 92 87 67 74 80 68 66 66 66 75 84 96 83 61 78 93 83 88 81 64 71 95 96 85 72 58 46 44 45 41 35 38 38
33 42 37 41 40 43 42 39 45 46 54 57 60 72 89 96 98 91 95 80 70 75 76 77 90 94 75 72 90 73 77 84 88 71 74 92 97 89 69 56 49 48 45 40 34 35 34
33 38 35 40 39 41 38 41 43 43 51 51 54 55 62 68 80 93 97 74 72 74 74 83 89 88 75 82 76 80 88 98 87 78 80 92 93 91 84 69 55 48 42 40 41 37 36
31 36 35 40 39 39 37 39 41 42 48 48 48 60 61 60 74 81 70 67 63 72 85 87 94 75 81 77 88 98 91 97 88 79 83 81 85 87 86 76 65 52 45 46 41 40 39
29 33 35 41 41 36 39 37 41 40 47 52 54 48 63 52 58 53 56 63 79 92 97 95 92 82 90 92 94 94 91 95 90 88 93 91 87 88 82 77 65 59 54 50 46 46 45
32 33 32 38 43 31 39 35 39 42 41 43 56 60 60 42 61 71 69 73 85 94 96 98 94 84 86 84 93 99 98 91 94 97 95 98 97 93 91 84 76 74 65 58 54 52 47
34 32 31 33 40 33 31 35 39 39 41 43 50 56 61 48 49 59 60 70 79 85 91 86 82 94 96 98 87 98 96 92 95 95 97 97 98 97 97 96 87 74 68 64 59 57 56
34 31 29 32 38 36 24 29 34 39 41 43 48 50 52 54 52 55 58 65 70 79 86 86 89 85 92 95 89 90 91 95 96 98 98 98 98 97 96 96 97 89 77 79 74 71 56
32 31 31 29 39 34 25 22 33 38 42 45 46 50 52 51 51 49 53 58 74 91 90 86 86 89 94 89 89 85 78 79 77 85 96 95 96 96 95 86 86 84 82 75 60 50 47
31 32 30 27 39 34 29 19 27 37 39 44 47 51 50 51 46 49 56 64 82 88 88 81 77 79 86 80 78 83 71 72 75 73 78 86 93 86 88 85 80 80 81 70 64 61 55
32 31 28 30 41 43 33 20 22 34 37 42 47 48 50 51 51 45 55 69 76 81 80 76 78 77 75 78 76 77 73 66 71 75 73 75 87 82 83 81 77 75 69 71 70 61 48
32 30 32 34 42 46 36 26 22 32 35 43 49 51 50 48 53 52 59 66 70 72 72 71 72 71 69 65 66 68 70 68 67 68 69 70 68 77 76 77 76 73 72 64 52 44 42
30 31 35 34 44 47 45 30 23 27 33 39 45 53 53 47 51 65 68 69 68 67 67 67 69 71 70 67 62 62 62 60 61 63 66 70 69 75 73 73 72 69 65 58 55 54 48
29 30 32 34 41 44 50 38 25 23 34 36 43 48 52 53 57 59 60 61 60 60 58 61 66 68 70 67 69 69 66 61 59 64 65 62 67 74 73 74 68 68 63 58 51 51 56
31 33 27 37 40 45 48 47 36 25 32 36 41 47 51 56 58 55 53 58 57 58 61 65 67 65 66 66 65 67 66 66 65 67 62 58 59 58 59 61 61 66 60 55 58 58 45
34 34 33 35 43 45 47 48 48 39 28 37 39 45 53 59 60 64 61 59 60 62 64 66 67 67 62 65 62 62 68 64 65 62 61 62 65 64 60 60 59 59 57 55 57 54 59
35 34 34 38 43 44 49 43 45 51 47 38 43 47 49 52 55 59 66 66 67 68 68 69 68 71 70 63 62 67 64 62 55 60 59 62 72 65 63 56 58 61 55 56 55 53 51
37 39 37 39 46 47 45 46 39 44 52 55 47 47 49 50 52 55 60 62 65 65 64 63 67 70 74 76 73 69 61 56 56 55 55 59 64 63 57 57 59 61 54 52 52 52 50
40 39 38 42 47 54 56 51 41 37 44 58 57 53 50 49 52 53 57 61 63 64 63 64 66 68 70 77 78 72 67 60 59 60 58 60 58 60 61 61 65 47 51 50 49 47 50
41 43 41 45 47 50 55 57 50 44 43 48 61 63 56 50 51 54 57 60 63 66 67 67 68 71 75 78 80 76 71 68 68 67 64 62 62 66 66 60 50 50 54 57 60 63 65
51 44 47 53 55 53 58 57 55 53 48 48 59 64 67 55 48 54 60 64 64 67 69 70 70 71 72 76 80 81 80 73 75 73 68 67 67 65 70 69 53 52 59 62 64 74 75
49 46 48 58 60 60 58 60 57 61 55 53 61 72 70 71 52 53 61 64 65 67 68 72 70 71 68 71 73 77 80 77 79 76 74 79 77 72 68 68 51 50 54 64 79 75 80
51 55 50 60 66 71 64 62 61 68 73 69 65 64 75 78 65 53 58 69 70 69 70 72 73 71 70 68 63 64 68 74 78 75 75 73 75 74 69 70 62 49 61 71 74 76 84
45 57 60 64 73 71 69 62 66 76 76 79 68 67 74 81 73 70 56 49 71 75 76 75 72 71 68 65 62 63 67 75 73 77 75 75 66 69 65 58 54 57 66 68 75 84 87

GFSGBSN_prec_cthk_063.txt.gz
RH
32 32 33 36 38 36 42 40 44 45 43 50 53 63 67 70 78 85 92 85 71 72 67 66 59 55 50 52 37 52 55 56 73 64 59 53 57 59 68 64 54 61 67 63 61 48 45
30 30 34 38 39 37 39 42 44 43 47 55 64 65 74 74 80 85 93 81 73 78 80 72 68 74 75 57 44 45 63 58 78 66 67 50 59 60 66 69 60 55 71 72 65 60 52
28 28 34 38 37 34 39 50 43 41 48 55 61 69 79 74 51 71 78 71 75 73 70 73 64 84 80 59 63 54 59 68 68 72 66 52 65 70 69 71 65 64 67 70 68 62 57
27 27 34 35 36 36 37 47 41 42 51 62 67 72 80 86 65 50 56 58 61 60 65 71 72 83 86 78 68 64 72 75 74 80 76 64 69 81 78 71 67 65 66 67 65 64 62
24 28 33 35 36 35 37 42 40 45 54 59 59 58 70 86 85 55 59 55 62 64 65 60 64 80 84 78 64 60 79 87 85 95 85 65 74 82 85 80 71 61 58 54 55 57 60
23 28 32 35 36 34 36 42 38 44 51 53 57 50 52 64 85 90 72 77 65 62 66 66 74 86 78 83 73 69 95 98 86 83 83 69 77 83 87 76 78 50 51 43 44 52 53
25 30 32 35 39 32 38 38 39 42 46 49 62 43 44 54 68 88 89 90 77 79 73 81 87 85 88 82 77 73 72 92 91 95 62 67 80 82 75 66 56 52 47 47 41 48 48
27 33 29 33 40 31 39 36 36 39 46 49 54 48 54 53 61 69 78 71 67 69 77 76 85 88 88 98 92 86 92 98 93 74 66 79 81 80 79 71 63 54 52 50 46 44 40
29 33 27 32 39 32 36 33 36 40 45 52 50 44 51 56 46 52 58 61 68 82 96 89 87 82 93 98 97 98 95 91 87 68 68 75 82 92 92 78 66 55 53 47 42 43 39
28 33 28 26 33 29 25 31 34 40 45 46 48 44 39 53 64 73 74 74 82 90 94 81 80 94 94 97 89 87 85 93 91 70 76 85 93 94 92 86 69 59 51 47 46 44 38
28 31 29 24 29 27 20 24 33 41 46 45 43 42 47 41 53 63 70 80 83 83 87 91 88 84 84 84 91 97 98 98 87 79 82 94 93 93 94 88 77 72 54 53 47 47 50
28 30 30 25 28 32 22 22 28 37 42 45 44 41 44 48 52 58 61 64 75 81 89 89 88 89 95 97 97 96 98 85 84 91 89 97 91 94 96 90 84 76 63 56 54 53 58
28 28 31 25 30 37 26 22 23 31 37 42 42 42 44 46 50 53 54 60 69 80 89 94 93 95 93 97 97 96 91 96 97 98 97 98 98 95 97 94 88 80 70 79 80 75 58
27 28 30 28 32 37 33 24 20 28 36 38 40 41 43 44 49 55 65 56 67 78 85 88 89 81 84 80 92 92 89 94 90 91 98 98 98 98 97 95 94 90 82 79 69 57 54
24 25 31 30 31 35 40 27 22 27 34 44 41 41 41 45 44 47 60 64 73 77 77 72 71 81 79 73 74 79 79 74 81 87 92 94 97 97 96 89 93 97 96 72 62 50 49
25 25 30 32 31 33 40 29 24 25 32 43 43 40 43 45 43 48 55 64 68 70 69 67 68 67 67 67 65 64 61 66 74 73 76 77 90 90 87 85 81 82 80 82 75 68 50
25 25 30 29 33 31 37 39 26 25 30 36 46 49 39 43 44 46 59 63 64 65 65 67 65 63 64 64 64 63 63 60 63 68 69 69 71 80 82 83 78 75 73 72 68 57 56
27 26 30 29 32 32 35 41 33 27 31 33 39 49 47 38 51 53 60 62 60 62 62 60 62 59 59 59 60 63 64 65 65 62 61 65 70 74 71 73 73 68 67 62 63 59 51
29 27 29 32 30 33 38 38 43 34 31 34 38 41 47 46 53 56 55 55 51 52 54 59 61 63 61 60 61 55 56 60 57 56 58 63 71 73 69 69 67 69 65 63 60 60 65
32 29 30 32 33 32 37 38 37 41 37 42 42 44 43 51 51 50 49 50 50 48 50 54 59 58 61 61 59 65 65 62 58 59 63 60 60 63 62 66 62 67 63 63 69 72 52
36 33 34 34 32 33 35 37 37 37 39 50 53 46 46 51 55 59 56 52 51 53 54 58 59 60 58 60 57 60 63 64 63 62 65 64 65 59 56 56 59 62 61 61 67 58 65
38 37 36 35 35 34 36 39 37 33 33 45 57 60 48 46 46 51 60 63 63 62 62 62 62 61 63 58 57 58 58 62 59 61 60 59 72 68 67 58 56 61 56 54 54 56 49
38 40 38 36 36 37 38 40 38 34 30 41 49 62 66 50 46 48 53 55 59 61 60 59 60 63 65 69 67 62 63 63 60 55 57 62 66 68 62 58 55 58 49 49 50 49 48
40 41 39 35 37 40 43 43 43 42 38 37 46 51 63 65 56 49 51 54 57 60 60 59 61 63 66 66 72 72 67 64 60 58 59 59 61 62 59 59 66 55 49 48 47 46 46
43 44 41 34 35 41 46 51 50 46 41 39 45 54 59 64 65 58 51 53 57 59 60 60 64 65 68 74 75 78 72 67 64 63 59 57 59 63 61 55 48 44 49 52 53 52 44
43 40 40 37 38 41 46 53 55 51 48 43 41 50 65 61 65 67 67 59 61 61 63 62 67 67 68 74 76 75 75 67 68 64 62 61 62 64 66 67 58 58 54 56 58 64 62
38 34 36 38 40 45 48 54 61 61 56 55 54 52 63 72 68 66 68 74 68 65 67 68 71 70 69 71 73 76 74 69 70 68 67 67 70 70 66 66 54 46 57 60 71 71 71
30 31 39 37 39 41 43 56 57 64 65 62 70 63 64 71 67 69 67 61 81 76 70 72 75 73 72 69 69 65 64 69 71 68 67 69 70 70 66 69 64 47 57 60 71 70 74
27 32 34 36 38 40 45 57 66 71 73 68 76 76 75 79 70 69 72 61 55 86 83 75 74 70 71 68 64 64 61 65 62 67 67 68 62 65 62 61 54 53 60 59 63 68 73

GFSGBSN_prec_cthk_069.txt.gz
RH
21 24 30 27 30 29 26 27 28 34 39 41 43 43 46 46 61 89 61 55 79 69 71 78 77 63 64 64 67 86 78 65 50 58 70 66 40 47 61 66 67 69 73 69 69 61 67
19 24 30 27 30 31 27 27 31 36 39 41 43 43 45 47 52 81 63 41 61 63 64 80 78 74 58 55 54 72 77 72 59 75 79 68 52 40 53 61 67 61 69 75 74 63 56
20 22 27 26 31 31 26 26 33 37 38 39 41 40 43 52 58 77 69 46 49 53 62 67 81 71 75 65 50 55 87 72 67 80 95 82 57 47 48 61 63 72 64 73 69 65 61
19 21 23 24 29 28 22 27 32 38 38 38 38 39 42 57 53 72 72 53 54 58 58 57 66 70 65 64 57 48 68 80 63 74 88 92 71 51 57 58 66 79 72 74 65 63 63
19 23 22 21 24 29 20 28 33 39 38 35 39 35 40 53 50 62 65 62 61 55 51 55 59 65 61 66 68 52 43 77 72 79 81 89 83 64 55 59 73 78 88 71 62 58 60
20 23 21 20 23 27 16 24 33 39 38 34 37 34 39 45 49 50 51 59 61 61 56 58 61 65 67 68 68 59 45 64 86 90 95 94 88 73 65 59 58 69 70 70 65 53 55
20 23 21 19 24 29 19 15 27 37 37 33 32 32 38 41 48 48 52 53 58 63 70 70 70 72 75 68 65 58 47 60 91 96 95 95 92 70 58 56 55 61 76 74 66 59 53
21 23 21 21 24 29 23 12 20 30 34 34 33 33 34 40 43 49 53 62 73 84 89 87 85 87 79 69 71 65 62 75 85 97 93 89 83 75 66 62 68 68 68 66 65 62 57
19 22 21 22 24 29 29 13 15 23 31 34 34 34 36 38 42 47 55 67 77 83 91 95 92 92 78 73 70 61 71 97 84 96 95 92 78 71 72 66 71 69 68 67 62 62 61
20 21 21 23 24 27 30 15 13 22 31 32 36 36 37 39 42 48 55 63 71 76 92 97 96 95 90 84 98 83 89 91 81 89 83 96 78 69 68 69 68 70 68 73 64 65 71
20 20 20 23 24 26 30 17 13 21 31 31 33 35 38 43 45 47 56 60 65 77 92 96 88 83 86 88 84 92 93 95 96 96 91 92 80 72 71 75 72 70 74 75 70 72 68
22 19 20 20 24 25 29 22 13 17 27 33 30 33 35 39 44 47 52 56 56 66 92 98 97 93 85 90 94 93 97 94 90 91 87 89 86 76 77 75 75 82 77 77 77 82 88
24 19 19 20 23 25 29 28 13 14 23 31 31 31 34 36 40 47 50 50 57 67 74 85 90 96 97 91 93 93 94 87 81 86 82 93 89 82 79 79 81 88 95 96 96 95 77
25 21 19 21 22 26 28 29 23 14 17 26 33 33 35 37 38 44 45 51 59 68 74 73 76 84 86 90 91 87 92 95 84 78 79 82 87 86 83 85 91 98 88 84 84 85 72
27 22 20 22 23 25 28 29 28 21 15 22 29 36 34 36 39 42 43 53 63 67 72 70 62 65 71 78 82 94 92 91 84 73 73 81 81 81 88 91 93 98 95 75 78 70 72
30 25 22 22 23 24 26 27 26 25 21 20 27 33 39 35 38 38 41 54 61 62 65 64 62 59 62 66 71 71 76 84 85 84 80 87 91 89 89 88 90 97 90 88 92 84 76
32 27 23 24 24 23 25 27 25 24 22 22 32 36 35 42 43 38 48 53 55 56 57 62 62 56 55 57 56 61 66 70 75 79 80 84 83 93 92 90 90 94 96 89 80 78 83
33 28 26 25 26 25 25 27 25 22 23 20 26 40 36 40 48 47 50 49 47 49 54 59 61 58 55 53 55 58 60 63 63 66 72 77 80 95 90 91 89 91 93 87 87 79 74
36 30 29 28 26 26 27 29 27 24 20 24 29 33 42 46 53 55 51 51 50 46 45 54 59 61 57 55 56 55 58 53 55 58 62 62 73 83 79 81 83 86 83 88 87 80 82
36 31 29 30 27 25 26 27 26 24 22 27 32 40 35 47 55 51 54 57 51 50 47 44 55 60 61 58 57 59 58 54 54 53 55 55 62 67 72 67 74 82 78 79 86 92 81
35 30 30 30 25 21 23 25 25 23 22 23 28 40 40 43 47 58 57 53 60 55 54 51 54 57 63 64 58 59 60 60 59 56 53 55 60 57 60 63 64 66 71 75 75 71 74
32 29 29 28 25 22 24 24 23 23 21 23 29 33 33 36 43 52 60 63 57 64 67 63 62 63 63 65 67 64 61 60 60 58 58 59 69 68 65 58 58 60 58 62 66 66 66
31 30 27 26 27 25 25 23 21 21 22 22 24 29 34 36 44 49 63 72 80 64 61 69 65 68 65 66 69 70 67 60 57 60 61 62 67 67 68 62 63 63 53 52 53 56 53
27 31 27 25 27 25 24 23 22 23 25 26 26 28 34 39 41 45 46 58 68 83 67 64 68 66 67 65 66 66 66 69 66 64 63 68 68 69 71 67 71 45 49 49 49 50 52
24 25 27 29 27 24 23 25 23 25 28 29 31 29 33 34 39 47 53 56 51 58 80 67 64 67 65 66 68 68 71 72 74 70 67 67 65 68 70 69 51 52 51 51 54 53 48
23 25 29 28 28 28 28 28 26 25 29 30 34 38 38 39 39 45 45 49 62 63 61 80 69 70 68 71 74 74 75 74 80 78 71 68 65 69 72 72 69 55 54 54 52 61 53
26 27 28 29 29 28 27 30 27 29 30 33 35 41 46 43 38 48 56 58 65 75 76 80 90 83 73 75 84 79 70 63 75 77 77 75 73 77 73 70 58 47 54 56 70 62 56
22 24 27 28 27 28 28 31 29 32 35 35 40 44 49 48 42 53 57 53 58 60 68 85 88 90 94 81 80 80 72 65 65 70 75 72 72 78 75 75 68 50 53 61 63 66 68
26 29 28 28 28 29 32 31 31 35 37 37 39 46 53 53 47 59 68 65 63 60 67 73 83 96 98 93 76 73 69 66 65 69 67 75 67 66 66 62 55 54 53 56 62 65 67

GFSGBSN_prec_cthk_072.txt.gz
RH
21 28 28 25 32 29 23 26 28 33 34 35 32 37 41 43 46 60 77 41 57 64 64 72 77 74 80 75 80 91 86 79 73 56 63 63 42 59 74 70 67 80 78 78 78 79 79
19 29 24 24 31 30 21 28 29 34 34 32 32 35 39 41 48 56 68 39 48 50 56 66 74 73 77 74 68 91 86 85 74 64 83 79 46 52 65 74 76 66 76 80 75 71 76
20 26 24 22 29 29 21 26 31 33 35 33 32 33 42 46 52 57 45 47 49 52 58 61 70 65 66 66 74 89 81 89 80 67 83 91 68 45 53 64 77 75 77 78 76 72 72
21 24 21 20 27 31 20 23 28 29 36 32 29 34 43 44 57 53 48 47 50 48 47 50 59 60 59 60 66 75 78 86 77 78 86 88 85 47 47 58 66 79 81 87 71 73 70
21 22 20 21 26 31 20 19 23 27 34 33 31 30 39 45 48 53 50 48 46 44 43 47 53 57 56 61 56 66 68 80 75 79 94 89 89 63 52 58 66 73 81 72 68 65 66
22 22 21 22 25 29 25 13 19 24 31 31 30 29 38 48 43 47 55 54 53 53 54 55 56 58 56 61 60 67 62 72 81 87 96 98 92 73 59 59 61 65 72 70 64 60 62
22 22 21 22 24 27 27 11 13 23 31 30 29 33 37 45 49 42 57 64 66 67 73 67 62 66 63 64 63 54 60 69 82 90 96 97 92 71 58 57 53 58 63 66 68 62 60
23 22 21 22 23 25 27 12 13 20 26 32 31 34 35 42 47 53 56 70 75 74 85 91 74 71 67 63 64 54 52 73 82 84 93 94 87 79 62 58 54 54 62 64 62 64 67
24 22 22 22 22 25 27 14 13 18 24 28 29 31 37 38 44 48 53 67 71 79 89 95 90 80 66 67 61 59 59 75 89 95 95 86 79 82 70 65 62 60 59 60 62 61 59
26 23 22 20 24 25 26 19 13 16 23 27 27 27 34 38 41 46 49 60 70 71 94 96 96 90 93 74 70 57 78 91 96 98 97 92 87 84 77 75 72 73 64 62 59 63 67
27 24 22 22 23 25 26 26 13 14 18 27 29 28 30 34 41 47 50 53 66 77 88 98 96 84 84 81 76 75 75 95 94 94 92 88 85 82 85 74 68 67 68 64 65 66 62
29 25 23 24 22 25 25 25 23 13 14 23 28 31 31 31 36 44 51 51 56 66 88 93 96 92 89 83 86 94 86 95 93 95 96 92 91 86 80 79 74 76 70 71 73 77 79
29 28 26 26 24 25 25 24 25 20 14 18 26 31 33 35 38 42 48 50 51 64 71 80 93 92 87 88 93 93 91 82 90 94 96 95 97 87 78 72 76 78 77 90 91 90 79
28 29 28 27 25 25 24 23 22 22 18 19 22 29 36 35 37 42 45 46 56 63 71 71 75 86 92 86 87 93 90 89 88 83 92 92 92 80 73 71 69 81 80 82 86 84 73
28 28 31 30 28 25 25 23 21 19 20 16 25 27 32 37 41 40 43 49 56 62 65 69 66 68 80 91 85 87 83 83 79 70 72 74 80 83 81 74 75 83 83 84 78 73 77
28 30 31 33 30 28 25 22 21 18 19 17 22 31 34 37 44 43 42 52 57 57 63 64 64 59 68 74 88 88 88 80 77 71 68 69 79 82 85 86 84 85 93 97 88 81 75
30 31 33 35 31 30 27 23 21 20 17 17 21 30 33 41 43 43 53 54 53 53 55 60 61 59 56 60 63 68 76 79 81 81 73 75 77 84 82 81 78 88 96 93 81 74 79
33 33 35 36 30 28 26 22 19 16 17 16 20 29 34 38 46 48 55 52 48 50 52 55 58 59 57 58 59 60 65 73 76 79 83 85 89 92 90 85 84 85 91 85 86 81 76
34 32 32 36 28 27 25 23 21 18 15 17 22 28 32 37 47 50 52 57 58 51 50 50 56 59 60 59 59 59 61 61 63 71 76 79 82 92 95 89 88 88 85 86 82 80 79
33 32 31 35 30 27 25 23 21 18 16 18 22 26 23 34 39 41 48 58 57 57 50 49 50 56 61 61 60 60 61 56 59 61 64 65 70 69 73 66 73 82 83 90 94 93 79
35 33 34 35 29 26 25 23 19 16 16 16 17 27 28 30 29 39 43 48 61 61 61 55 51 54 61 63 62 62 61 60 58 59 58 60 62 60 62 66 68 67 76 80 84 81 84
36 34 34 31 26 24 23 22 19 17 17 16 18 22 23 26 31 38 42 52 60 66 62 63 71 65 64 63 63 67 66 64 63 63 60 60 64 63 64 58 58 63 62 67 73 71 70
38 35 34 29 24 24 23 24 21 19 19 18 18 20 24 24 30 32 40 41 53 63 74 69 67 72 70 66 67 66 70 69 63 64 64 66 69 68 66 62 60 61 54 53 55 58 58
37 35 42 28 25 23 23 26 24 22 22 21 20 21 22 24 28 29 31 37 45 54 64 78 76 67 70 71 67 66 69 71 70 65 65 72 72 72 74 67 72 46 48 47 47 47 48
33 37 39 28 27 25 27 29 29 27 28 25 24 23 23 26 27 28 33 37 41 44 52 52 75 80 70 70 72 70 67 68 70 74 71 70 76 78 77 73 55 44 47 51 53 49 47
39 42 36 32 25 27 28 29 30 32 30 27 26 27 25 29 27 30 32 37 48 56 61 69 63 81 90 76 73 76 74 69 71 71 77 77 74 77 81 75 70 50 49 51 54 59 49
42 47 35 29 25 28 29 32 37 34 32 29 30 30 31 31 29 34 38 41 45 57 63 71 88 89 94 95 85 79 72 64 72 74 80 86 82 79 76 77 59 49 55 54 65 60 58
51 39 30 23 25 31 31 32 37 37 33 32 34 36 37 36 34 37 44 48 54 63 67 65 75 90 96 99 96 83 75 66 64 65 74 82 85 82 79 79 69 51 55 59 60 64 65
38 30 35 31 29 31 32 32 36 38 34 34 35 40 43 43 38 44 50 54 54 58 69 69 69 87 99 98 98 92 79 64 65 69 67 75 71 73 72 66 55 56 54 52 56 66 70

GFSGBSN_prec_cthk_075.txt.gz
RH
20 22 20 27 30 30 20 26 25 27 30 29 32 33 34 40 46 50 44 34 46 48 52 60 64 68 83 84 83 88 90 87 79 71 73 71 53 52 60 66 69 66 74 87 95 89 90
20 22 20 25 29 31 18 20 25 22 28 30 32 34 34 39 48 41 41 39 49 47 57 59 62 67 70 80 76 82 87 85 81 71 78 71 52 54 61 66 67 70 77 82 81 90 85
20 23 20 23 29 30 19 15 21 22 27 31 30 33 37 35 47 41 41 44 45 47 47 50 61 65 69 79 82 90 92 91 84 70 75 82 52 56 59 68 75 74 77 81 83 87 89
22 23 21 22 27 30 24 12 19 23 26 29 29 28 37 38 46 49 46 46 48 46 42 44 53 57 61 75 79 80 84 91 94 71 72 92 67 60 59 68 78 83 76 80 76 82 86
23 23 21 22 24 30 26 11 19 21 24 27 28 28 35 38 42 55 55 52 51 50 45 43 52 57 61 65 72 74 79 87 84 69 88 93 82 55 55 68 78 81 77 71 70 71 75
24 23 22 23 24 27 26 11 16 20 24 25 29 31 33 39 40 50 64 66 66 66 58 53 51 57 58 60 67 65 72 88 81 79 97 99 91 64 54 61 66 80 76 72 73 70 73
25 24 22 23 24 26 27 13 13 18 22 25 27 29 31 35 39 42 57 72 78 80 80 75 64 64 64 64 61 61 69 88 78 84 96 99 90 69 54 50 58 65 68 71 71 71 75
25 24 23 23 24 27 27 17 13 16 22 25 23 27 31 34 38 40 47 63 78 85 85 87 73 63 64 64 66 65 65 87 82 96 96 95 90 77 65 53 55 60 61 65 68 71 74
26 24 24 24 25 28 27 24 14 13 19 26 27 25 28 31 36 42 43 54 69 81 91 88 83 66 58 62 64 66 72 91 89 97 97 96 86 80 72 62 56 59 62 66 66 66 72
27 25 25 25 25 28 28 27 23 14 14 23 26 29 29 30 35 41 47 50 62 73 91 92 87 76 68 55 65 63 75 91 88 96 98 94 90 82 71 63 59 63 58 60 60 67 73
27 24 24 26 27 28 28 27 24 22 13 18 24 29 32 33 35 41 48 51 56 73 84 94 86 84 68 62 51 62 81 90 81 93 98 95 84 87 82 67 62 65 64 61 61 61 64
28 26 25 26 28 29 28 27 24 23 19 17 23 26 32 36 37 41 47 49 53 60 78 92 87 85 84 64 61 66 88 90 88 95 96 95 89 89 83 74 69 68 67 68 69 68 72
31 28 26 27 29 30 29 26 24 22 21 16 24 25 29 35 37 42 45 48 51 61 66 81 89 86 81 89 74 78 84 90 92 98 98 97 94 87 83 82 76 76 76 86 84 82 75
32 29 27 28 30 32 29 26 24 20 20 17 22 27 31 34 38 41 46 45 54 60 70 72 80 84 87 83 83 80 83 93 94 91 92 94 91 87 84 78 77 77 74 82 76 78 72
32 30 28 30 31 32 31 28 25 21 19 18 21 26 29 35 38 41 45 50 53 61 64 71 68 78 85 82 81 82 83 86 85 80 83 86 88 88 82 79 72 81 86 73 72 69 73
32 30 30 31 31 30 32 27 25 21 19 19 22 26 29 35 38 38 39 52 56 56 62 66 67 65 79 86 85 83 81 80 77 79 77 77 87 83 82 80 78 74 78 85 83 81 77
34 32 31 30 28 29 31 26 22 21 19 20 24 26 28 34 34 33 44 49 52 51 54 60 64 64 61 77 85 83 80 75 75 77 73 72 71 78 78 84 74 78 79 82 81 74 74
35 32 31 28 27 27 27 25 22 21 19 20 21 26 28 32 31 36 40 41 43 49 48 53 59 63 62 61 65 70 71 77 78 86 81 72 74 75 76 78 80 81 77 80 82 78 77
35 32 31 32 28 26 27 24 21 19 18 19 21 23 25 27 33 35 34 38 44 48 50 48 52 58 62 65 63 64 66 71 73 83 83 81 89 95 94 88 81 77 74 79 85 84 77
35 32 32 34 28 26 26 24 21 19 18 18 21 24 21 26 28 31 35 41 42 45 49 52 51 52 59 65 65 65 66 64 65 72 81 88 88 82 85 78 85 93 89 86 88 88 79
33 34 34 36 26 25 27 25 22 21 19 17 18 25 23 25 24 34 37 39 43 45 48 57 60 57 59 68 69 70 69 68 67 65 67 72 76 77 74 73 76 75 79 88 87 83 82
36 34 32 32 25 26 27 26 23 21 19 19 20 22 23 23 24 28 32 40 43 44 47 47 60 67 70 65 65 70 75 73 66 67 66 68 70 69 69 64 67 70 70 70 80 83 84
36 37 34 26 29 26 27 27 26 23 21 21 21 22 26 24 26 26 30 30 34 41 46 55 59 71 73 77 76 72 72 76 74 68 69 70 73 72 69 64 64 65 52 54 58 59 63
46 38 29 28 32 28 30 30 29 26 24 22 22 24 25 24 26 24 27 29 30 34 40 42 54 63 78 76 80 78 75 75 78 77 70 73 72 74 77 72 76 49 45 48 48 46 50
46 34 30 30 32 29 35 30 28 26 25 24 24 25 26 27 26 27 27 30 31 35 41 42 48 51 66 84 82 80 80 76 75 77 77 74 76 81 82 80 60 46 45 49 51 46 44
42 31 29 29 32 34 38 30 30 28 27 27 27 27 28 31 31 31 31 36 46 47 49 57 63 66 73 85 97 84 82 76 75 75 74 78 77 76 83 84 75 51 53 50 51 55 51
39 30 29 30 32 36 33 29 30 31 29 30 32 32 32 31 30 35 40 43 47 49 53 58 71 70 87 90 98 96 80 69 76 75 77 78 83 85 85 81 69 51 50 56 63 54 59
35 34 32 27 39 35 30 30 35 32 29 32 35 38 37 35 32 39 41 46 51 55 59 64 72 80 93 98 95 98 89 73 69 68 71 75 82 83 84 83 74 52 55 59 58 61 64
35 35 29 35 40 32 32 34 32 31 31 34 36 39 40 41 34 37 39 44 48 55 64 75 79 81 95 97 96 96 98 83 71 70 66 69 66 74 72 65 55 55 54 55 54 57 66

GFSGBSN_prec_cthk_078.txt.gz
RH
21 23 22 26 28 30 19 18 26 25 27 27 27 31 33 36 35 36 35 34 40 42 44 50 60 56 72 74 83 87 92 94 83 71 74 78 75 56 58 58 61 62 62 73 78 77 74
21 22 22 25 28 29 24 15 21 26 25 28 29 31 32 33 35 37 41 40 41 42 42 45 55 61 68 80 84 89 87 90 85 76 76 79 72 56 57 61 63 63 62 70 86 83 84
21 21 22 23 27 28 27 13 19 26 26 27 30 25 32 32 36 40 46 47 44 45 44 46 57 60 66 78 88 83 84 91 88 78 78 90 77 61 57 65 71 65 67 66 70 76 89
23 21 22 24 25 28 29 14 16 25 26 26 27 26 29 31 35 40 47 51 51 47 41 45 47 56 67 81 85 86 83 95 94 81 78 87 76 64 57 59 69 77 69 73 70 77 85
24 22 22 24 25 27 30 15 16 21 26 25 26 27 27 31 34 40 48 55 58 53 49 46 49 56 65 75 83 86 83 90 94 84 84 89 76 64 58 64 71 76 74 68 72 73 82
24 23 22 24 26 27 27 20 15 18 24 28 23 27 26 30 34 38 47 59 68 69 69 55 52 57 62 68 83 77 78 92 93 91 85 95 84 66 60 65 66 73 72 72 69 69 75
25 24 23 24 26 28 27 27 15 16 20 26 26 25 27 28 33 37 43 56 67 73 78 68 61 63 66 68 72 72 80 95 90 83 84 97 86 66 56 61 62 70 72 76 71 72 77
26 25 22 23 26 28 27 27 26 16 16 22 25 28 28 28 31 37 43 50 62 74 80 73 59 57 65 64 61 68 85 92 83 83 95 97 85 68 53 56 58 64 70 74 76 77 78
28 26 24 24 27 28 27 28 26 25 16 19 24 28 32 32 32 36 44 49 59 68 82 83 75 56 59 63 57 71 91 89 88 89 97 99 85 75 64 56 56 60 63 71 75 76 78
29 28 25 25 28 29 27 29 26 25 20 19 24 26 30 33 36 37 46 48 57 63 81 87 79 59 53 61 58 74 94 87 88 98 98 96 91 82 79 69 54 57 57 59 67 77 82
31 29 27 27 28 28 28 29 25 23 22 17 26 27 29 33 36 41 48 50 54 63 76 84 84 64 53 59 59 66 86 79 88 97 98 98 90 88 86 74 59 53 53 56 60 69 68
33 30 29 27 29 29 29 28 26 23 22 18 23 26 29 34 37 41 45 48 52 59 77 86 81 72 56 61 65 72 81 80 86 93 97 95 94 91 83 75 65 62 56 59 65 67 74
33 31 29 28 30 29 30 29 27 24 22 19 21 25 29 34 39 41 43 48 50 62 66 77 87 82 72 60 62 79 81 83 87 91 98 97 94 89 89 76 69 67 66 75 74 75 71
35 36 30 29 31 30 31 30 29 25 21 19 22 26 30 35 38 41 42 45 51 59 66 67 80 81 83 72 68 81 85 83 82 87 95 93 94 89 87 80 74 72 71 75 71 73 67
38 38 32 29 32 29 30 30 29 25 22 20 23 28 32 33 36 40 40 46 47 54 59 65 67 81 81 81 79 81 81 81 82 81 94 93 93 90 87 84 83 86 87 77 78 70 70
39 37 33 30 31 29 30 30 27 24 22 22 24 27 31 34 35 38 38 47 50 50 55 60 60 60 78 84 81 85 76 78 82 78 77 80 92 88 87 86 85 83 79 84 85 85 77
39 38 33 30 30 30 29 29 25 25 22 23 26 27 29 32 32 33 40 46 47 47 52 55 59 61 58 79 85 83 80 76 79 83 84 81 79 89 90 88 88 88 84 81 76 77 72
39 38 33 30 30 29 28 28 24 24 22 22 24 27 27 28 30 36 41 42 41 43 47 51 55 58 60 57 67 82 79 75 77 82 84 80 81 85 82 84 75 77 78 80 80 75 74
39 38 34 31 32 29 26 26 23 23 22 22 24 23 24 26 32 36 35 37 43 44 44 45 47 51 56 60 61 61 64 68 81 85 89 86 82 84 81 76 75 79 79 76 76 74 72
42 39 34 33 33 28 27 25 22 23 24 22 23 24 21 24 28 33 38 36 38 37 40 41 45 51 56 59 61 64 65 65 75 81 89 90 89 78 77 74 80 85 80 81 85 81 70
48 40 37 33 33 28 28 23 22 23 25 23 23 27 24 26 25 29 35 37 37 43 43 44 45 53 59 67 66 68 72 72 67 68 77 89 93 88 85 81 86 85 85 88 86 78 79
47 42 37 36 31 26 27 22 22 23 26 24 23 23 24 24 25 29 31 36 35 40 46 48 52 57 66 77 75 74 80 79 74 71 70 77 88 85 84 76 77 78 78 79 80 79 79
51 43 38 36 32 28 26 22 21 24 26 25 24 22 23 24 26 27 29 30 31 36 32 43 49 57 64 81 91 86 75 77 80 79 76 77 79 79 76 68 65 67 54 58 59 62 63
54 44 41 34 33 28 27 23 23 27 26 25 24 25 24 24 26 25 27 28 29 32 39 33 41 51 65 75 93 92 92 82 78 81 82 79 78 80 82 75 78 49 44 47 50 48 52
55 55 46 38 34 28 26 26 28 31 30 26 25 27 26 27 26 26 28 30 31 31 37 41 41 56 58 70 93 97 92 91 84 80 82 83 84 87 88 83 65 51 48 51 51 46 44
64 60 46 41 34 27 26 28 33 34 31 28 29 28 29 31 32 30 33 34 38 38 41 39 50 59 69 76 86 97 97 84 89 85 80 85 86 87 91 87 81 52 57 56 54 55 52
66 61 48 44 30 25 23 30 36 36 34 31 32 31 33 32 34 33 37 36 37 45 48 47 57 63 66 86 89 95 96 86 89 87 83 86 90 90 91 89 71 59 57 60 64 54 58
75 57 50 42 28 23 22 28 37 37 35 36 37 38 35 35 32 35 34 38 43 47 50 54 60 82 86 90 96 92 91 90 89 81 77 77 86 83 86 89 82 63 63 63 57 60 60
70 63 52 36 26 25 27 33 39 37 37 38 43 43 42 40 36 36 32 36 41 49 60 65 70 74 79 91 94 94 98 96 93 92 79 73 68 75 76 72 68 61 58 59 59 56 61

GFSGBSN_prec_cthk_081.txt.gz
RH
20 21 21 25 26 31 29 15 16 21 26 27 29 26 29 29 29 30 37 40 43 44 39 37 43 47 54 69 79 98 96 94 83 90 89 93 80 65 54 62 61 66 73 74 74 57 55
22 21 21 23 26 30 29 16 16 22 26 27 28 24 32 30 29 33 39 42 44 47 44 39 44 48 50 63 76 90 94 94 86 85 88 93 86 69 52 61 61 60 68 80 72 68 61
23 23 22 23 26 29 30 17 16 22 26 25 27 25 25 31 29 35 40 47 51 51 48 38 41 50 57 64 77 87 90 95 87 83 82 91 94 72 63 67 64 60 67 67 70 70 70
26 24 23 23 25 28 30 21 15 19 25 25 24 25 23 27 29 34 41 50 55 55 50 43 41 49 61 71 81 85 86 90 84 76 78 91 89 76 64 71 70 65 66 68 61 63 67
30 26 24 23 24 28 29 27 17 17 21 25 24 26 24 25 30 33 42 52 65 68 60 49 49 54 68 79 85 85 81 92 87 78 80 92 84 76 68 74 72 86 74 63 64 59 66
31 27 25 24 25 28 30 28 24 17 17 21 23 25 26 26 29 33 40 50 65 72 64 51 53 57 71 83 89 81 78 96 90 88 91 97 90 77 77 76 76 80 75 64 63 65 64
32 28 26 25 26 27 30 28 26 23 17 18 23 24 27 28 29 32 39 48 63 69 70 62 57 63 72 81 82 77 80 94 98 88 89 94 90 80 75 67 63 65 64 63 62 62 63
36 29 27 26 27 27 30 29 27 26 21 17 23 25 27 29 31 33 39 44 57 71 77 69 53 59 67 66 67 71 91 93 97 89 94 97 89 78 67 66 63 64 66 70 68 66 68
40 30 29 27 27 28 29 30 27 25 24 16 21 26 28 30 32 36 40 45 54 65 75 77 56 51 55 60 69 83 95 93 88 87 87 95 92 79 68 72 66 69 67 70 70 68 70
40 32 32 28 28 29 29 29 26 25 23 20 20 26 29 32 35 39 44 46 52 62 75 80 61 52 53 57 73 86 85 83 83 87 92 95 91 83 72 68 59 62 61 65 66 69 77
38 34 34 29 30 30 29 29 26 25 23 22 19 25 29 34 39 43 46 48 53 60 72 74 59 45 51 56 65 78 79 76 87 84 97 98 91 85 79 67 49 56 58 59 60 65 68
39 35 34 29 30 30 30 30 28 27 24 22 20 26 30 36 41 44 46 48 50 57 73 81 74 58 57 59 65 74 75 71 81 93 94 96 94 87 83 81 67 55 57 62 65 61 68
36 36 34 32 31 30 32 33 30 27 26 22 23 28 32 36 41 44 46 48 50 61 65 71 77 76 57 54 65 72 74 74 83 94 98 98 93 89 87 86 78 66 60 69 72 72 66
36 36 34 33 31 31 32 33 29 27 26 23 26 29 33 35 39 43 44 44 53 59 64 64 73 76 73 57 62 73 72 75 77 80 93 96 95 92 89 81 77 71 65 64 66 66 58
40 36 35 33 31 30 30 31 29 27 26 25 27 28 31 35 37 39 41 47 50 54 58 64 65 76 74 71 66 70 73 73 75 73 85 86 90 90 88 89 81 73 76 65 69 66 63
46 38 36 33 30 30 29 29 28 26 26 27 28 27 30 34 35 36 38 47 50 50 54 61 61 62 73 76 71 76 79 71 75 75 75 84 92 88 89 88 88 82 74 78 81 82 74
52 40 38 34 30 30 28 28 27 25 24 28 29 28 28 30 32 33 40 43 43 45 50 55 58 59 61 76 81 77 76 73 75 81 80 80 82 91 91 91 89 90 88 86 79 78 74
61 41 40 35 30 31 28 27 27 25 24 28 27 28 27 28 29 34 37 36 39 41 45 49 50 56 59 62 72 88 82 78 77 79 85 83 85 89 88 87 85 84 83 83 83 77 77
63 46 41 36 32 30 29 27 25 24 23 26 27 25 25 26 29 31 30 32 37 41 41 44 45 48 53 60 67 72 74 80 80 83 84 84 93 93 92 89 86 87 86 82 82 79 78
71 50 41 37 35 32 28 27 26 23 23 25 27 24 22 25 27 28 31 32 33 36 39 41 43 47 51 55 65 69 73 73 76 82 91 88 89 80 77 67 69 77 76 72 74 78 69
74 53 45 40 35 32 30 26 27 24 24 24 25 26 24 27 25 27 29 32 36 37 38 39 42 49 53 60 62 72 75 86 83 82 94 96 99 94 86 76 77 73 74 78 80 73 73
76 53 47 43 36 34 33 25 27 26 25 25 26 24 27 28 28 28 28 33 33 34 34 33 39 38 50 65 67 82 90 86 90 88 84 89 95 93 93 86 83 82 83 84 81 78 76
83 55 53 42 36 33 32 26 27 27 27 26 27 25 26 32 32 28 27 30 32 30 25 30 34 41 40 50 66 90 97 94 95 92 90 89 91 95 94 88 86 84 73 70 69 69 67
90 63 55 45 41 32 32 30 26 28 29 29 28 27 26 30 33 30 29 30 29 28 31 29 34 42 42 48 51 73 93 97 95 85 88 96 92 91 91 82 86 60 51 54 54 48 52
95 77 58 56 38 35 30 31 28 27 28 32 30 28 29 33 34 32 31 30 30 28 31 35 40 46 56 64 68 77 90 99 93 94 85 88 94 96 93 85 69 55 50 52 54 47 44
94 87 71 56 41 39 31 33 29 25 27 33 33 31 33 35 37 32 32 33 35 36 38 36 43 45 57 68 80 74 89 95 93 94 92 89 90 99 94 90 81 57 59 57 58 59 55
94 90 72 60 56 41 32 33 31 27 27 33 35 34 37 38 37 34 35 35 36 40 44 45 45 50 60 76 80 81 83 88 97 93 94 96 97 94 94 91 77 63 65 63 69 57 61
94 90 77 72 61 41 32 34 31 27 29 32 38 39 41 42 38 37 34 34 40 43 47 48 49 59 64 77 81 93 84 87 89 85 91 88 93 91 94 93 84 63 68 71 63 63 64
94 89 84 75 64 42 33 39 32 26 32 35 44 44 47 45 42 36 31 35 37 43 46 54 57 62 64 69 74 83 92 92 89 88 92 94 85 84 77 69 63 64 66 63 63 62 63

GFSGBSN_prec_cthk_084.txt.gz
RH
29 22 20 21 24 26 29 21 19 23 27 27 28 29 29 30 25 28 32 37 45 50 48 38 40 44 53 67 76 97 93 97 88 86 90 88 82 70 57 66 70 69 77 85 79 77 63
33 24 22 21 24 26 28 23 20 18 25 29 29 29 27 33 30 30 34 41 48 53 51 37 38 46 52 59 73 89 95 95 85 87 87 95 82 72 65 74 64 54 73 79 82 81 64
34 28 24 21 24 27 27 28 19 17 22 27 27 30 30 28 31 31 35 43 51 54 49 37 38 50 63 66 72 83 88 93 82 90 83 95 86 73 62 73 65 56 68 74 79 73 71
37 31 26 22 24 27 29 27 25 17 20 22 26 29 31 28 30 32 37 45 57 60 46 37 45 54 67 66 76 81 85 91 80 91 93 97 90 79 66 68 67 59 59 69 76 75 72
41 33 28 23 25 27 29 29 28 24 18 18 24 27 30 29 31 32 38 46 58 64 47 40 48 57 71 73 74 82 87 88 85 88 90 97 90 82 67 64 70 70 57 60 74 76 73
45 37 30 25 25 28 28 29 28 26 24 17 18 26 29 31 31 33 38 45 57 62 43 39 51 63 80 79 76 82 87 90 84 82 89 95 94 81 75 72 68 77 63 59 57 59 57
53 37 31 27 26 29 28 29 28 24 24 20 17 25 29 32 32 34 39 43 57 64 50 44 56 67 72 72 71 77 86 81 88 89 91 97 91 78 71 74 72 74 76 63 56 53 56
52 38 33 29 28 29 29 29 28 24 23 23 17 25 29 32 33 35 40 42 51 61 59 46 48 58 63 66 70 75 78 82 84 85 92 97 88 81 74 69 71 71 66 65 58 51 57
50 40 34 29 29 29 30 30 28 24 23 23 18 24 28 33 34 38 42 43 48 60 57 52 48 52 61 68 72 68 74 83 80 84 91 98 93 78 75 66 64 65 59 58 52 58 61
54 42 34 28 29 30 31 30 28 26 23 23 18 24 29 34 37 40 43 43 47 56 68 50 50 48 58 62 74 74 76 77 78 78 86 89 86 80 75 66 63 63 56 57 60 60 62
58 41 35 29 28 29 31 31 30 28 25 23 19 25 29 35 39 41 42 43 49 54 67 62 51 53 55 62 66 74 74 75 71 74 80 85 83 78 73 71 63 60 59 59 62 64 62
61 41 36 30 29 29 31 32 31 28 26 24 21 25 31 36 38 40 40 42 46 57 65 72 60 53 55 58 64 70 75 75 74 76 77 88 87 82 71 72 63 59 60 58 58 60 62
65 42 36 31 30 29 31 32 32 27 26 24 24 27 31 33 37 38 40 44 52 56 57 63 67 62 52 59 66 66 72 76 77 84 90 93 89 84 81 76 70 66 63 67 70 71 54
70 45 36 33 31 29 31 31 30 28 27 25 25 27 32 31 34 37 39 41 53 51 56 55 62 66 66 55 65 69 70 74 80 81 94 96 93 88 79 82 84 72 59 55 56 52 45
78 54 38 33 34 30 30 30 29 28 27 28 26 28 30 30 33 35 37 47 46 52 52 54 57 63 67 69 64 71 67 68 76 79 87 90 92 89 87 84 83 85 82 62 61 55 52
87 67 42 34 38 31 30 29 30 28 27 29 29 28 28 29 31 32 35 43 44 45 48 51 50 52 55 67 71 70 70 68 72 74 78 83 94 93 94 90 88 80 71 77 76 71 60
92 70 54 37 39 33 31 29 29 29 26 30 32 30 26 28 29 30 40 38 40 42 44 45 45 47 48 58 68 76 71 71 72 78 78 83 85 96 97 91 94 90 80 71 65 65 63
92 77 61 40 39 35 32 31 29 28 27 32 34 30 27 26 27 29 34 31 37 38 41 42 41 43 45 49 60 69 78 72 79 80 82 82 85 91 89 88 88 85 78 76 77 75 69
91 91 62 50 38 36 33 30 28 28 29 29 31 30 27 27 30 29 27 30 34 37 36 37 36 38 40 45 54 56 66 80 84 86 87 86 94 95 94 90 89 87 79 76 73 75 79
94 94 76 53 38 36 34 30 28 30 29 29 30 31 28 27 29 27 27 30 32 33 34 34 33 38 43 42 48 57 63 74 85 92 90 90 92 81 76 75 74 83 78 78 84 85 72
98 95 84 55 40 34 35 29 28 31 30 29 28 30 28 29 29 29 28 30 32 32 36 34 35 37 45 42 43 51 60 69 87 93 93 95 98 91 85 79 81 81 74 71 77 75 73
98 95 85 59 49 35 37 29 29 30 33 31 29 30 31 31 32 31 30 31 34 34 32 29 35 36 35 47 54 70 81 80 82 92 94 92 99 96 98 94 86 87 80 73 68 64 63
98 92 77 61 50 40 36 29 29 29 31 35 30 28 29 35 35 32 30 32 31 30 23 27 33 38 37 39 46 53 61 83 99 92 98 93 92 93 93 94 97 92 76 73 69 66 69
97 94 75 61 53 48 35 30 29 30 29 33 33 31 31 34 36 34 33 31 30 29 28 26 31 37 40 48 52 55 51 53 82 97 98 94 92 92 87 84 89 63 62 66 62 58 57
98 93 82 67 59 50 33 36 30 30 31 30 31 30 30 33 37 37 34 31 29 27 31 35 36 42 47 52 62 68 66 64 77 80 97 96 96 98 92 84 70 58 56 58 57 49 46
99 93 85 70 62 48 41 40 32 31 31 31 30 31 29 35 38 40 38 36 32 32 31 34 38 40 47 56 66 70 62 83 94 96 87 87 90 90 96 87 77 57 60 59 57 52 52
99 97 90 79 68 59 51 41 34 33 32 31 31 31 29 40 44 45 41 36 34 36 39 39 42 43 52 62 65 69 62 81 84 91 92 98 98 95 91 86 73 62 63 64 62 55 57
99 97 92 87 72 65 55 42 40 34 32 31 32 31 31 41 48 46 43 34 36 38 40 40 46 50 52 61 67 72 75 75 85 87 96 93 96 93 90 89 78 64 66 63 59 64 63
98 97 93 87 79 69 59 48 44 34 31 33 33 36 38 43 47 50 41 36 38 40 41 44 49 52 54 56 58 58 70 75 81 79 84 89 85 84 80 70 65 63 63 63 63 65 63

GFSGBSN_prec_cthk_087.txt.gz
RH
38 32 29 25 22 25 29 32 24 22 25 28 29 29 27 27 33 30 32 38 45 47 39 34 35 42 50 70 79 90 89 96 92 85 80 79 77 66 54 62 80 89 71 80 76 75 78
47 37 31 27 22 24 29 32 32 21 26 28 29 29 29 25 31 31 33 40 46 44 33 34 37 46 61 69 74 85 93 93 84 89 84 83 88 76 60 55 67 80 92 82 73 78 72
51 45 33 29 24 24 28 31 30 29 22 25 26 29 30 27 27 29 34 41 49 40 31 33 40 47 67 63 71 84 90 90 77 86 87 83 86 79 69 63 64 72 82 85 69 88 81
57 49 40 31 27 25 28 30 30 28 30 24 23 27 30 29 27 29 35 42 49 36 32 38 44 57 63 61 75 89 91 89 84 81 86 80 91 85 79 68 57 58 67 76 87 84 79
66 55 48 34 27 26 28 29 29 27 29 28 19 22 28 29 28 29 35 42 47 32 29 41 54 66 71 65 69 78 84 85 90 82 87 92 94 84 81 67 75 67 69 76 80 74 77
73 62 53 39 28 28 29 30 29 27 25 25 18 22 28 29 28 29 35 42 48 33 34 41 54 70 71 66 71 81 77 77 85 90 92 97 92 86 78 67 75 73 61 61 69 76 68
82 68 56 39 29 29 30 30 29 27 24 22 19 22 27 30 29 31 36 42 49 43 36 44 53 56 62 70 76 75 71 70 76 95 93 97 93 78 71 66 68 66 64 56 57 71 71
83 81 57 39 28 29 31 31 29 27 24 21 21 23 28 30 30 33 36 44 45 41 42 44 50 54 58 69 75 73 69 70 66 80 89 95 89 82 73 69 69 71 65 63 60 62 60
86 82 62 45 30 29 31 32 30 28 26 22 21 24 29 31 32 35 39 43 46 48 45 44 45 56 56 61 62 67 66 70 70 74 82 92 78 77 75 72 66 68 68 75 67 59 55
90 85 68 49 30 28 29 32 32 31 27 24 20 25 30 32 34 36 40 42 43 50 58 46 48 44 49 53 58 63 70 71 73 76 82 82 75 74 70 70 67 68 66 68 66 62 59
97 88 77 54 32 29 28 32 31 32 27 25 20 25 31 32 35 38 40 42 44 52 66 49 49 46 49 52 49 55 66 73 70 75 82 83 81 72 71 66 60 70 68 66 65 62 64
98 93 84 59 35 29 28 32 32 32 27 26 22 27 31 31 35 36 38 42 44 60 59 60 48 47 51 51 55 58 68 72 75 75 77 85 81 75 74 71 68 74 65 62 60 64 83
99 97 89 56 38 32 29 32 32 31 28 26 26 28 30 32 35 34 37 43 55 58 51 55 56 56 42 51 56 59 62 67 74 83 84 86 85 79 84 82 73 70 63 73 76 77 59
99 97 91 54 39 34 29 33 32 30 30 27 28 28 29 30 32 33 39 44 56 45 53 51 54 54 62 48 49 57 62 66 66 73 90 88 92 82 78 76 71 62 64 66 66 58 50
96 98 98 64 40 36 29 36 32 31 31 30 30 29 29 29 31 33 39 50 44 47 48 49 52 57 53 55 59 57 61 62 63 69 82 90 92 85 85 82 81 73 74 65 71 62 61
97 97 98 71 40 39 28 39 31 31 31 32 32 33 30 28 30 32 38 40 40 39 42 45 46 43 45 53 57 65 60 56 63 71 81 92 98 91 90 87 88 93 82 84 76 70 59
97 98 98 79 48 36 28 42 35 35 31 34 35 37 28 28 29 33 40 35 34 34 38 41 38 37 38 44 50 58 59 62 65 76 78 77 84 93 96 91 79 88 87 83 80 62 62
97 99 99 87 60 38 31 42 33 36 33 36 38 39 31 30 35 32 31 29 32 32 36 38 35 35 37 42 44 55 51 74 75 75 81 79 86 98 91 89 87 84 81 80 81 76 67
97 98 99 93 63 39 41 40 30 36 36 36 37 37 33 31 38 33 28 27 31 33 36 36 34 35 36 37 45 45 54 58 80 90 82 79 91 93 97 95 91 91 87 86 80 76 93
99 98 99 95 72 40 45 36 30 38 36 36 36 38 34 34 30 30 29 29 29 32 31 35 33 35 40 44 44 48 54 70 68 86 95 91 85 80 82 84 75 82 79 82 86 95 79
99 99 98 96 80 42 49 32 32 38 37 35 36 33 32 37 33 34 33 30 27 32 33 33 31 40 44 44 45 40 49 54 76 78 95 98 98 92 84 82 81 78 77 77 81 80 83
98 98 99 96 76 57 48 35 31 36 31 45 40 33 31 30 31 36 35 33 30 32 31 24 35 32 37 36 36 41 49 66 92 91 87 98 99 95 96 97 85 83 77 78 75 75 72
98 96 98 97 86 67 51 35 35 35 29 40 37 40 32 33 34 35 35 34 31 32 26 25 30 32 31 35 41 43 45 48 66 88 91 98 98 92 95 96 98 96 74 71 70 71 68
99 99 98 96 83 64 56 39 40 29 30 32 30 38 33 34 34 34 38 40 37 32 28 27 30 34 38 41 43 45 50 50 46 70 81 83 98 97 95 96 94 67 62 66 65 64 62
98 99 98 94 85 75 54 42 37 28 39 32 34 30 32 36 35 34 40 44 42 33 30 30 32 37 36 42 47 53 65 67 51 50 74 76 94 98 93 83 67 64 59 58 60 57 55
99 99 97 93 79 67 58 47 42 29 44 31 35 32 32 39 34 33 40 45 41 32 33 33 36 37 39 47 55 64 55 66 87 83 84 90 98 99 97 95 74 62 58 56 57 55 53
99 98 95 90 84 70 57 51 39 31 45 34 36 33 31 34 36 32 37 46 40 33 31 33 37 39 44 51 57 63 63 64 77 85 89 88 92 91 84 83 73 63 62 63 62 61 62
98 99 98 91 74 68 59 53 42 41 49 41 40 33 32 36 41 36 38 44 38 35 34 35 41 46 47 53 54 58 61 60 70 72 84 91 90 94 94 93 81 64 67 66 65 63 60
99 99 96 88 80 74 64 48 44 45 43 46 39 34 34 40 46 40 41 46 38 37 37 35 43 43 47 52 55 56 57 58 62 63 73 81 83 92 83 79 75 72 66 66 65 65 65

GFSGBSN_prec_cthk_093.txt.gz
RH
79 82 79 73 65 53 44 29 23 26 29 29 27 20 22 29 27 23 27 31 28 25 26 30 32 45 52 55 67 73 78 67 72 80 88 95 93 78 67 70 87 89 88 92 94 88 83
81 83 82 81 73 63 55 39 25 25 29 30 27 22 20 26 25 23 26 31 25 24 25 31 33 45 44 54 74 76 79 80 77 81 91 93 95 88 70 64 83 86 90 93 94 87 87
77 83 84 83 80 72 62 44 28 24 28 31 27 24 19 26 25 24 26 30 22 22 26 32 40 43 51 66 72 73 76 81 81 87 94 98 93 85 65 65 74 89 95 92 85 93 87
68 76 84 88 83 82 67 52 32 24 28 32 27 23 20 26 25 25 27 30 24 22 27 36 42 50 56 64 64 69 70 72 76 83 88 90 88 88 73 65 69 78 86 92 88 87 93
64 67 79 86 90 88 81 63 38 26 28 33 28 23 20 27 26 26 27 31 24 28 30 37 42 50 54 55 58 65 63 68 74 80 79 80 79 80 77 67 77 70 83 83 86 86 93
63 67 72 84 92 94 91 68 48 28 28 35 29 24 21 27 27 26 28 28 26 27 29 35 42 49 48 52 56 61 61 58 61 62 64 65 71 71 74 67 71 71 80 92 88 89 87
54 65 70 77 91 94 92 84 55 31 27 36 32 26 22 28 28 27 29 29 34 29 31 37 41 43 45 50 53 55 59 56 53 53 58 61 69 72 66 59 51 56 68 78 77 84 83
58 60 69 71 84 93 95 91 59 33 28 37 34 27 24 29 29 29 31 29 33 30 35 35 40 42 43 47 49 53 61 56 51 61 59 58 61 64 67 67 65 64 63 64 76 77 86
47 61 64 73 80 91 91 95 68 39 27 38 35 29 27 30 30 31 32 33 35 37 38 39 39 38 41 44 45 48 64 58 59 62 64 66 66 67 63 65 65 64 69 69 74 76 85
36 54 62 80 75 91 90 97 79 42 30 38 35 30 30 30 33 34 35 32 36 41 41 39 40 37 38 46 44 44 52 64 60 67 68 68 71 72 72 67 63 72 71 74 75 75 88
30 34 56 76 89 81 96 98 84 47 28 37 33 33 34 32 34 36 36 35 33 42 48 40 41 37 41 42 44 45 46 55 62 72 69 68 73 73 71 70 74 73 68 71 81 78 75
25 31 45 67 88 81 92 94 88 53 26 37 33 37 38 34 35 36 36 35 37 50 43 46 43 42 44 45 45 47 46 51 56 62 69 75 73 74 73 71 73 74 80 77 80 84 92
22 27 35 66 88 73 95 98 86 57 26 36 34 41 40 35 38 35 36 40 47 42 42 42 44 46 41 43 44 48 55 59 64 63 68 74 72 75 72 72 74 74 82 95 95 96 83
23 26 31 62 96 72 82 99 94 62 29 35 37 43 41 37 38 36 40 46 39 39 44 38 40 39 43 42 45 50 51 63 64 70 78 82 74 75 74 73 80 80 84 90 85 87 71
30 24 40 52 91 85 82 99 96 63 32 36 44 45 41 40 38 36 43 47 36 42 38 40 41 43 44 42 43 49 48 49 56 69 81 88 81 76 76 77 76 79 83 79 84 83 82
35 26 49 50 86 91 80 99 96 61 34 38 48 46 40 42 38 42 44 41 35 34 34 36 40 40 41 43 48 54 48 45 51 62 75 80 86 78 79 82 82 80 80 84 91 91 81
39 33 49 59 88 87 87 97 95 68 33 38 55 51 45 44 43 44 42 44 35 31 32 36 38 37 35 34 45 48 49 46 49 57 72 84 94 90 90 84 81 90 91 85 80 80 80
46 40 58 72 92 76 92 99 93 59 33 43 59 58 49 47 46 45 42 34 31 33 33 35 35 35 36 33 33 36 44 47 54 57 84 93 97 96 96 90 87 84 89 87 90 81 74
47 63 57 83 97 87 80 98 94 57 32 42 65 66 53 48 52 44 38 32 33 36 37 38 38 36 35 38 43 36 38 53 59 61 88 92 97 96 99 97 97 98 90 89 89 88 82
64 76 59 83 74 86 95 97 87 52 31 41 63 57 54 50 51 43 41 37 39 37 38 41 39 36 35 37 38 44 42 45 45 54 69 87 98 98 93 96 91 98 90 90 95 98 83
85 82 72 98 84 91 92 98 88 51 34 45 64 49 41 48 44 38 36 36 39 44 43 40 37 37 37 40 39 36 34 34 44 50 57 78 96 96 96 92 96 97 92 95 97 89 87
75 77 78 89 90 98 92 95 86 47 33 52 56 49 45 41 37 37 37 35 38 39 41 38 38 31 28 31 31 34 36 37 39 46 52 70 86 98 90 88 92 87 86 92 92 93 89
84 77 80 97 90 79 79 94 85 47 36 54 52 48 47 38 37 39 38 36 37 34 37 38 29 26 25 29 31 34 37 42 48 51 54 59 85 91 87 92 98 93 81 85 79 81 81
78 70 81 94 98 98 98 97 85 45 41 47 47 53 59 50 38 38 37 37 35 32 36 35 27 26 29 31 28 34 41 52 60 54 54 58 83 86 89 97 96 77 71 75 72 72 75
66 64 84 94 90 90 97 98 87 45 45 54 43 53 62 54 39 37 37 38 34 34 38 32 29 28 30 29 37 44 52 55 66 63 54 58 78 85 88 96 89 75 74 76 76 73 74
57 55 74 77 93 99 97 94 83 54 54 53 37 55 53 54 39 32 35 35 37 39 42 39 33 27 32 38 42 52 58 58 72 78 62 64 74 80 86 95 89 76 70 69 70 72 65
48 61 69 84 97 98 98 99 86 52 49 52 42 48 40 44 45 43 38 36 37 39 42 38 33 31 35 41 49 54 53 49 59 76 77 77 78 81 83 92 79 76 73 69 66 69 76
50 64 74 85 96 94 99 98 73 50 56 56 48 50 38 44 40 38 40 37 37 36 44 38 34 35 39 45 48 49 48 51 57 59 66 75 82 88 85 88 88 76 76 73 72 73 70
58 70 74 91 94 98 97 92 75 61 61 53 61 43 41 45 39 39 41 35 33 37 40 39 34 35 40 46 46 48 52 54 54 64 62 66 70 77 88 91 85 85 80 76 72 72 73

GFSGBSN_prec_cthk_096.txt.gz
RH
57 62 66 72 74 82 80 73 56 37 26 24 25 29 27 25 31 26 25 25 21 21 21 22 29 34 39 59 69 72 68 70 73 83 93 86 81 79 74 82 94 94 98 90 92 81 77
57 61 65 69 71 79 82 81 70 53 30 25 24 28 26 26 29 26 26 21 20 21 21 23 32 41 54 61 69 75 69 66 77 81 83 82 74 78 70 70 89 97 98 93 90 88 87
53 63 63 66 72 76 81 85 83 61 40 27 24 28 28 27 29 26 27 20 21 21 23 29 35 45 51 61 68 71 69 68 74 80 83 82 73 73 68 66 79 94 96 95 91 95 93
54 56 65 67 70 76 79 85 88 74 55 28 27 29 29 27 29 27 29 22 24 23 26 29 34 41 46 55 63 69 67 70 76 81 81 86 81 73 69 65 70 83 92 97 96 93 93
46 51 56 65 69 74 81 85 90 88 65 30 27 31 31 28 29 27 28 25 25 25 27 29 32 36 44 50 58 59 67 69 74 75 75 80 82 76 67 70 73 80 93 96 92 92 95
34 42 49 55 68 72 81 86 89 91 76 36 30 32 33 29 29 28 28 27 28 27 26 27 29 32 40 49 53 55 58 63 67 66 70 70 73 79 75 65 68 71 85 88 88 92 95
26 35 38 47 55 72 78 84 87 95 88 49 31 33 36 31 29 30 29 30 31 28 28 30 31 32 39 42 50 53 51 55 56 56 64 67 66 72 73 67 61 63 72 76 78 85 89
20 20 25 34 50 67 81 85 91 94 90 63 33 34 38 32 30 32 30 31 32 30 32 31 29 32 37 42 46 49 51 50 51 59 59 61 62 67 63 60 59 59 57 65 70 74 76
19 16 12 21 35 53 75 84 97 94 93 72 33 33 40 34 32 34 33 32 36 35 35 35 33 31 35 37 43 47 52 50 55 63 58 58 62 61 62 62 61 54 53 54 60 72 79
20 18 14 11 23 39 68 81 99 96 94 79 32 36 42 36 34 37 36 35 37 43 38 35 35 31 32 37 37 42 53 54 56 60 62 62 58 61 61 66 66 69 64 57 63 75 87
26 24 21 13 14 22 56 91 97 99 96 80 36 33 40 38 37 40 41 35 38 42 37 37 37 35 36 35 38 38 44 51 53 57 60 63 67 70 67 67 66 64 66 67 67 76 74
27 31 26 20 16 20 33 95 86 97 98 83 37 32 41 45 38 42 44 38 39 48 32 42 42 40 39 38 37 39 41 41 49 53 63 69 69 72 74 74 71 69 71 73 88 86 91
38 36 32 24 14 19 26 77 99 99 95 80 37 32 42 46 40 43 42 40 50 40 39 38 41 41 40 38 41 43 42 47 52 58 62 70 71 73 79 78 78 78 92 95 95 97 90
52 46 39 31 18 18 22 68 99 94 98 77 40 34 45 47 42 49 42 49 35 36 43 36 39 38 42 40 40 42 41 47 50 59 72 76 72 74 75 75 76 80 87 94 85 87 81
64 55 41 35 26 23 23 63 99 95 98 82 44 40 50 50 41 52 45 53 30 38 37 40 43 44 44 42 38 45 47 46 45 55 71 79 71 66 74 76 77 80 85 80 89 84 82
77 65 38 31 32 27 27 71 89 99 97 85 49 42 48 54 45 56 48 41 35 35 34 36 40 41 41 42 40 47 49 42 48 50 57 70 84 77 79 83 83 80 80 94 97 97 87
90 72 41 41 34 29 38 78 95 93 98 78 44 48 53 56 49 59 50 40 37 33 33 35 39 41 40 39 41 47 50 46 54 56 60 66 85 86 92 89 85 89 90 86 82 84 86
83 64 42 43 39 39 51 80 99 99 94 76 53 58 60 62 55 61 46 40 33 35 35 37 37 39 38 34 36 44 46 48 52 58 65 74 90 93 86 87 89 86 87 85 89 82 80
68 60 44 45 44 45 64 92 98 98 94 82 55 60 67 65 59 56 43 34 36 39 39 39 39 39 37 36 36 37 37 45 50 59 69 80 97 97 93 96 95 94 87 84 85 86 82
56 72 62 48 49 62 79 95 95 97 94 75 52 60 71 67 57 54 42 39 41 40 42 43 44 41 38 36 38 40 38 42 45 48 51 66 87 94 97 97 97 97 97 90 92 95 81
64 68 64 70 64 69 91 97 98 96 90 64 52 49 67 61 54 52 42 40 42 46 44 45 45 35 31 33 34 36 35 38 40 41 45 62 75 87 86 89 98 98 96 96 98 92 88
80 87 84 72 75 88 98 96 96 98 85 58 46 55 54 56 39 52 41 38 36 39 40 45 41 31 29 30 29 30 32 36 43 53 52 58 62 68 71 81 89 87 89 94 98 96 86
86 89 83 78 77 94 98 89 91 90 80 55 48 53 49 49 47 43 39 37 37 34 34 40 34 28 25 25 28 29 33 37 50 59 52 55 66 68 69 80 89 82 78 84 86 87 87
80 78 80 80 93 95 93 94 99 96 67 46 46 54 49 45 47 35 39 39 41 34 34 40 31 26 25 29 27 33 40 46 56 58 50 53 61 84 81 91 95 81 77 73 74 76 78
72 75 75 76 91 91 94 98 98 93 75 49 48 52 55 57 52 38 39 40 40 36 37 39 35 28 27 28 35 42 50 52 64 61 51 54 65 80 87 94 88 75 74 82 83 77 69
59 57 63 85 89 89 96 97 97 94 73 54 50 50 57 57 59 44 40 37 38 40 42 42 35 27 29 36 39 49 52 53 61 66 54 66 68 71 78 86 84 80 74 73 75 75 73
53 56 66 82 89 92 97 98 94 92 77 56 49 53 63 68 56 47 36 37 38 39 43 45 35 31 33 38 47 50 49 46 52 60 66 62 66 73 74 80 83 83 76 70 69 72 77
51 61 65 79 94 90 93 95 97 94 79 57 49 62 68 64 60 54 45 41 40 34 37 42 38 33 36 41 45 46 47 48 53 53 59 61 69 75 78 86 84 82 77 80 80 77 72
47 51 62 75 81 93 98 98 98 93 77 57 56 59 58 57 50 48 44 37 36 32 36 41 35 32 35 41 43 45 48 49 49 55 53 63 64 66 73 71 80 82 84 83 83 81 80

GFSGBSN_prec_cthk_099.txt.gz
RH
48 51 52 59 61 63 66 70 77 86 81 60 37 33 26 22 30 30 30 24 21 20 19 22 28 32 41 49 56 57 60 67 79 87 96 89 90 73 69 86 97 98 97 97 89 79 72
41 44 48 52 56 63 62 66 76 85 89 76 47 34 28 25 31 30 31 23 20 20 22 27 30 34 44 50 57 57 57 65 74 82 89 73 80 77 78 92 95 96 95 95 95 83 79
37 39 43 47 53 57 65 64 76 82 89 88 59 35 30 29 34 31 32 24 21 22 24 27 30 33 42 47 56 61 58 64 68 85 86 72 76 73 86 87 89 93 97 92 91 86 81
28 31 38 42 48 55 58 67 65 83 91 92 76 41 32 29 38 33 32 25 23 24 27 28 29 32 38 47 51 57 64 68 73 78 76 71 71 73 78 84 87 88 96 99 96 91 84
25 25 22 25 38 46 55 61 65 74 88 93 84 51 32 31 40 36 32 26 26 26 28 28 28 30 35 44 52 58 61 63 62 63 68 72 69 69 68 79 81 81 97 97 96 96 89
24 23 21 19 19 31 47 60 62 66 92 95 88 68 35 31 42 37 32 28 30 27 27 27 27 28 34 39 44 51 56 58 55 55 59 70 69 66 68 66 70 76 81 88 93 96 96
27 28 24 17 16 19 27 44 60 62 75 96 92 78 47 32 47 37 32 31 31 29 29 29 29 30 34 38 44 48 49 51 50 52 56 54 69 73 68 58 60 66 65 74 84 86 90
26 24 22 19 16 18 18 24 47 65 80 94 98 85 47 33 49 37 33 34 34 31 33 30 29 31 33 35 40 43 46 49 49 49 54 52 55 66 65 58 54 54 61 66 74 79 86
28 26 23 21 20 18 18 18 25 58 79 99 99 82 53 33 53 40 34 34 37 36 37 34 30 30 32 33 36 41 45 46 50 52 51 51 54 54 57 62 58 54 52 58 65 76 82
31 30 26 24 24 24 20 19 16 30 71 97 98 86 56 37 52 44 35 36 40 45 41 32 35 29 29 34 33 38 45 46 48 54 55 53 50 54 58 60 58 59 54 50 62 69 76
30 31 31 29 28 29 21 21 16 24 56 93 97 91 60 39 51 48 37 42 41 44 44 34 37 33 34 34 34 36 40 45 48 56 55 53 57 54 58 59 65 63 60 60 65 65 68
33 33 33 35 35 33 29 23 15 24 49 93 98 92 56 42 47 61 41 44 42 53 35 41 41 40 38 36 35 36 39 42 46 49 56 60 61 61 61 60 63 66 73 74 78 77 84
42 42 43 41 43 42 36 29 16 20 45 93 97 93 51 44 50 63 44 47 53 56 39 41 43 42 41 36 37 38 38 41 45 54 56 57 61 64 69 69 66 71 77 88 89 94 83
51 53 59 66 61 54 45 33 19 21 48 86 99 93 54 45 52 62 46 58 58 33 43 38 40 40 42 40 39 39 38 43 42 48 60 65 57 69 70 72 78 83 86 88 86 86 92
65 75 77 75 66 58 50 35 23 30 60 80 98 91 63 51 56 63 54 67 40 36 37 40 44 46 44 42 40 43 45 43 42 48 57 69 64 60 70 79 82 87 91 85 98 86 81
82 88 84 84 74 61 55 38 28 38 62 82 98 97 64 56 62 66 59 64 35 36 37 38 38 43 45 44 41 44 42 39 43 45 50 57 70 68 74 82 88 87 86 94 94 97 94
90 92 93 97 91 65 41 39 30 46 69 96 99 98 73 59 70 69 66 58 34 35 36 39 40 44 43 41 43 44 44 42 50 54 57 60 71 71 89 87 85 92 90 84 87 91 86
94 95 98 98 81 61 38 36 34 61 75 97 98 97 71 60 72 67 66 52 33 34 37 39 39 40 41 38 36 45 47 49 53 53 56 59 75 82 79 88 91 91 89 88 92 90 83
96 95 92 92 71 54 36 37 43 62 82 98 98 91 72 67 72 72 60 46 33 37 41 41 40 39 40 37 34 37 40 38 40 49 59 65 84 87 90 89 93 98 93 90 92 89 84
80 83 75 67 69 55 39 41 59 75 93 97 98 86 76 77 70 71 60 36 34 42 45 45 47 47 40 37 33 35 37 39 42 48 50 52 65 80 88 93 97 98 98 92 94 98 77
51 53 66 67 82 51 45 57 68 88 95 97 97 80 63 76 69 74 49 44 42 49 48 48 51 46 37 35 33 36 36 38 38 39 45 50 55 61 75 85 90 91 95 95 97 87 85
57 86 94 97 90 69 69 68 83 92 98 99 94 72 57 71 59 67 51 41 45 45 42 42 46 36 32 31 29 31 31 31 34 46 52 57 57 64 59 68 81 88 88 91 96 97 93
59 78 99 96 87 82 82 80 86 93 98 96 92 57 56 66 68 59 52 38 42 40 39 37 43 33 28 24 26 28 29 32 40 50 52 52 58 66 65 68 85 84 81 82 80 89 93
55 70 77 86 86 81 78 84 91 95 95 97 82 55 57 57 61 46 51 40 43 40 39 39 40 31 26 27 27 30 35 40 47 52 45 51 59 74 73 75 84 78 79 78 75 81 87
48 67 70 78 80 81 86 89 92 97 98 95 70 53 56 64 47 51 44 42 44 41 39 41 41 31 26 27 36 44 49 48 54 56 48 49 59 71 78 81 82 78 79 80 86 80 80
43 60 75 74 65 80 85 92 95 96 98 90 59 60 52 51 48 52 44 40 42 43 43 44 44 31 27 35 39 47 49 48 57 60 52 55 58 65 70 80 80 80 80 73 78 84 85
40 50 62 63 58 79 92 98 97 98 93 80 55 61 58 60 65 62 51 40 40 42 45 43 41 36 31 36 46 49 47 43 54 55 56 51 55 62 68 72 64 78 80 75 78 80 90
37 39 49 60 69 88 97 94 92 98 96 72 52 60 65 67 67 62 46 41 40 44 42 39 40 36 33 38 44 45 45 44 47 48 52 55 59 62 65 72 70 74 77 83 89 87 90
34 34 41 50 72 93 96 97 98 98 94 68 55 56 65 70 77 66 54 48 43 39 37 38 37 34 29 36 41 44 46 47 45 48 47 55 51 57 61 56 64 69 75 82 86 87 87

GFSGBSN_prec_cthk_102.txt.gz
RH
30 36 36 40 44 49 54 57 65 63 64 75 78 80 62 35 28 33 38 41 25 21 20 24 28 32 37 40 45 51 53 63 77 77 82 90 87 83 75 59 63 87 95 97 98 91 78
27 25 26 32 39 43 46 53 62 64 63 71 77 83 74 44 33 35 37 43 25 21 23 27 28 30 36 42 48 54 58 66 76 82 79 93 94 85 76 62 65 94 97 90 98 98 83
26 26 26 26 24 29 40 46 57 58 60 70 73 88 79 57 37 36 43 43 27 22 23 27 28 30 34 40 48 58 65 75 76 82 79 76 84 87 75 57 63 95 96 95 97 95 86
28 27 26 25 24 24 22 28 46 55 58 61 78 83 87 70 38 35 49 41 29 24 25 28 27 28 32 38 49 61 62 74 75 72 70 75 79 78 71 69 82 93 92 97 96 97 88
29 29 29 26 25 24 22 21 27 48 55 61 69 77 92 82 46 38 49 42 32 27 26 28 27 27 31 37 46 55 60 63 67 74 71 71 71 67 65 72 82 91 95 96 96 96 90
33 32 32 31 29 26 24 21 20 21 47 55 64 77 87 90 58 44 54 42 33 30 26 27 28 26 27 32 40 48 53 56 60 60 65 67 63 66 62 64 80 83 84 85 89 95 92
41 42 40 35 32 29 24 22 20 18 22 48 63 61 89 94 66 42 60 39 34 31 29 30 30 28 29 33 35 41 46 48 49 53 56 55 63 65 65 68 66 67 73 76 79 90 89
41 40 41 41 37 31 24 21 20 18 17 26 55 69 89 90 70 45 62 41 36 32 33 29 29 30 31 32 33 37 40 43 44 47 52 55 65 63 64 60 60 70 75 77 81 82 85
37 35 37 36 34 28 25 24 22 15 12 20 32 71 81 95 80 46 66 45 37 37 37 33 30 30 31 33 33 35 35 38 43 46 47 51 53 54 57 61 61 62 66 66 67 79 83
41 41 38 34 30 28 28 29 27 20 17 23 32 61 93 94 76 49 66 50 40 43 47 32 34 31 30 32 32 35 37 40 40 47 49 49 49 51 53 54 56 61 59 57 64 68 74
43 43 40 38 38 34 37 37 33 27 20 23 43 53 89 97 76 52 62 56 46 42 59 33 36 33 35 34 31 33 35 37 39 42 46 47 53 53 51 52 55 57 58 60 65 67 70
43 43 38 40 45 46 48 44 39 31 23 22 41 48 84 98 78 54 70 59 55 53 54 44 41 39 38 36 33 34 33 35 39 40 41 44 50 56 55 54 56 58 61 65 73 73 77
43 40 40 48 64 62 62 61 46 33 25 23 37 56 74 97 69 54 77 63 65 61 38 47 46 44 41 38 36 38 34 36 37 41 45 42 42 48 56 63 63 63 70 85 90 90 81
42 42 48 60 72 73 75 73 62 38 35 29 41 54 68 96 72 56 79 69 73 37 42 41 45 45 45 41 40 41 40 42 40 42 51 54 46 47 54 63 72 77 74 80 81 86 82
42 48 65 77 83 86 83 80 66 45 42 69 58 61 68 96 71 64 80 77 60 37 37 44 46 47 48 44 40 44 42 42 41 45 49 60 57 50 56 72 77 84 92 83 87 82 84
50 62 81 88 91 94 93 90 72 49 45 77 69 72 86 94 68 66 85 72 64 34 37 41 38 43 46 48 44 44 40 40 44 47 48 54 64 52 65 71 84 88 86 97 98 97 96
60 77 92 95 94 96 95 89 72 52 45 72 68 72 87 96 72 72 86 75 60 36 35 37 40 47 44 47 46 45 40 41 48 49 54 59 66 59 71 86 87 95 98 95 93 91 88
72 92 86 88 96 96 95 90 62 50 52 81 70 84 90 95 79 80 83 73 56 36 36 37 40 42 45 43 44 44 43 42 46 49 51 53 67 70 66 75 89 93 98 98 95 94 84
85 76 59 73 86 86 90 76 52 44 59 82 69 88 93 97 82 78 81 72 53 37 36 40 43 42 43 42 35 38 39 38 42 46 52 56 71 75 65 84 86 96 98 95 99 87 86
87 54 60 61 74 78 77 71 48 44 70 80 81 90 97 98 80 77 81 66 50 38 38 44 47 48 47 39 34 35 37 38 39 42 43 46 58 61 66 75 90 88 88 91 99 98 92
83 55 66 85 94 91 64 55 42 52 75 80 87 94 92 89 73 81 79 64 45 40 47 50 51 51 46 39 33 37 34 35 38 38 39 46 55 56 53 58 80 86 82 82 95 92 94
83 56 57 79 98 99 88 62 56 70 77 84 88 93 95 74 81 80 84 59 46 48 46 47 45 47 38 33 28 31 31 29 30 37 46 53 55 54 52 51 63 75 79 82 83 90 86
86 63 52 66 86 91 79 88 84 73 78 80 85 88 81 79 85 79 70 52 47 45 42 41 43 42 33 29 27 27 27 30 35 43 48 48 51 64 64 57 66 80 83 80 81 85 90
88 62 52 65 84 96 96 96 89 84 80 84 93 86 80 74 80 69 52 55 48 41 41 42 42 40 32 26 28 29 32 37 41 47 42 49 58 65 69 68 68 76 82 84 85 86 83
84 56 56 64 85 84 90 88 76 64 79 92 93 90 64 66 72 62 54 53 51 43 42 42 43 40 31 29 36 42 47 45 50 51 45 45 55 62 67 72 71 79 86 84 95 93 88
79 53 49 61 69 78 89 87 76 81 87 95 96 87 60 66 68 50 59 54 48 46 44 45 45 43 33 33 35 45 48 47 50 52 47 50 53 57 61 69 72 78 86 84 84 95 92
77 56 44 54 61 71 84 91 84 91 95 96 95 70 62 62 64 51 51 48 44 42 46 47 45 42 35 35 42 45 44 43 51 52 49 46 51 54 57 62 52 61 77 83 88 83 95
73 57 38 46 50 60 84 82 94 97 97 97 83 66 68 65 50 50 54 48 42 42 45 47 43 43 40 37 40 44 44 45 45 45 47 49 52 52 58 61 59 60 67 78 90 92 93
68 54 36 41 46 55 77 87 94 97 97 95 71 67 66 60 65 67 68 51 44 43 41 44 36 40 33 33 37 40 43 46 43 47 44 53 45 52 52 50 52 57 61 65 73 83 92

GFSGBSN_prec_cthk_105.txt.gz
RH
28 29 27 27 26 23 22 27 37 46 51 52 57 81 68 71 70 56 41 37 46 47 25 24 27 30 35 37 38 42 54 73 78 83 95 89 82 91 88 72 67 63 68 92 91 98 96
32 31 30 29 28 27 25 21 16 30 44 50 52 67 85 83 77 72 40 39 52 44 25 25 28 30 35 39 41 49 69 77 82 82 89 93 82 87 83 73 61 56 65 80 81 92 92
34 33 32 31 29 28 27 26 23 22 29 42 46 55 55 72 80 78 48 36 53 35 26 26 27 29 33 37 42 51 66 71 74 78 77 82 86 82 72 66 60 50 72 73 94 92 92
39 38 36 35 33 30 27 27 28 25 21 27 40 53 52 75 68 82 72 35 54 46 29 28 28 29 30 36 43 48 56 62 70 76 71 73 77 76 73 65 64 59 84 98 90 94 94
47 44 42 42 40 34 32 33 30 28 24 20 32 38 56 68 67 77 70 44 59 53 31 28 27 28 31 34 40 47 50 54 62 68 74 67 73 71 69 70 73 73 85 91 85 89 97
47 44 43 42 41 42 41 33 33 24 21 16 24 33 42 52 71 73 67 53 59 53 33 31 28 30 28 36 38 44 51 52 55 56 64 62 65 69 64 65 64 68 77 85 83 89 97
48 46 44 43 41 40 40 39 27 18 14 14 23 27 39 42 67 69 69 54 63 51 35 29 27 29 30 37 37 41 44 50 51 53 58 57 66 71 64 62 60 63 68 77 74 83 97
47 46 47 45 42 40 37 37 29 22 15 12 18 22 26 42 62 62 74 60 63 53 37 32 28 29 31 35 36 40 42 46 48 52 49 55 64 58 62 61 59 65 64 69 69 85 90
47 44 41 45 45 42 39 37 35 27 21 16 16 31 24 31 62 71 81 65 68 55 44 38 32 29 31 32 33 37 41 43 44 46 51 49 50 53 55 57 59 62 62 66 69 81 83
41 38 36 36 41 41 40 43 47 38 30 22 18 39 43 44 70 77 65 61 72 59 51 40 36 32 30 32 31 34 38 42 45 48 47 47 48 48 49 52 51 57 57 61 70 79 84
40 38 36 35 37 38 43 53 59 52 41 29 20 33 46 45 66 89 72 67 76 57 56 38 39 35 36 34 31 32 33 35 41 44 45 46 50 48 49 48 50 50 56 61 68 70 71
39 36 36 38 40 39 53 64 68 67 52 33 21 26 47 51 71 94 73 66 73 71 53 45 42 39 39 36 33 32 30 31 34 37 39 42 46 49 52 54 56 57 61 66 70 70 79
42 41 40 40 43 51 66 70 79 77 67 43 24 29 47 57 84 88 73 72 81 82 43 46 48 44 42 40 37 37 34 33 34 34 38 35 39 47 54 59 61 66 68 79 80 79 70
47 44 45 45 56 69 76 83 91 88 71 45 42 33 49 58 70 86 70 85 87 72 44 41 46 46 45 42 41 40 37 36 36 38 46 49 41 46 55 63 71 77 75 76 78 79 75
49 48 51 58 70 85 91 96 97 96 78 44 81 60 53 71 63 84 70 86 79 61 40 44 46 47 48 45 42 42 40 38 38 41 41 50 49 47 54 62 75 82 92 86 89 78 71
52 52 61 69 67 70 84 97 97 97 82 50 89 77 71 77 72 87 70 82 80 59 42 43 40 44 47 48 45 43 40 38 40 43 44 48 58 51 57 62 75 89 92 99 97 97 89
55 56 68 52 51 49 77 96 98 96 77 55 86 79 83 79 86 87 76 82 80 64 42 42 39 45 43 48 46 46 39 40 44 45 47 52 61 56 53 68 80 88 95 96 96 91 85
54 62 68 54 59 55 86 91 97 92 71 59 71 81 82 78 90 90 72 81 80 60 44 41 39 43 45 47 49 44 40 39 41 46 46 49 57 60 54 65 75 89 99 99 95 94 85
54 63 74 63 69 66 72 88 87 73 60 68 87 86 76 87 88 92 69 81 79 60 42 40 41 44 45 46 42 39 38 36 40 44 48 48 62 63 49 60 73 83 88 92 98 97 86
52 61 76 67 76 86 90 75 72 62 59 63 90 82 81 88 90 90 73 83 78 51 39 40 45 48 49 47 38 36 37 36 35 40 41 42 52 55 59 52 70 82 78 85 91 97 97
53 62 76 68 60 86 99 94 66 61 54 85 89 80 80 90 94 93 79 83 65 48 42 50 53 51 50 44 35 36 33 33 35 37 38 40 49 55 53 53 53 67 75 81 83 85 97
51 63 79 67 57 75 98 75 54 57 60 83 85 79 83 90 95 84 82 83 64 47 53 52 49 51 47 34 26 31 31 31 28 33 40 44 46 54 55 50 48 65 66 70 72 72 81
44 61 75 66 59 72 91 77 86 79 62 74 77 87 90 93 86 81 77 73 56 50 47 44 47 47 45 34 29 28 28 28 32 38 43 43 51 59 58 56 55 67 75 81 79 78 77
42 57 70 67 66 75 85 90 94 86 73 66 73 91 93 89 77 78 79 73 56 50 44 45 45 44 41 30 27 29 31 35 40 45 38 45 52 55 61 62 62 77 77 85 87 85 85
40 55 65 57 58 68 77 87 91 88 78 69 83 91 86 79 80 76 69 63 58 51 47 46 45 43 38 32 37 43 47 45 48 47 43 41 49 54 57 60 57 69 77 81 83 90 91
35 51 61 53 54 60 74 81 84 71 58 57 70 90 86 71 75 67 65 61 58 51 47 45 45 43 40 34 36 45 47 46 45 46 46 45 47 48 53 60 59 58 65 72 80 91 96
32 46 55 51 48 55 64 77 76 65 55 62 85 89 87 67 73 71 60 62 59 49 46 46 47 46 41 40 41 43 41 42 48 46 43 44 44 49 53 55 44 46 59 66 81 80 93
32 42 48 46 43 51 59 71 70 74 76 82 87 93 78 67 72 66 58 58 53 44 43 46 47 45 45 41 40 42 42 44 44 42 42 43 48 48 50 55 50 50 56 60 66 77 88
31 40 43 43 38 44 54 73 71 75 91 95 94 87 74 67 69 62 53 48 46 41 42 45 40 42 40 38 37 38 41 45 41 44 41 47 40 44 44 42 40 48 49 52 59 62 63

GFSGBSN_prec_cthk_108.txt.gz
RH
37 36 35 34 32 31 30 29 27 24 23 23 34 43 46 52 62 67 78 67 57 40 50 45 31 28 29 34 36 44 56 62 69 78 77 80 89 93 81 74 72 74 82 87 88 92 93
42 41 45 39 38 34 32 31 29 28 25 26 30 38 42 49 56 52 58 67 60 38 53 38 28 27 29 34 37 46 57 62 69 73 83 84 82 91 85 74 71 71 74 78 76 87 91
44 47 46 46 43 38 36 33 32 29 27 27 27 35 40 44 49 59 61 59 67 49 54 49 29 29 28 30 37 45 56 60 66 74 79 90 90 88 81 74 66 65 66 73 81 89 86
51 51 50 47 45 44 43 36 31 29 28 26 21 31 39 47 47 58 54 55 58 53 58 59 32 30 26 28 35 42 50 56 67 75 71 82 84 77 73 69 62 57 57 70 78 76 91
55 52 50 48 46 45 43 40 34 28 29 28 22 26 32 45 43 46 53 54 60 50 59 59 32 30 26 27 33 41 47 54 64 69 73 81 83 76 67 65 55 50 51 68 68 81 90
56 52 51 49 54 50 48 47 42 33 24 22 18 19 25 35 39 40 50 53 62 42 61 64 35 34 27 29 32 39 46 53 57 59 67 66 74 77 72 63 55 51 58 61 64 74 76
54 51 50 45 50 51 49 48 45 35 28 19 14 11 17 20 29 39 47 50 56 48 61 57 32 29 28 31 34 37 42 47 51 56 60 61 73 66 62 62 59 58 58 53 68 64 67
59 51 52 51 44 45 48 47 44 37 33 27 19 14 25 23 25 41 52 57 55 63 62 51 34 31 31 33 36 37 40 43 44 48 52 56 59 59 62 61 61 61 57 61 58 55 70
61 58 53 53 50 47 45 43 38 39 40 37 29 23 36 36 40 40 55 60 59 60 69 52 39 34 33 32 35 38 40 40 42 41 49 54 52 52 54 54 56 59 57 58 55 56 71
63 58 57 54 48 46 42 39 40 48 52 54 43 29 38 43 44 50 54 65 66 52 70 52 43 39 35 35 33 37 39 41 42 45 44 44 45 49 51 49 47 51 53 55 57 60 76
61 59 59 55 50 42 41 44 49 62 63 65 59 37 24 44 49 57 69 71 64 57 70 46 47 39 37 36 34 36 36 37 34 38 41 42 45 45 47 48 50 52 52 50 54 57 61
63 60 55 52 50 52 53 62 71 78 74 74 70 44 26 35 53 56 77 63 60 75 71 48 45 40 39 36 35 36 34 34 33 35 35 38 41 47 49 51 55 55 56 60 62 62 59
64 59 59 57 58 61 63 70 84 87 92 92 75 49 33 36 56 56 77 66 74 87 58 48 48 44 39 39 37 37 34 32 30 34 40 36 35 40 49 54 55 60 66 73 71 74 55
65 65 61 62 67 51 45 51 76 95 98 96 69 62 35 37 61 79 75 77 81 88 65 44 49 47 43 41 41 42 38 32 33 33 38 42 41 42 50 57 65 70 73 74 69 64 54
68 64 62 69 56 42 49 50 78 97 98 91 68 82 52 64 78 91 84 80 78 82 49 45 48 45 46 45 43 44 39 34 35 35 36 39 42 40 45 53 62 88 83 81 81 70 65
71 66 63 74 51 53 58 69 84 93 98 83 72 85 63 68 73 80 85 75 83 69 46 46 44 43 38 44 43 41 36 37 38 38 39 40 51 48 50 52 62 82 89 98 95 92 74
66 65 63 74 58 64 61 74 85 90 87 66 76 88 93 96 88 74 81 79 80 73 54 44 43 42 39 44 43 42 36 40 41 42 42 45 50 48 49 54 64 70 85 94 98 91 72
66 64 61 74 69 76 67 70 83 82 73 64 81 93 92 83 74 76 76 77 78 72 56 46 40 42 42 45 46 42 36 35 39 44 44 45 49 52 43 50 64 77 92 93 95 92 93
65 62 61 79 77 61 81 85 76 76 70 64 84 94 93 85 81 84 80 75 82 69 47 42 42 43 46 46 43 38 35 34 39 44 43 41 52 50 41 54 57 76 83 85 90 95 87
63 60 61 78 82 63 79 92 81 66 56 52 89 92 87 84 88 95 78 80 79 65 42 41 44 46 47 47 38 33 33 33 34 38 37 38 49 51 46 51 55 68 70 75 84 92 93
64 59 55 78 76 70 76 93 79 62 53 51 87 87 83 79 89 92 76 83 75 59 43 44 51 49 47 45 34 33 30 32 32 32 32 33 40 45 40 41 42 55 61 61 76 76 83
65 53 52 76 67 80 74 90 66 54 53 59 83 84 88 93 94 94 86 83 69 50 44 54 50 52 48 34 25 26 28 29 25 28 33 38 46 49 47 45 47 48 52 58 66 66 70
61 47 50 70 65 76 75 87 74 60 58 63 69 80 92 93 96 93 82 80 66 45 48 46 49 48 48 38 29 27 27 26 28 33 35 37 44 49 46 45 57 62 64 73 79 77 80
57 42 45 58 63 59 63 77 82 76 62 61 70 80 89 88 91 83 82 73 65 57 43 47 46 45 44 35 27 27 28 31 35 39 33 37 42 45 47 51 56 59 62 74 77 83 83
54 39 37 55 55 58 55 60 74 72 71 65 69 74 84 78 79 80 80 71 70 55 47 46 46 44 42 35 32 37 40 41 41 41 37 37 39 43 46 42 46 56 62 64 66 81 88
49 34 35 49 47 47 54 52 54 59 57 62 68 80 86 76 71 74 74 68 63 51 47 44 44 43 42 35 33 36 33 38 41 44 41 40 39 41 42 43 38 47 52 59 63 66 79
44 33 35 43 44 40 45 54 56 58 55 61 68 74 85 76 68 70 66 63 59 53 45 44 45 46 42 39 34 33 31 37 38 38 39 41 40 39 38 40 30 34 45 52 63 59 71
41 33 34 42 41 38 42 46 57 56 53 55 55 71 80 74 70 66 68 63 63 56 44 45 44 44 45 43 37 34 33 35 37 35 36 32 35 36 38 45 36 35 46 47 46 47 55
39 33 36 42 40 37 40 48 55 55 57 58 61 75 78 73 68 67 64 61 59 53 43 43 39 41 40 40 39 34 32 38 35 28 35 35 30 31 32 28 31 38 39 41 45 49 51

GFSGBSN_prec_cthk_111.txt.gz
RH
49 49 46 46 48 44 40 37 34 33 32 32 31 29 35 42 45 54 56 50 44 51 68 40 42 46 33 29 29 33 41 49 54 62 69 74 84 88 92 81 73 74 85 83 86 82 83
53 52 52 51 49 49 45 39 35 33 33 31 29 26 28 39 52 50 53 53 51 48 51 44 48 57 40 28 27 33 41 52 56 63 70 76 85 91 89 81 78 75 78 80 81 75 83
54 57 56 56 53 50 47 44 41 34 28 30 29 26 26 33 43 52 52 57 53 43 49 48 53 59 46 27 27 33 41 51 56 67 70 81 83 89 86 75 71 76 73 76 76 78 78
55 59 59 57 54 55 55 54 49 42 35 29 29 26 17 26 38 50 49 57 53 44 45 45 58 64 37 24 28 34 42 50 56 64 68 77 88 88 85 75 70 69 71 77 71 72 71
56 56 55 52 51 53 58 58 56 51 46 38 30 24 15 19 28 36 45 52 55 46 54 42 58 63 37 26 28 37 42 46 56 63 69 78 84 81 72 73 68 59 58 65 55 63 72
62 58 55 51 54 52 50 56 56 59 57 49 39 27 15 14 18 28 38 50 43 44 54 43 61 64 33 28 30 35 40 43 51 61 67 69 75 77 71 79 89 66 56 64 65 70 66
63 60 58 56 52 55 55 56 56 58 62 54 45 32 18 28 27 23 30 42 49 52 51 43 59 57 30 28 30 35 38 43 49 53 62 64 75 75 62 60 58 59 58 55 52 60 61
70 62 61 58 59 58 56 54 58 56 52 50 49 42 26 44 41 34 38 48 49 52 50 51 58 51 33 29 32 34 36 42 44 48 55 56 62 64 60 63 63 59 54 53 57 52 53
67 64 62 64 61 58 59 62 59 55 57 49 59 60 47 34 48 51 45 51 52 58 53 59 62 51 40 31 33 35 36 39 40 43 48 53 63 51 54 58 57 58 62 58 56 58 52
68 68 66 66 63 60 62 63 63 65 68 69 68 79 64 32 41 55 56 44 50 67 64 59 63 56 39 34 34 33 37 39 39 42 43 41 44 46 51 55 57 59 54 55 56 58 58
74 72 69 66 65 64 67 66 62 65 79 85 85 90 77 37 44 62 68 55 68 65 68 58 59 47 40 37 35 35 36 37 38 38 42 45 41 45 44 47 53 58 56 53 51 52 53
77 74 70 67 65 67 68 48 44 55 66 93 95 98 86 42 38 58 69 66 78 73 69 65 50 44 40 35 35 34 33 33 33 32 32 32 35 40 45 47 46 50 53 55 57 55 56
81 76 68 69 68 71 51 48 59 50 78 97 98 99 80 44 45 61 74 73 80 81 60 61 50 42 38 39 37 36 35 35 35 40 46 36 34 34 40 47 49 52 63 81 77 72 56
83 76 68 66 68 68 53 60 71 73 93 98 99 86 59 47 55 62 75 71 84 74 69 49 47 41 42 39 39 40 40 39 34 33 40 39 47 37 41 50 65 78 79 85 87 75 56
85 83 69 65 67 69 62 68 72 81 92 96 86 89 76 45 66 85 86 85 81 86 57 45 43 43 46 41 42 41 36 31 34 33 35 39 40 36 41 44 54 75 81 80 85 69 61
89 85 67 65 69 69 69 63 72 79 85 83 82 87 67 93 92 98 85 86 84 65 51 45 38 41 42 43 39 37 32 33 37 33 33 42 48 43 44 43 61 68 86 89 83 85 69
89 89 65 62 70 73 60 77 69 76 74 72 88 87 74 76 90 95 88 87 84 63 51 43 36 38 37 40 39 36 32 34 35 37 35 39 47 48 44 52 55 69 83 86 96 91 94
90 90 63 56 73 81 62 72 75 64 70 68 88 96 98 95 87 86 90 87 81 72 52 43 35 37 41 41 42 37 33 31 35 39 42 42 43 50 40 40 52 65 73 82 84 96 82
90 90 58 50 76 76 70 66 75 65 65 73 92 98 98 94 89 85 80 87 83 71 55 39 38 40 42 45 41 35 30 32 36 39 41 38 47 50 46 55 53 59 68 71 86 90 86
88 88 53 49 70 77 73 69 65 59 62 63 92 92 87 87 90 87 78 79 84 70 50 38 39 43 46 44 34 31 31 31 32 35 34 37 46 46 41 47 48 57 57 59 76 86 81
87 84 48 49 58 69 71 73 60 56 54 53 82 90 88 87 90 88 83 84 80 63 44 38 48 49 46 41 32 29 28 31 30 30 30 33 41 39 39 39 40 45 50 52 65 69 75
86 80 46 45 58 66 79 75 51 51 49 52 78 81 77 87 91 86 86 86 75 53 40 51 50 51 46 34 27 23 26 28 24 27 33 34 46 44 45 41 44 44 44 45 53 61 62
82 74 43 38 50 60 68 59 54 50 48 55 64 70 81 87 91 88 84 80 68 43 46 46 48 49 45 37 30 26 25 26 27 31 33 34 41 48 42 40 54 57 53 57 62 63 67
79 72 42 30 44 49 54 54 52 45 48 48 60 70 83 88 85 86 79 70 62 47 44 45 44 44 41 32 26 26 27 28 31 33 30 33 38 41 42 49 55 49 50 58 60 64 70
75 68 40 24 41 41 42 46 46 51 51 45 57 65 75 75 75 76 75 68 61 53 46 45 43 42 38 34 31 32 39 38 36 35 33 31 35 40 41 34 34 42 48 52 53 58 67
71 66 39 22 39 35 42 41 43 44 49 54 58 64 70 75 66 68 68 65 64 53 46 43 43 42 38 33 30 36 30 35 37 38 35 32 31 37 40 38 33 35 42 46 48 53 58
72 63 40 21 33 34 36 41 42 46 48 52 56 62 73 72 62 62 63 60 57 51 44 41 41 40 38 37 33 32 27 31 34 33 33 37 36 38 32 35 25 30 35 40 52 56 53
73 65 41 24 31 31 30 37 41 52 51 49 52 62 69 68 66 61 59 57 54 52 45 42 40 39 39 40 36 31 28 30 30 28 29 29 33 33 31 37 34 27 35 39 42 41 44
73 66 40 28 29 33 29 34 44 54 52 53 53 56 66 68 65 61 56 57 54 57 52 43 38 35 37 38 38 35 32 32 29 25 29 30 25 30 26 27 27 27 33 33 35 38 43

GFSGBSN_prec_cthk_114.txt.gz
RH
54 55 58 61 61 59 57 52 47 43 39 38 35 35 34 31 32 44 50 57 63 60 52 44 42 40 40 59 52 32 30 36 44 49 57 64 67 75 81 86 90 87 70 78 80 85 85
57 59 62 63 62 61 58 57 56 52 45 45 41 36 32 22 31 39 49 62 52 60 52 45 47 38 49 65 54 32 32 38 46 52 60 65 69 79 82 89 87 85 81 75 79 79 78
60 60 61 61 56 53 54 54 59 61 60 57 49 41 31 25 23 36 45 43 58 63 52 47 41 37 54 57 38 31 33 40 48 52 60 68 68 82 84 78 70 71 86 78 77 72 73
63 63 62 61 62 55 58 57 58 61 63 63 58 51 39 30 21 27 35 48 55 54 55 49 42 42 58 58 32 30 35 43 48 54 59 66 75 74 79 76 73 65 71 81 75 74 75
68 66 63 66 64 58 57 58 56 58 61 70 71 64 50 37 26 22 30 34 48 52 53 49 52 50 57 52 30 32 36 43 47 54 64 68 68 75 71 73 75 70 75 80 74 70 68
73 71 67 66 62 63 64 63 63 63 65 65 69 68 62 42 32 29 27 32 40 48 45 46 59 51 54 55 35 32 36 39 46 55 61 68 68 71 69 77 90 87 88 79 77 72 71
76 70 71 68 69 69 67 64 69 69 65 64 65 61 71 54 33 43 37 31 40 44 42 52 50 48 58 44 31 32 35 38 46 53 58 65 73 85 82 67 64 69 67 67 62 64 62
73 74 75 71 75 71 69 73 72 73 69 65 65 64 69 64 36 50 50 39 45 53 52 56 49 55 58 40 36 34 32 37 45 48 53 58 62 65 69 60 68 68 70 72 71 66 62
77 76 78 74 76 74 74 79 72 64 59 71 79 91 88 83 52 46 58 55 52 59 49 54 60 64 56 42 37 36 34 37 37 40 45 48 49 53 55 56 64 66 75 70 73 62 59
80 80 80 78 77 75 78 68 54 58 60 59 69 94 96 97 57 51 59 54 59 57 74 60 60 64 54 41 35 32 32 32 34 37 40 41 41 45 46 50 56 60 68 60 54 61 82
84 86 85 79 77 78 70 58 63 72 80 65 76 96 97 98 46 58 65 63 54 66 79 63 61 59 51 43 36 34 31 32 31 33 37 40 43 44 45 52 51 53 55 62 53 59 60
86 88 89 79 77 73 70 64 74 78 86 89 94 97 98 86 44 58 78 68 75 80 82 65 59 51 41 36 33 31 29 28 28 29 32 33 29 34 40 37 42 44 46 51 58 64 70
87 90 89 81 71 69 69 70 77 84 91 95 97 98 97 66 51 72 74 83 88 88 58 68 55 44 43 36 34 33 32 35 32 40 47 39 37 39 42 44 48 68 64 86 91 85 76
90 91 89 79 70 69 67 71 74 80 87 89 88 84 79 46 46 79 82 95 91 72 62 62 49 42 40 37 38 36 36 39 34 34 47 48 52 42 36 46 54 71 86 97 96 96 93
89 90 89 76 60 74 67 61 66 77 75 83 90 96 62 52 49 73 91 98 93 77 60 55 46 43 43 38 42 41 32 33 33 34 38 52 40 41 43 39 54 70 87 85 96 77 76
88 88 89 70 57 74 65 56 63 70 74 84 87 65 69 76 86 96 95 94 79 60 59 53 44 44 47 41 43 39 31 35 35 34 32 46 54 46 43 49 63 77 81 89 90 90 73
88 86 84 52 54 67 61 56 61 63 65 77 80 92 95 97 93 94 98 90 74 59 48 46 41 38 39 39 37 33 31 37 32 35 39 43 47 44 46 52 51 68 82 83 91 91 97
87 84 78 40 51 59 57 53 54 59 58 76 73 80 90 99 94 92 94 86 77 58 45 40 37 38 40 41 41 33 35 29 33 34 39 39 39 53 50 51 51 59 67 79 86 86 93
86 81 73 36 46 52 51 54 51 52 51 71 83 88 94 95 97 94 81 79 71 55 42 38 37 38 39 43 39 30 29 28 30 33 35 34 43 55 57 59 50 53 58 62 81 83 85
82 77 64 36 43 48 47 50 48 43 42 63 75 80 85 88 91 91 85 78 68 51 43 38 41 43 46 40 27 28 31 28 28 30 31 34 44 46 53 47 42 51 51 54 68 80 83
81 71 54 34 35 41 46 49 47 40 34 52 66 75 80 80 79 80 79 78 66 50 39 42 49 46 45 34 29 28 26 28 27 25 27 34 40 39 37 37 41 44 45 46 58 61 74
80 71 51 31 31 35 37 36 36 35 36 49 54 63 69 76 74 76 76 75 59 41 41 46 50 48 40 32 27 28 25 26 25 26 31 32 46 45 44 35 39 40 39 39 45 54 57
79 67 50 26 26 31 33 31 34 39 46 53 49 56 64 71 70 73 74 66 53 40 42 45 47 47 40 32 26 23 23 24 24 29 30 33 41 49 45 39 52 53 46 48 52 56 59
79 67 54 23 24 28 30 30 30 36 47 52 57 61 66 66 66 67 68 58 47 41 43 42 41 40 35 28 25 25 25 27 28 29 28 31 38 42 46 49 55 40 40 46 46 49 54
80 71 57 29 21 27 27 29 29 34 41 52 58 59 64 59 56 61 61 55 48 46 42 41 41 39 32 30 32 33 42 38 34 31 29 29 36 41 47 45 32 35 34 42 40 41 46
80 73 60 39 17 25 29 28 33 35 45 53 58 56 63 62 55 55 55 54 50 43 41 39 39 36 33 32 30 38 39 34 41 38 33 29 28 41 44 43 37 38 34 35 36 53 46
81 76 64 49 21 24 30 29 32 35 39 47 53 58 62 60 53 51 53 52 49 44 42 37 38 36 33 35 37 38 32 29 38 33 36 38 39 40 45 41 30 30 29 32 45 42 40
80 78 69 56 30 19 28 28 32 39 43 44 50 59 62 61 58 54 50 51 49 46 44 41 40 38 36 39 42 41 30 35 29 26 29 33 40 40 34 40 40 25 28 36 34 35 37
82 79 74 60 40 22 26 30 28 38 50 45 49 58 63 64 59 54 53 51 49 47 47 42 41 35 35 35 38 38 41 39 31 35 29 33 26 35 29 31 24 23 26 27 29 31 34

GFSGBSN_prec_cthk_117.txt.gz
RH
62 62 63 67 66 62 56 60 59 63 64 64 58 52 46 38 32 35 43 71 62 61 58 49 45 47 41 44 42 54 53 36 39 42 50 60 67 66 69 71 74 74 71 71 67 76 78
65 68 73 69 71 69 65 67 66 65 67 69 70 66 60 50 39 31 43 44 61 63 50 55 45 49 48 45 52 50 40 37 41 47 53 62 66 67 72 73 74 67 73 76 76 73 80
67 73 73 74 73 73 73 73 66 66 65 67 67 74 71 61 49 36 35 46 53 53 56 54 51 49 44 36 47 53 35 38 43 50 55 63 65 64 70 71 66 65 68 74 77 82 87
73 77 77 77 78 78 82 79 76 75 76 69 71 69 77 70 58 45 35 46 49 55 56 47 52 52 43 42 47 42 35 39 45 50 58 61 65 70 74 71 68 68 68 76 73 77 84
78 78 80 84 86 87 85 81 79 80 78 77 74 74 70 77 75 60 50 33 37 44 54 45 50 59 48 44 48 37 36 41 45 52 57 65 68 68 72 77 76 81 88 86 83 79 81
79 81 86 88 85 82 85 85 83 85 81 79 74 71 74 78 78 52 51 42 34 38 45 47 50 64 45 49 54 38 36 40 43 52 57 64 69 71 75 82 85 87 85 82 86 77 82
82 85 88 92 86 83 85 87 86 75 59 59 71 80 85 81 76 54 59 47 37 39 44 45 54 51 47 52 38 33 37 41 46 49 55 58 70 75 77 76 78 78 73 77 78 77 75
84 86 91 95 88 88 86 86 70 61 76 88 75 73 92 97 88 58 51 43 44 46 47 48 53 50 50 53 38 37 36 39 45 48 50 60 61 55 63 68 69 67 75 83 87 85 76
86 86 94 95 88 88 84 74 71 87 88 85 98 77 82 95 97 61 55 49 54 47 53 55 60 62 63 50 42 39 37 39 40 40 44 50 44 46 49 54 55 63 71 76 74 69 64
88 89 94 95 89 85 76 72 85 87 90 97 90 86 89 97 95 60 67 64 61 58 66 59 55 66 62 48 38 35 33 36 39 40 39 38 46 48 50 52 59 60 63 64 65 63 63
88 91 93 95 84 74 73 68 82 84 93 97 96 96 98 98 69 67 64 56 54 68 71 63 61 66 56 44 38 36 32 34 32 30 30 32 34 36 37 41 51 53 51 56 60 63 55
88 92 92 93 79 64 78 60 68 86 84 86 94 98 98 83 54 69 67 59 57 81 81 62 60 57 47 38 32 29 29 31 30 33 36 37 38 43 45 39 49 47 49 47 49 59 69
89 90 92 91 61 57 71 53 64 79 80 83 86 90 65 45 60 74 69 76 90 80 68 68 59 54 45 35 33 34 38 37 35 37 39 39 44 46 43 41 54 68 71 82 84 79 85
88 88 91 80 45 53 52 52 58 72 75 88 86 66 53 63 69 85 95 91 80 74 73 60 51 45 40 38 36 39 38 38 33 33 47 53 52 46 50 55 65 77 89 98 97 93 89
86 85 86 65 40 44 47 48 56 61 73 71 66 53 46 67 92 94 95 82 83 72 65 59 50 45 40 39 40 39 37 36 37 34 41 53 49 48 52 61 73 78 87 83 97 95 91
84 82 74 55 35 38 45 45 53 51 59 56 54 52 57 76 91 88 84 71 74 69 58 53 49 43 42 43 40 33 35 37 35 35 40 44 54 48 48 43 52 73 77 83 87 94 96
82 77 61 46 29 33 41 44 42 50 61 61 57 58 78 83 83 80 79 70 64 53 46 46 46 42 40 39 36 30 37 37 33 33 39 36 45 47 46 54 61 68 74 79 82 87 97
80 72 51 43 25 31 35 37 34 45 52 55 56 60 68 70 70 72 70 61 52 42 36 35 36 39 43 42 35 31 33 29 31 32 36 34 42 57 57 50 47 55 62 69 77 88 94
79 67 44 36 22 30 32 30 30 44 50 56 56 61 60 60 68 72 64 56 45 37 36 37 38 40 39 34 34 27 30 27 27 27 31 33 40 53 51 44 34 49 54 61 74 80 85
76 65 39 32 22 27 28 28 24 37 51 53 58 59 60 59 59 64 59 50 41 35 38 41 43 42 40 29 23 26 29 26 25 25 28 32 42 41 50 46 42 45 48 52 60 74 81
75 63 38 31 22 22 25 22 22 32 50 58 64 58 56 59 58 57 53 46 36 37 38 43 42 40 34 29 25 25 26 27 24 23 26 31 38 39 37 38 37 39 39 43 52 58 70
75 65 42 29 22 20 23 24 25 31 47 42 54 65 58 56 57 56 53 42 34 35 37 41 46 42 30 28 26 25 24 26 24 24 27 30 41 42 47 41 41 37 34 35 40 47 50
75 66 48 29 23 19 25 28 29 27 32 41 55 65 67 54 57 56 53 41 34 33 36 38 41 40 31 27 22 22 22 22 23 25 27 31 37 44 42 40 47 45 37 39 43 42 48
75 67 55 32 25 21 25 26 25 31 38 40 48 55 65 61 58 55 49 43 36 33 35 36 35 35 28 25 26 28 28 27 27 27 26 30 38 41 46 47 39 31 36 39 39 40 42
76 70 61 44 28 21 23 23 25 28 33 43 47 49 56 62 56 53 52 45 38 34 34 35 34 32 27 29 31 33 40 35 33 30 29 28 35 40 41 47 33 35 33 36 37 36 39
77 73 67 56 35 20 22 23 23 26 33 39 43 45 53 56 56 56 52 47 44 37 37 35 34 32 30 32 29 36 38 31 34 36 32 29 29 38 41 42 37 27 30 30 32 42 38
79 75 71 64 53 26 18 24 22 24 31 35 41 47 49 51 51 49 52 49 43 38 38 36 33 33 31 34 39 36 31 31 35 32 32 37 39 38 43 42 29 27 31 29 33 24 34
82 78 76 70 62 47 18 22 25 24 27 30 36 40 46 51 50 50 51 49 47 42 41 39 35 36 36 38 41 43 32 34 30 27 30 32 38 39 36 41 30 26 29 28 25 29 28
85 82 77 75 71 60 37 24 26 21 24 35 38 40 48 50 50 51 51 50 48 48 45 44 41 36 35 38 38 38 37 40 32 34 27 30 26 30 30 24 20 23 21 22 25 26 28

GFSGBSN_prec_cthk_123.txt.gz
RH
65 69 73 80 84 87 86 88 90 95 98 98 98 97 97 97 97 97 73 66 77 77 77 81 78 64 51 53 42 39 42 48 54 54 59 58 59 55 59 56 56 58 55 56 56 58 59
70 74 78 85 88 85 83 80 88 98 96 97 97 97 98 97 98 98 88 61 78 90 95 91 78 59 50 53 46 43 48 51 57 57 56 60 55 62 64 64 68 63 62 62 61 60 65
79 80 86 88 90 85 77 84 84 92 88 89 90 91 93 92 97 98 94 69 71 94 96 85 72 56 51 44 48 46 47 53 60 58 62 58 62 68 68 66 68 70 69 68 65 69 74
81 83 87 91 90 67 60 68 74 78 87 88 91 93 77 93 96 96 94 73 58 88 89 77 55 53 49 43 43 44 47 54 55 57 54 59 67 71 71 72 73 73 77 76 70 75 75
84 87 90 88 74 51 58 66 65 77 87 82 86 90 94 84 98 96 88 80 56 78 67 59 51 50 53 44 45 46 51 55 51 50 56 67 71 73 76 78 77 74 77 78 76 75 82
85 90 88 76 64 45 60 64 68 90 88 91 88 82 95 88 97 95 86 83 70 76 65 53 48 51 54 49 44 49 56 49 48 53 61 66 71 75 78 82 84 77 78 71 76 69 82
83 85 71 60 48 46 58 66 68 89 93 95 87 89 90 90 95 88 90 90 72 62 55 46 45 52 60 45 49 50 42 43 46 53 63 63 69 72 73 75 80 82 89 81 75 70 74
82 73 57 49 38 44 52 65 72 83 92 96 91 77 84 95 92 77 85 79 74 53 39 47 48 57 50 47 51 39 38 41 46 54 59 66 66 63 67 68 71 74 74 70 66 67 66
77 63 50 37 31 44 50 61 69 75 88 92 83 76 77 84 76 77 75 74 56 41 46 54 59 57 53 52 43 41 38 41 49 52 56 61 46 52 57 58 60 61 63 62 63 66 61
71 54 38 33 25 39 45 45 50 57 63 72 71 70 72 68 67 69 52 49 47 45 50 65 63 61 64 46 42 38 39 42 46 48 48 46 54 54 55 58 54 57 45 61 60 69 72
66 48 32 30 24 28 35 36 47 52 49 47 49 43 47 58 56 48 43 44 44 46 59 55 61 63 50 46 36 32 35 39 43 41 48 50 57 63 65 61 58 57 59 50 58 68 76
63 40 29 25 20 22 31 29 44 47 42 43 39 41 42 40 42 36 38 45 47 45 67 64 59 52 40 33 31 37 38 37 39 38 44 54 60 61 70 68 67 76 65 54 58 76 86
60 36 25 21 20 21 24 34 39 43 47 43 37 38 37 39 44 44 47 44 47 61 59 56 48 38 36 35 36 38 36 36 39 40 44 51 57 57 66 70 71 73 67 79 80 95 89
60 32 22 18 18 22 21 33 36 39 42 45 47 46 43 44 45 46 45 44 56 59 57 47 39 36 36 36 33 35 36 40 40 45 51 58 57 55 62 72 82 90 87 82 96 96 90
58 33 20 18 16 23 21 29 38 40 46 51 50 47 46 46 44 42 41 54 55 49 43 40 36 36 37 35 36 35 38 38 40 43 52 54 53 53 63 68 76 80 83 91 94 83 79
59 36 19 17 15 19 20 23 32 36 39 44 45 44 42 41 41 40 44 48 46 40 38 37 36 36 36 33 31 34 36 32 35 38 40 37 54 48 57 59 61 72 72 73 76 77 83
59 43 21 17 14 18 21 23 30 33 35 35 37 37 37 33 31 31 40 41 38 37 37 35 35 35 30 31 31 33 29 30 29 30 35 37 42 42 51 55 60 59 66 71 72 76 76
59 50 23 18 16 17 20 22 28 31 33 33 33 36 31 27 28 35 35 34 33 33 31 32 33 30 29 28 27 29 26 28 27 29 30 33 39 52 48 44 44 53 58 66 68 70 68
64 54 29 19 17 15 18 20 26 30 31 29 33 31 30 24 38 38 33 33 32 30 32 33 32 23 21 24 24 28 26 23 24 28 30 30 36 43 31 34 35 44 47 54 65 68 70
65 56 40 22 18 16 18 18 21 27 30 33 34 37 31 29 34 35 36 34 35 35 36 35 32 26 23 22 22 24 25 23 21 25 28 28 39 36 36 37 41 43 40 40 50 63 64
68 57 47 28 20 17 17 18 18 22 27 31 34 40 39 35 32 33 33 33 37 37 35 35 32 27 26 22 22 22 21 21 20 23 25 24 32 37 35 36 37 37 37 33 42 48 50
71 60 56 41 24 19 17 17 17 17 24 29 31 36 41 44 37 29 30 34 33 34 35 36 35 29 25 23 23 22 22 22 21 21 22 26 34 38 36 35 38 38 32 32 34 37 40
75 69 61 48 39 23 18 17 17 16 20 26 33 37 38 41 40 38 32 32 32 31 33 35 35 34 25 24 23 25 24 23 24 25 23 27 33 37 31 36 33 25 26 28 32 35 36
79 73 69 61 46 38 21 16 18 17 19 25 31 35 38 41 45 43 38 31 30 30 31 31 30 32 28 27 25 29 29 28 25 25 25 27 34 37 37 32 15 14 27 29 31 30 31
83 78 75 70 61 48 38 19 16 18 18 23 29 34 37 40 40 42 44 38 35 33 29 30 30 29 28 30 31 30 34 26 29 30 27 27 31 37 34 40 21 19 25 29 30 24 23
87 81 76 76 69 63 50 38 14 16 17 20 26 32 35 37 38 38 42 40 37 37 32 30 31 31 30 33 33 33 32 29 26 30 29 28 29 32 40 27 17 14 22 24 24 20 21
90 87 81 81 77 69 65 55 39 20 16 17 20 25 33 36 36 38 38 42 42 37 35 32 28 31 31 36 42 40 29 30 33 31 28 36 36 32 40 39 23 16 24 24 19 10 20
90 90 87 82 82 78 70 67 56 37 28 20 19 20 24 31 31 33 36 39 41 40 39 36 34 33 36 40 44 45 37 31 35 29 29 27 34 38 39 40 14 19 27 22 14 18 18
92 93 91 87 89 85 78 74 68 57 39 36 28 24 23 24 26 29 32 37 38 40 41 39 36 36 34 38 45 44 45 44 36 30 30 32 24 25 27 21 16 20 17 16 16 17 18

GFSGBSN_prec_cthk_126.txt.gz
RH
76 79 76 79 75 65 55 58 63 63 67 76 86 92 94 97 98 98 97 83 80 79 93 96 82 66 60 62 49 47 49 52 50 50 52 50 52 57 63 58 56 61 55 52 48 46 46
78 77 76 76 66 63 49 57 61 65 74 80 77 83 90 92 97 98 95 86 89 93 91 87 83 76 64 52 50 49 46 46 49 53 56 57 57 61 56 56 67 64 62 54 51 48 49
74 75 71 60 62 46 50 66 60 77 89 81 78 83 86 84 90 96 88 79 91 98 95 95 91 73 54 50 50 47 44 46 54 55 58 62 61 60 64 66 67 68 65 58 55 57 65
64 64 52 49 40 43 55 71 75 88 93 87 87 80 83 74 85 92 82 78 94 98 95 86 84 54 54 47 45 44 42 48 52 59 63 59 55 62 73 69 68 70 72 69 62 64 71
62 51 40 40 39 41 56 73 84 94 94 91 73 79 86 75 84 89 81 73 91 89 91 75 54 52 46 41 40 43 44 44 58 62 50 51 64 73 71 73 71 76 78 73 67 69 72
60 39 34 33 32 37 49 67 80 87 92 81 81 79 78 87 79 84 83 68 79 80 69 49 47 43 45 43 43 43 44 52 56 52 50 58 67 72 76 76 82 83 84 78 80 69 70
46 32 27 29 27 35 45 55 72 77 77 75 72 75 80 86 77 86 81 75 73 62 48 42 47 51 47 45 43 48 48 47 45 47 55 61 70 67 67 74 73 81 86 88 79 69 74
39 29 25 25 27 33 42 47 60 69 68 68 68 72 72 67 73 83 81 65 54 47 46 46 47 53 45 39 46 43 36 39 44 51 51 57 64 61 65 70 73 74 78 72 64 68 64
33 27 22 24 24 33 38 48 52 50 60 60 62 61 59 63 75 70 63 50 38 35 49 50 52 52 45 43 42 39 39 40 45 46 52 60 50 61 69 67 63 58 57 51 54 55 57
28 24 22 21 21 27 34 37 39 49 47 45 48 46 47 54 57 55 46 36 35 45 53 55 54 50 50 39 37 38 39 39 43 47 46 51 60 67 72 71 70 70 54 55 55 61 68
27 21 21 20 22 25 33 37 36 34 42 42 43 40 36 33 39 38 34 37 40 42 52 46 51 46 44 38 33 33 36 41 43 45 49 54 59 64 69 74 76 67 65 62 56 66 76
32 20 19 17 20 24 29 34 34 32 31 34 38 34 30 25 28 32 36 40 38 37 55 51 44 39 31 31 33 35 36 36 37 39 45 57 61 65 72 69 78 83 71 63 65 81 83
41 22 18 15 18 21 25 34 34 36 35 34 36 33 32 30 33 34 34 33 38 51 45 40 37 32 33 34 35 37 36 37 41 46 48 56 65 68 72 78 74 71 67 73 81 90 84
48 26 19 14 15 19 23 30 34 37 40 41 40 39 37 41 39 35 34 34 45 45 46 38 34 32 34 34 34 35 35 36 41 48 55 63 62 63 70 77 80 76 75 80 96 96 86
56 34 21 15 14 17 21 26 30 31 33 34 37 37 34 35 34 37 39 43 43 43 39 36 33 33 33 33 34 36 38 36 39 45 55 55 53 54 63 68 67 74 87 85 80 77 77
63 43 23 18 13 16 18 23 28 27 28 29 28 29 29 29 31 31 36 45 47 44 40 37 33 32 32 30 29 32 32 34 33 35 42 40 56 44 52 55 62 67 72 76 78 76 82
68 52 31 19 15 15 17 21 26 27 24 25 23 22 23 24 25 25 39 41 39 37 38 38 36 33 29 28 28 30 28 30 30 31 35 40 43 38 44 52 59 59 64 71 74 73 75
73 59 40 22 17 14 15 18 21 25 26 23 22 23 19 15 21 32 39 38 34 33 32 34 31 28 29 28 26 28 27 27 27 30 32 32 38 49 39 44 46 48 53 66 67 70 67
74 67 51 32 19 14 14 15 19 22 23 25 24 23 19 15 26 32 30 30 33 31 32 32 28 25 22 23 27 26 25 24 25 28 33 32 34 36 26 32 35 41 42 48 60 65 69
75 72 59 42 27 15 14 15 17 21 23 24 26 29 24 21 25 26 28 31 31 32 34 35 28 26 25 23 22 22 24 24 23 26 29 30 37 32 32 33 39 42 37 38 49 56 56
79 75 68 54 40 23 14 15 15 17 21 22 25 32 32 34 28 26 26 28 31 32 30 31 30 25 26 23 21 22 20 21 20 22 25 26 31 37 33 33 36 36 34 32 41 43 45
80 78 72 64 53 39 20 15 15 14 17 23 25 30 35 36 35 31 29 29 27 28 31 32 33 32 24 23 22 24 23 23 21 21 22 26 31 37 36 32 35 35 32 31 31 34 39
82 80 74 66 63 52 39 18 15 15 15 21 26 29 30 36 36 36 32 28 28 29 29 32 33 35 27 24 23 24 26 26 27 26 24 27 32 36 28 31 32 22 21 26 26 29 31
82 84 80 75 68 64 54 42 19 16 14 19 23 29 32 33 37 38 39 36 30 29 28 27 29 31 30 31 29 26 27 28 29 28 27 27 34 36 36 27 11 12 22 24 26 26 27
81 83 83 79 76 73 67 58 46 23 18 15 20 25 30 33 33 34 38 40 36 33 30 27 25 27 31 33 36 32 32 26 27 31 29 29 31 34 35 38 16 20 23 27 24 17 20
83 83 84 84 81 77 76 71 62 47 32 24 19 22 26 30 32 31 35 38 41 40 36 33 29 28 29 36 39 41 37 29 26 29 30 30 30 32 39 23 12 11 22 23 23 13 15
86 85 86 87 83 81 81 80 75 65 46 37 32 26 24 26 25 30 32 34 37 39 38 37 32 32 31 35 43 47 37 37 38 32 26 37 37 32 41 36 19 13 23 25 15 9 15
85 88 89 88 89 86 83 84 84 80 67 49 41 39 33 30 22 23 27 29 31 33 37 37 36 34 34 38 43 45 43 37 42 36 32 27 34 37 39 40 12 17 25 21 13 14 16
84 90 90 90 90 92 90 88 88 91 85 69 55 47 44 42 35 29 27 24 25 28 32 35 33 32 29 32 39 42 46 47 43 37 36 37 28 26 27 20 17 20 18 16 15 16 17

GFSGBSN_prec_cthk_132.txt.gz
RH
24 24 31 35 44 51 67 77 78 81 80 67 62 67 90 91 91 84 78 73 72 82 89 88 84 78 71 64 58 56 60 60 57 51 52 53 55 53 53 52 50 49 47 47 46 46 46
22 26 30 34 42 48 56 61 55 62 68 65 68 71 79 88 86 80 79 80 78 91 84 82 79 67 60 57 56 56 58 54 53 52 51 51 51 50 51 52 54 55 51 48 48 48 48
21 26 30 32 40 44 48 47 49 52 59 66 61 71 81 88 81 87 88 86 89 89 82 77 68 57 55 53 55 51 53 48 45 45 46 47 48 49 54 56 58 58 55 53 52 52 51
22 24 27 33 39 41 40 41 45 46 54 69 74 83 84 78 87 88 92 89 88 84 74 67 60 54 50 51 50 45 42 42 44 45 46 48 51 59 67 67 65 61 60 62 53 54 55
22 21 19 29 32 37 36 36 38 42 54 56 70 75 80 83 86 84 87 87 83 79 73 60 51 43 45 43 41 37 36 41 42 47 50 52 54 61 62 61 59 62 64 62 59 58 59
15 19 17 22 29 31 39 30 36 39 47 52 58 62 66 67 74 80 76 70 67 62 55 46 36 33 35 35 35 36 38 41 42 45 48 52 57 59 64 65 64 66 71 61 65 67 57
13 15 15 20 22 27 31 33 32 36 44 53 51 52 60 61 60 61 60 56 50 41 35 38 37 35 36 36 39 34 32 36 40 45 50 54 62 60 58 62 64 67 64 63 54 53 55
15 13 14 17 21 21 25 24 31 35 38 42 47 46 49 53 49 42 33 32 37 38 40 37 34 33 38 36 34 32 33 38 42 48 54 62 59 60 60 63 67 62 58 53 47 42 42
16 12 13 15 19 21 19 18 22 28 32 35 34 41 39 37 36 32 27 30 36 41 41 40 40 38 36 35 35 36 37 40 43 49 59 62 63 69 67 66 68 66 61 53 47 41 36
26 12 13 15 17 17 20 16 16 17 21 22 23 22 26 22 20 23 27 34 37 36 45 40 38 32 31 33 31 32 35 36 41 47 55 58 63 69 67 65 71 69 68 60 53 43 47
38 16 12 14 17 18 18 19 14 12 13 16 17 18 19 17 19 24 30 29 28 27 46 33 30 27 29 30 31 33 34 34 38 45 54 59 64 65 65 64 67 80 84 63 57 51 54
54 31 13 13 15 18 17 18 19 16 13 12 12 13 14 16 20 24 26 28 28 37 41 31 26 28 29 30 31 31 32 26 32 39 42 53 62 64 62 64 62 69 68 63 62 62 63
65 49 20 12 14 17 18 16 18 18 18 18 18 18 18 21 23 24 24 24 36 41 34 29 29 29 29 29 29 29 30 28 33 41 45 48 57 62 64 69 73 70 74 76 76 76 64
75 61 43 13 13 14 18 18 17 17 18 18 18 19 20 21 22 24 25 24 37 33 35 31 32 28 27 27 29 26 26 24 32 37 44 49 51 56 63 67 74 79 81 80 77 70 63
72 71 57 31 11 13 15 18 18 18 17 16 16 16 17 18 20 22 23 36 33 32 31 32 27 26 24 24 25 24 21 28 29 32 41 44 40 44 54 61 68 74 76 72 72 64 56
68 75 67 55 24 11 13 15 17 18 16 14 13 14 14 15 17 19 24 33 32 33 31 30 25 25 23 22 23 21 20 26 26 29 34 38 47 35 43 49 52 59 62 70 66 66 55
66 72 74 65 50 18 11 13 16 18 18 17 14 12 12 12 15 20 33 30 31 30 32 30 24 24 23 22 23 21 19 20 25 27 31 31 38 30 33 39 41 43 52 58 61 53 58
63 69 75 73 67 45 14 12 14 17 19 20 20 16 12 11 16 22 28 27 27 28 30 30 29 25 22 22 22 21 20 19 22 25 28 30 31 32 26 31 32 33 36 49 55 59 51
62 66 74 77 71 68 45 14 12 14 16 18 21 22 20 13 20 23 22 24 27 28 28 29 30 29 26 24 22 22 21 21 22 23 25 29 31 33 22 27 28 30 30 34 47 51 56
60 65 73 79 78 70 67 47 15 12 13 16 19 25 23 22 23 22 22 23 25 26 28 28 27 28 28 27 24 20 20 22 24 23 26 27 30 29 21 24 26 30 28 30 35 47 40
62 68 74 80 82 78 72 67 50 23 13 13 18 24 24 28 28 25 23 23 24 25 26 27 28 26 26 27 25 22 21 20 21 23 24 24 28 26 22 21 25 29 28 28 36 30 36
65 69 75 83 84 82 75 73 66 51 37 18 17 21 24 27 30 28 26 26 24 23 25 25 26 25 26 25 24 25 27 24 21 24 25 24 29 32 32 24 27 29 25 27 28 26 27
68 71 75 83 85 85 82 76 75 69 54 42 36 27 24 26 28 29 27 26 24 26 26 25 25 26 28 27 25 28 32 34 32 30 27 27 30 32 22 24 26 29 15 17 20 19 21
73 75 74 83 85 88 87 84 78 78 71 59 49 44 40 36 32 31 30 30 28 27 27 27 28 27 26 26 28 31 35 37 36 37 35 31 33 33 29 27 21 12 18 18 17 15 16
77 78 77 81 87 87 87 86 84 80 78 71 63 55 51 48 43 37 34 33 33 32 31 29 29 29 28 27 29 28 30 33 36 38 41 38 36 37 30 23 14 13 11 17 21 11 12
79 79 80 78 85 89 88 88 89 86 83 80 72 66 60 57 51 47 44 41 39 37 35 33 32 31 30 28 29 29 22 26 28 34 41 42 43 42 40 30 18 10 16 20 21 15 10
82 81 81 78 78 87 90 90 89 89 89 86 82 73 69 65 58 54 52 49 47 45 41 36 35 34 31 31 30 30 23 27 26 28 36 44 44 42 36 34 22 15 21 23 16 12 13
81 82 83 81 79 77 85 89 91 91 91 90 88 85 75 69 66 62 59 58 55 51 47 45 42 39 36 34 33 27 26 24 26 22 24 27 33 35 34 37 33 22 33 26 18 17 16
78 80 80 82 83 82 81 84 89 93 93 92 91 91 84 79 74 70 64 61 60 59 55 51 47 44 41 37 35 34 33 33 26 22 23 24 21 23 23 23 22 24 27 28 25 23 20